GFSSW_250_rhum_000.txt.gz
RH
22 33 42 45 42 42 42 45 40 36 33 29 27 26 25 24 23 25 21 20 24 17 16 16 22 25 25 28 28 40 85 100 100 96 95 88 88 90 92 87 73 59 62 54 45
28 39 42 44 46 44 45 47 44 41 41 43 43 37 38 33 30 25 25 18 19 21 17 15 18 24 24 28 31 32 41 77 95 91 84 83 82 99 89 71 63 59 54 54 48
29 46 45 42 46 46 50 56 53 44 57 60 63 55 59 55 34 26 24 21 17 16 21 14 15 21 27 30 32 32 37 37 68 88 90 78 73 78 80 86 80 77 48 66 68
27 50 51 42 45 46 52 58 45 52 72 82 81 76 96 96 63 42 26 20 19 14 20 17 13 18 28 34 39 42 43 32 34 59 79 96 87 76 65 72 71 73 83 84 67
30 41 60 46 46 49 55 58 52 61 76 72 91 100 100 100 83 38 24 18 22 16 14 20 13 15 24 37 40 45 48 38 42 78 92 94 86 81 70 55 51 62 53 45 37
35 43 69 53 48 56 63 60 60 62 64 82 94 99 100 76 69 37 30 25 17 19 15 17 16 15 21 36 38 53 52 42 40 51 61 68 64 61 56 52 42 39 36 32 27
46 53 86 58 57 63 72 58 56 80 95 100 92 92 83 95 64 40 21 15 19 17 16 15 17 12 19 35 40 48 47 48 42 42 43 42 40 41 39 32 31 33 34 29 26
59 52 89 58 68 68 69 56 58 86 100 100 100 89 96 80 48 27 8 9 13 15 15 12 13 11 16 31 39 42 42 48 45 42 40 40 39 33 30 28 29 32 30 25 22
64 54 94 58 77 78 61 60 78 91 93 96 89 94 81 48 22 9 4 2 6 10 12 11 10 11 16 27 34 38 38 49 44 41 43 46 32 34 26 26 25 23 20 19 17
63 60 92 60 82 82 65 67 76 92 100 100 100 82 34 33 16 4 2 1 2 6 8 10 9 11 15 24 24 36 39 44 40 46 48 44 34 38 27 26 21 18 17 16 16
70 72 95 71 83 81 66 60 79 95 100 91 100 45 27 20 9 2 1 1 2 6 8 10 9 9 15 25 29 38 52 41 35 44 46 42 32 48 27 25 19 18 17 17 16
80 84 92 81 85 76 61 83 83 100 73 100 63 20 17 13 5 2 1 2 3 7 9 10 9 11 20 28 30 43 45 36 28 41 44 42 25 46 29 25 19 19 19 17 17
76 98 96 82 91 68 78 87 81 94 70 96 42 21 18 8 3 2 2 2 5 7 10 8 14 12 22 30 30 38 36 30 27 40 47 46 23 34 25 22 24 22 21 18 20
82 98 99 84 97 63 97 93 94 86 80 71 36 25 14 6 3 2 2 3 6 9 13 11 13 13 21 28 30 38 35 24 27 40 50 43 30 39 28 23 26 23 21 19 20
86 99 98 88 86 69 100 84 95 97 82 44 26 17 10 6 3 2 2 4 7 12 11 13 12 16 23 28 31 38 34 20 24 38 51 38 34 37 37 34 26 21 22 22 21
94 95 96 100 70 78 98 75 95 96 73 44 21 12 6 5 4 3 3 6 10 15 12 16 15 20 28 28 32 36 28 20 24 39 46 32 39 26 37 37 33 23 24 25 24
96 94 97 98 65 92 82 80 93 80 52 30 17 7 4 4 4 4 4 10 14 12 15 16 13 20 32 28 33 32 25 22 24 35 43 30 42 25 40 36 34 29 29 30 29
99 96 100 87 66 100 80 82 84 80 44 28 16 8 5 4 4 5 7 13 15 13 16 13 14 22 36 27 30 28 27 25 27 40 45 36 51 24 37 37 37 36 31 29 31
100 92 100 76 72 96 84 69 76 70 46 24 14 7 6 4 4 5 12 16 13 14 16 12 17 22 31 26 27 24 26 28 32 44 46 44 49 29 36 41 39 39 34 30 31
100 98 99 73 85 86 95 66 60 53 47 24 17 11 10 8 7 8 14 15 11 15 13 12 16 21 25 25 28 28 29 30 32 46 49 36 42 36 37 42 42 42 38 36 33
99 100 93 71 94 81 91 56 52 44 45 36 22 13 18 15 14 16 17 13 13 15 14 14 16 22 27 25 28 28 28 32 35 42 46 38 38 40 38 36 37 42 40 38 34
91 100 90 66 95 89 99 56 53 44 37 43 34 21 19 26 20 19 18 16 19 19 18 15 17 21 30 26 24 26 26 28 32 38 44 46 39 40 40 37 34 33 35 34 36
95 100 94 69 100 96 100 54 58 43 48 43 41 39 27 25 29 25 22 19 21 20 18 18 18 21 28 22 20 24 26 29 34 37 38 40 43 40 35 30 29 29 30 33 34
100 100 97 72 100 98 100 53 56 60 53 56 40 32 38 41 35 28 22 24 24 22 17 16 17 20 25 38 36 29 26 25 27 30 33 36 34 31 25 26 28 29 31 30 30
100 100 99 72 99 87 100 58 50 57 59 50 54 40 34 29 26 22 21 19 21 21 18 16 17 18 22 28 30 32 29 23 22 23 24 24 24 24 25 28 29 29 29 28 28
100 100 95 93 95 100 92 72 60 41 56 46 48 40 33 24 18 15 15 15 16 17 21 18 18 18 20 22 28 34 35 31 26 24 31 34 33 27 28 30 31 31 30 29 29
100 100 100 83 100 100 83 74 79 61 55 52 57 34 31 30 23 18 15 12 11 14 15 18 18 18 19 20 22 29 38 38 37 34 35 34 32 33 34 33 31 29 28 28 28

GFSSW_250_rhum_003.txt.gz
RH
54 52 45 42 45 26 24 40 40 39 36 33 35 35 33 28 28 25 27 22 19 20 18 14 13 16 17 24 26 22 19 32 93 100 86 52 54 83 61 73 65 53 51 45 38
40 44 60 46 48 30 25 41 39 38 37 36 39 38 32 30 32 33 28 25 21 19 19 18 14 13 13 20 25 25 24 21 33 94 95 73 62 64 80 99 100 84 62 56 45
44 36 40 55 59 33 30 40 44 40 40 40 43 39 38 38 44 49 44 33 26 24 21 24 20 14 14 17 23 28 29 34 26 40 97 95 92 69 66 81 89 85 95 88 78
50 43 38 44 77 45 30 38 46 41 39 44 47 48 43 47 52 65 62 46 34 28 24 24 22 19 15 14 21 27 36 41 29 24 44 99 100 89 80 99 75 98 80 94 78
63 48 40 44 94 63 36 46 53 43 40 51 54 49 51 68 85 69 79 79 54 48 28 26 22 20 20 18 18 21 39 44 36 24 26 40 56 97 96 73 95 96 98 80 57
74 58 48 44 85 85 45 54 63 47 44 55 53 46 50 66 91 81 98 100 90 65 38 27 29 22 19 18 16 22 34 41 38 25 27 32 38 58 82 87 98 95 91 81 68
82 84 74 43 66 94 53 63 67 53 54 59 53 47 75 100 100 100 100 100 82 80 78 37 27 25 23 19 19 20 25 40 31 31 30 32 32 48 45 80 91 97 84 77 63
80 100 81 58 51 89 59 67 70 62 67 63 49 61 99 100 98 100 90 72 95 89 79 44 30 26 19 18 20 19 24 35 36 35 33 35 32 47 50 78 72 66 55 42 37
79 84 78 64 50 85 64 72 75 68 70 59 58 94 86 100 98 94 95 96 97 100 82 45 22 26 21 18 20 20 20 34 32 36 36 37 42 42 48 54 40 36 32 27 22
80 82 82 73 62 90 73 80 82 68 80 58 80 97 100 100 92 94 100 100 99 91 60 17 10 19 22 16 15 20 22 30 32 34 40 43 46 39 40 37 35 31 28 26 24
100 91 81 78 70 93 76 79 77 75 77 69 90 82 90 98 100 100 93 90 59 34 10 7 6 13 20 17 18 23 22 28 34 38 43 47 46 37 41 39 34 28 25 23 21
100 92 78 70 89 96 90 79 73 81 63 72 88 84 99 100 100 69 48 34 24 10 5 3 4 13 19 17 20 25 23 28 35 40 43 46 45 40 44 38 32 26 22 20 18
97 86 99 72 99 93 96 77 77 81 48 81 80 95 100 87 53 36 24 17 8 3 3 1 5 10 10 15 16 22 24 31 41 38 42 52 45 47 43 37 31 24 21 20 21
80 98 100 69 98 96 94 82 81 68 50 80 97 96 94 56 31 16 12 8 3 2 1 1 1 4 11 13 15 21 21 29 42 36 49 48 44 45 43 38 29 23 22 24 23
85 84 98 79 94 100 92 84 89 67 62 62 84 92 73 39 24 10 6 2 2 2 2 1 2 6 13 12 19 28 48 40 34 37 48 46 40 43 45 38 27 26 24 26 24
96 87 93 88 96 98 94 79 79 74 68 68 93 78 42 22 14 6 3 2 2 2 2 2 7 14 19 18 28 23 32 39 34 36 46 45 40 37 45 32 27 27 27 25 23
100 96 89 86 100 93 86 76 65 76 65 79 92 42 34 15 8 6 2 2 3 2 4 7 17 20 20 21 32 32 41 42 28 37 46 41 36 31 42 44 41 44 38 36 27
92 100 86 82 100 96 79 73 68 59 68 91 46 31 16 8 6 5 2 2 3 6 10 18 20 17 20 26 27 37 35 31 24 39 44 41 35 26 39 50 49 46 45 40 32
71 100 90 98 100 89 85 74 61 57 71 68 31 19 10 6 5 4 3 5 8 10 17 25 20 16 16 26 18 36 37 27 30 46 40 37 34 28 32 45 45 39 36 36 36
85 98 88 100 100 84 83 68 56 61 66 39 23 12 8 6 6 5 8 14 19 20 26 30 20 29 26 20 29 32 29 27 39 45 35 31 29 23 27 41 42 37 36 39 37
99 94 96 100 100 99 86 55 59 70 66 37 25 14 10 7 6 7 15 19 23 21 25 32 26 31 24 27 44 30 25 27 43 39 31 27 28 28 27 38 41 38 40 40 39
100 91 100 100 100 99 91 51 68 70 67 47 37 23 14 9 13 23 22 21 22 25 29 25 31 24 23 30 34 31 34 31 42 38 33 30 27 34 34 38 38 35 37 39 36
93 97 100 100 100 99 90 58 70 62 62 52 50 40 27 23 22 25 28 27 23 19 17 19 20 21 26 31 30 20 21 25 38 39 35 29 28 35 33 33 38 38 38 38 36
91 100 100 100 97 98 89 58 76 63 60 64 59 46 42 37 34 29 27 26 18 17 22 25 18 21 24 37 38 32 35 36 38 40 38 34 28 37 34 38 38 38 39 42 42
91 100 99 100 96 100 90 71 71 70 62 65 60 60 42 46 40 39 32 30 34 35 35 28 22 23 22 34 35 29 29 28 28 35 36 37 36 32 35 40 42 42 38 36 35
96 100 100 100 99 100 86 72 63 90 60 64 60 50 50 41 33 35 39 36 35 37 43 30 25 24 24 31 38 27 27 30 34 38 38 37 38 37 36 35 36 36 35 31 27
100 100 100 100 97 100 93 77 58 93 80 56 51 48 42 42 36 29 21 21 23 25 27 27 24 22 23 26 34 34 29 29 31 33 35 36 35 26 29 31 31 29 25 24 26

GFSSW_250_rhum_006.txt.gz
RH
100 71 58 55 49 47 41 41 32 37 31 23 35 34 32 32 32 32 32 27 24 22 18 18 18 16 14 16 17 22 20 22 19 15 65 100 100 100 100 100 93 94 72 59 76
98 73 62 68 55 53 43 45 35 37 42 23 34 33 34 32 32 31 33 30 28 25 24 18 17 17 16 15 16 19 21 27 30 20 21 87 100 100 95 100 100 100 90 47 43
99 89 67 76 68 56 50 44 42 37 46 27 23 38 39 34 32 34 36 29 23 22 23 23 20 18 18 17 17 17 20 26 30 28 20 60 99 99 94 100 100 100 100 95 46
90 100 75 63 72 63 59 48 39 52 44 36 26 40 41 37 35 41 41 33 26 29 28 28 22 18 22 19 16 14 17 22 29 30 22 28 69 89 100 96 92 95 84 70 68
99 79 64 60 68 66 59 51 40 51 56 48 38 46 45 42 44 42 42 41 37 32 39 38 29 23 23 26 17 16 17 19 25 27 23 22 28 40 73 90 85 66 70 70 79
90 82 73 79 62 80 70 57 49 49 54 58 50 50 52 51 53 47 41 48 45 57 61 54 47 33 26 25 21 21 17 17 20 25 23 22 24 26 26 53 84 87 78 87 63
93 79 82 73 62 80 74 75 70 55 57 61 57 50 58 64 56 52 42 47 51 66 94 72 76 62 40 26 23 24 19 18 17 19 24 23 25 31 29 21 53 97 99 91 81
100 100 100 85 86 79 94 100 91 69 62 58 64 57 65 66 67 56 47 82 98 99 96 96 96 100 74 32 28 24 21 18 20 16 22 25 35 39 27 24 32 52 75 89 90
100 100 100 100 95 91 77 81 80 64 64 58 66 67 74 86 72 60 53 63 65 75 80 84 80 74 52 39 28 23 20 21 20 15 20 25 40 38 25 26 31 34 53 69 78
100 100 100 100 100 100 99 77 92 73 74 62 67 69 80 97 84 74 85 90 83 82 93 98 98 99 84 77 37 30 25 25 23 18 18 25 36 31 29 32 32 42 70 82 78
54 87 100 100 100 100 100 86 87 76 66 72 64 81 85 96 86 67 72 87 94 100 100 100 100 91 100 85 66 24 23 22 21 20 20 25 37 31 32 34 37 64 72 65 44
64 53 65 100 100 100 85 97 83 78 65 74 74 95 94 89 70 72 76 90 100 100 98 91 80 100 80 59 32 16 19 21 18 23 18 26 34 33 31 38 39 57 52 44 35
94 57 43 79 100 100 75 99 91 78 63 70 82 100 90 66 69 79 87 96 96 92 90 60 69 28 18 21 21 14 16 24 19 23 23 26 32 28 31 41 36 46 43 37 32
84 58 53 41 81 79 90 97 85 86 54 71 99 100 78 63 70 78 88 73 56 53 35 18 24 17 13 9 10 19 22 27 22 23 22 26 36 31 24 34 38 41 40 37 28
74 53 55 45 76 80 100 94 99 94 56 67 96 71 59 60 73 78 58 30 27 20 13 14 14 10 7 10 10 27 26 29 51 38 30 25 33 27 26 40 52 41 40 35 26
56 53 58 38 64 89 100 85 94 76 74 82 72 51 53 76 78 51 32 20 16 9 8 7 4 3 3 5 8 36 27 31 31 27 29 30 41 32 32 46 54 41 39 34 26
39 56 51 33 72 98 100 98 92 87 86 79 59 52 70 65 43 24 14 14 8 5 3 2 2 2 2 4 15 13 21 24 32 44 48 23 30 29 40 50 54 42 38 34 30
34 53 36 50 92 97 98 100 92 84 99 66 56 69 61 35 22 12 10 7 4 2 2 2 1 2 4 8 13 20 24 23 26 19 23 20 31 28 43 57 51 41 39 36 35
34 47 35 70 98 100 100 100 88 100 75 61 69 56 32 18 9 8 7 4 3 3 3 2 3 7 14 19 27 31 29 33 54 27 40 39 41 40 47 56 47 40 37 36 36
38 38 48 75 100 98 100 100 98 93 65 78 69 38 22 9 7 6 5 3 4 4 3 5 18 20 24 31 61 47 45 93 72 31 31 40 46 42 48 51 44 42 39 45 49
36 32 64 70 88 100 100 96 97 72 73 83 72 36 14 8 7 5 4 5 7 7 10 21 29 49 54 47 45 55 66 55 55 36 44 47 40 42 50 45 43 47 49 51 49
30 46 66 69 98 100 100 96 96 72 91 91 63 37 22 9 8 8 6 16 29 36 39 47 52 67 93 89 76 54 34 30 31 33 38 44 47 50 45 43 40 43 44 44 37
29 64 62 85 100 100 100 93 74 78 97 94 63 49 41 39 21 14 24 47 43 46 91 81 60 72 100 85 75 52 49 26 32 43 41 48 45 46 41 35 35 38 40 40 35
47 62 81 100 100 100 100 88 71 81 98 94 72 63 63 62 31 30 45 72 52 66 88 100 82 89 99 74 62 48 31 29 24 37 37 43 49 46 39 30 30 32 35 37 36
53 75 96 100 100 100 97 76 71 91 95 88 76 75 70 78 39 35 40 66 63 57 72 98 80 63 61 43 28 29 21 20 37 43 42 40 46 40 33 29 27 28 33 33 33
65 77 99 100 100 100 94 67 78 100 95 69 74 83 73 57 60 33 38 52 47 53 61 60 48 40 44 31 32 26 20 29 32 29 32 36 37 39 31 28 27 29 32 36 38
70 93 95 100 100 100 98 74 77 98 91 70 74 78 72 60 58 50 42 32 31 29 29 26 25 19 22 25 27 26 30 30 37 41 48 46 38 34 34 29 33 34 37 39 40

GFSSW_250_rhum_009.txt.gz
RH
100 100 79 75 81 94 93 72 48 48 48 38 28 28 30 35 23 26 29 26 28 29 28 26 24 19 20 20 14 14 12 17 18 23 25 14 49 100 100 100 100 85 87 79 98
100 100 100 99 95 100 100 77 46 49 56 46 38 33 32 39 30 27 23 27 29 30 31 28 27 23 20 19 18 14 14 17 18 18 23 16 13 44 100 100 100 99 85 80 91
100 100 100 100 95 100 100 79 54 52 60 54 51 42 38 33 38 24 22 24 26 28 27 28 31 31 28 22 18 18 17 15 18 17 20 19 10 16 60 99 100 100 100 74 91
100 100 100 100 98 95 100 100 78 61 61 60 52 46 44 36 50 36 27 30 32 32 32 31 29 27 24 24 22 18 19 16 17 17 16 21 18 19 21 47 96 100 100 89 82
100 100 100 100 96 99 100 100 93 59 63 57 58 57 49 41 45 47 40 38 39 37 37 34 30 26 24 22 22 23 19 18 17 15 17 16 23 24 23 18 38 91 100 99 78
100 100 100 100 100 99 100 75 82 74 66 70 69 60 55 54 48 47 54 48 49 45 38 40 35 28 28 26 25 26 22 20 20 18 16 16 22 23 26 29 21 52 98 100 86
100 100 100 100 100 100 100 100 99 92 78 74 76 84 98 59 52 50 51 58 52 55 49 48 36 32 37 33 36 35 28 24 25 22 20 16 15 24 28 33 27 30 87 100 100
100 100 100 100 100 100 100 96 97 75 57 61 66 86 100 84 64 54 49 59 56 57 59 52 38 35 37 39 46 42 35 29 36 33 24 14 18 27 26 29 32 27 44 63 82
62 100 100 100 100 100 100 100 100 100 87 69 65 71 97 96 74 61 53 61 63 60 63 58 47 49 55 61 83 72 52 38 38 36 24 14 19 23 26 26 33 29 26 35 32
60 62 83 100 100 100 100 100 100 100 100 100 80 85 85 100 87 76 65 70 70 70 72 70 58 59 65 65 62 56 46 46 50 42 26 17 17 26 22 23 31 30 26 32 26
84 87 58 58 85 94 100 100 100 100 100 100 100 100 90 99 85 74 64 70 73 79 89 66 60 66 78 83 75 68 51 39 43 39 24 23 18 28 24 21 28 32 24 36 31
90 81 84 86 74 63 68 80 98 100 100 100 98 100 93 100 93 73 64 69 74 90 81 74 77 89 85 74 67 70 58 54 53 39 26 29 18 27 24 21 28 30 23 36 28
90 93 98 86 88 92 84 77 62 72 87 100 100 80 86 94 85 75 58 70 85 80 75 70 77 76 74 72 69 67 51 58 55 48 28 25 17 27 23 19 26 32 25 33 27
78 77 81 86 93 90 84 84 65 45 44 99 100 92 99 98 81 59 63 71 77 63 62 60 73 75 67 62 65 62 86 85 52 47 35 27 20 26 26 21 23 28 21 32 32
69 68 65 82 89 87 86 83 63 34 37 78 80 95 100 100 80 68 70 77 66 61 55 56 69 61 43 65 48 61 50 55 54 47 32 26 18 29 27 16 21 23 24 40 43
69 76 66 89 82 88 90 72 60 38 47 65 80 100 100 88 61 66 77 57 51 43 33 35 30 29 27 28 23 35 29 35 36 41 29 32 19 34 22 22 29 21 26 41 49
69 69 64 75 78 92 84 56 46 49 69 73 97 94 74 61 66 71 46 34 30 23 16 12 14 13 14 15 15 14 21 25 26 36 48 28 25 42 25 25 24 20 40 43 48
50 60 55 71 76 74 69 47 45 62 76 94 83 76 65 73 72 41 35 22 14 10 9 9 7 5 6 6 10 13 18 24 44 70 89 48 28 42 28 30 22 27 41 42 47
34 31 38 54 62 68 47 47 61 72 97 100 100 81 88 68 34 35 15 9 8 7 6 4 3 2 3 3 6 11 15 51 96 100 56 80 31 30 26 29 29 43 50 46 45
17 17 27 52 53 50 48 62 75 94 100 100 96 92 73 41 34 16 10 7 7 4 3 3 2 2 2 3 4 15 32 77 100 100 85 44 30 27 28 43 40 57 52 45 47
18 21 34 42 37 45 63 74 96 100 97 100 98 83 61 39 30 9 6 6 4 3 4 3 3 2 4 5 12 17 55 100 100 100 95 66 25 24 25 47 45 52 53 52 48
16 23 34 31 41 65 73 94 100 99 100 100 85 75 52 32 14 11 9 6 6 9 22 24 8 15 15 36 36 96 100 100 100 100 77 40 26 24 42 54 52 52 56 55 49
18 25 22 37 54 76 85 100 100 100 100 88 97 57 45 32 35 20 10 13 34 75 100 100 100 100 100 100 100 100 100 100 100 100 82 36 26 31 42 55 53 58 60 54 45
14 18 28 45 82 84 100 100 100 100 100 87 79 75 84 48 54 27 20 58 46 100 100 100 100 100 100 100 100 100 100 100 100 100 71 36 29 43 41 53 59 57 53 50 44
18 28 45 86 74 100 100 99 100 100 95 100 77 92 100 87 83 30 53 78 83 100 100 100 100 100 100 100 100 100 100 100 100 97 45 33 33 44 46 50 52 54 52 47 45
30 33 69 66 100 100 100 94 100 94 96 100 85 99 100 100 89 52 49 80 79 85 100 100 100 100 100 100 100 100 100 100 88 36 26 23 33 41 44 44 50 52 53 51 44
28 51 68 92 100 100 87 100 99 94 93 100 92 94 100 100 99 81 57 69 71 77 97 89 100 100 100 99 90 92 73 58 24 20 20 23 33 37 53 55 57 55 50 48 46

GFSSW_250_rhum_012.txt.gz
RH
11 56 70 100 100 100 100 100 59 64 99 94 69 49 42 34 32 31 31 30 33 29 20 21 23 21 22 23 22 20 16 16 15 15 14 13 16 14 13 17 90 100 92 98 98
2 60 87 100 100 100 100 100 76 54 96 100 90 61 51 49 44 38 31 33 32 37 22 19 18 22 22 25 23 23 21 21 17 14 13 10 15 18 16 13 28 72 100 89 91
3 56 100 100 100 100 100 100 96 74 99 100 89 72 53 52 53 48 38 38 37 34 36 21 17 19 24 25 27 26 26 22 22 19 16 12 13 20 27 16 13 25 91 100 100
6 43 100 100 100 100 100 100 100 100 100 100 100 83 62 55 61 60 50 46 45 40 44 34 22 20 22 26 25 28 31 30 25 21 21 18 12 16 27 32 17 16 24 100 100
18 47 88 100 100 100 100 100 100 100 100 100 100 100 69 56 57 63 60 49 47 47 46 51 38 30 27 28 30 28 30 31 32 24 22 20 17 16 19 32 21 18 15 54 100
26 48 97 100 100 100 100 100 100 100 100 100 100 100 76 66 64 63 72 67 48 49 44 42 48 39 37 34 32 30 28 23 27 29 25 22 20 15 19 29 22 23 15 18 49
32 49 80 100 100 100 100 100 100 100 100 100 100 100 88 70 78 94 91 81 84 64 63 44 38 40 39 38 36 36 30 24 22 26 27 22 20 18 23 21 22 25 22 20 24
35 50 72 88 100 100 100 100 100 100 100 100 100 100 100 100 74 73 78 83 68 63 72 47 41 38 45 44 42 35 30 28 32 32 30 22 25 24 23 19 20 24 24 25 30
75 40 48 93 98 96 100 100 100 100 100 100 100 100 100 100 59 54 75 78 74 79 70 57 48 44 43 45 46 45 37 39 45 47 40 27 38 31 24 21 19 22 23 24 30
97 96 46 57 80 97 100 100 100 100 100 100 100 100 100 100 100 60 58 97 83 72 76 70 47 48 51 58 73 60 38 43 48 54 41 30 33 38 26 22 18 22 22 25 30
85 93 100 66 46 65 100 100 100 100 100 100 100 100 100 100 100 100 91 94 86 87 83 61 53 68 74 62 59 61 45 51 60 70 56 36 33 33 33 23 18 21 22 26 31
84 83 84 90 96 84 58 65 93 100 100 100 100 100 100 100 100 100 97 100 94 91 79 67 51 68 60 56 73 82 54 58 66 71 70 66 61 40 39 34 20 21 21 25 29
80 86 78 73 74 85 92 90 66 64 71 83 89 100 100 100 100 100 98 95 87 71 64 56 65 75 68 65 75 87 62 67 78 80 65 67 57 43 46 42 23 25 23 24 28
60 80 85 75 79 83 78 74 76 87 80 89 98 94 84 73 87 82 84 80 73 76 61 50 90 85 68 61 76 85 72 78 89 94 61 44 42 33 40 39 23 22 22 28 27
58 63 76 84 83 88 79 87 84 85 74 95 100 92 85 72 67 77 70 66 77 66 54 55 71 66 54 77 75 70 64 65 69 69 66 46 31 42 39 35 27 25 25 31 26
51 62 65 74 86 80 78 88 78 74 75 97 98 87 78 67 60 61 67 73 72 55 45 51 54 59 55 64 54 47 50 43 47 53 44 61 38 52 42 43 28 24 25 28 24
46 54 65 67 74 69 67 70 72 68 92 97 83 74 74 69 74 79 79 78 70 55 49 45 47 42 38 36 34 36 47 47 47 48 27 62 31 56 65 56 29 26 31 30 24
32 44 66 69 70 75 79 83 71 98 94 78 81 68 66 70 90 70 62 54 47 42 35 28 22 22 23 19 16 17 21 20 16 19 25 53 29 79 93 51 24 27 29 23 24
15 31 58 65 69 65 71 85 90 95 83 83 66 52 67 82 69 61 50 43 37 27 23 19 10 8 9 8 7 8 7 17 15 18 20 35 51 100 54 23 24 27 28 32 23
15 24 46 63 75 72 82 99 100 85 78 75 58 78 73 64 59 46 35 31 32 20 10 9 8 6 4 4 4 6 10 8 13 20 30 49 96 73 34 33 29 32 32 34 25
10 16 21 44 62 61 77 99 91 72 79 70 90 69 76 65 42 40 40 29 15 8 7 5 4 3 3 3 3 4 8 17 26 42 80 82 92 82 68 40 42 37 39 33 29
12 13 10 21 36 53 83 90 65 76 88 99 77 93 79 54 52 35 20 13 8 6 6 8 8 8 7 9 11 15 11 39 67 99 94 98 100 82 62 43 40 33 36 27 37
16 18 12 20 36 60 64 62 75 97 95 90 95 99 64 60 86 47 37 20 15 27 17 39 69 58 43 59 45 37 42 62 100 100 100 100 91 54 59 42 35 32 32 38 49
11 13 17 24 34 42 50 73 98 90 97 98 100 79 57 53 77 57 49 74 100 100 100 98 100 100 100 100 100 98 97 100 100 100 100 100 100 97 44 38 33 32 40 51 55
10 21 28 50 53 45 76 93 79 90 100 100 97 86 96 97 81 45 76 100 100 100 100 100 100 100 100 100 100 100 100 100 100 100 100 100 96 89 43 34 30 28 44 50 56
16 20 37 28 33 78 89 76 89 100 100 100 95 96 100 100 87 78 82 100 100 100 100 100 100 100 100 100 100 100 100 100 100 100 98 100 93 59 35 31 33 39 42 51 60
21 24 25 33 68 80 71 99 100 100 100 100 94 69 98 100 98 82 67 97 100 100 100 100 100 100 100 100 100 100 100 100 100 100 88 97 72 40 34 33 44 46 52 62 71

GFSSW_250_rhum_015.txt.gz
RH
70 76 79 72 63 68 72 77 88 100 100 98 76 67 71 83 93 82 46 33 39 31 27 27 28 27 28 21 22 22 21 27 26 18 16 12 13 13 15 17 17 19 81 100 100
56 67 77 65 67 74 73 85 94 94 100 100 90 86 69 86 99 98 53 44 33 37 35 36 34 32 31 22 20 22 24 28 28 24 20 13 15 14 14 16 18 16 17 29 98
49 70 64 57 63 62 58 45 78 96 100 100 100 91 78 79 100 100 68 53 40 39 42 42 39 35 34 29 22 20 24 24 28 26 24 19 18 16 15 15 18 17 14 14 18
60 72 69 66 58 34 17 43 100 100 100 100 100 99 100 78 99 100 69 60 48 41 42 39 41 40 38 39 26 19 20 23 27 25 26 22 21 21 16 18 15 15 13 17 16
86 95 70 59 26 14 21 90 100 100 100 100 100 100 100 93 100 100 100 63 53 51 47 46 41 44 44 42 39 27 25 23 27 24 25 26 21 21 21 19 17 15 14 16 18
100 91 66 40 13 14 73 100 100 100 100 100 100 100 100 100 100 100 100 87 60 59 57 66 52 45 47 46 40 38 33 30 29 33 30 27 24 18 25 27 21 18 14 15 17
100 92 68 34 12 26 76 100 100 100 100 100 100 100 100 100 100 100 100 100 87 75 70 79 65 53 42 54 48 38 39 34 32 34 29 28 27 26 29 24 26 19 16 13 14
100 100 78 43 19 40 90 100 100 100 100 100 100 100 100 100 100 100 100 100 100 92 84 78 50 54 47 47 42 40 36 37 43 38 33 27 28 31 27 22 25 25 19 15 13
95 100 96 66 26 34 72 100 100 100 100 100 100 100 100 98 100 100 100 100 100 99 99 75 56 57 56 62 44 49 45 41 41 38 31 28 27 32 23 22 23 24 22 19 15
80 100 100 87 62 35 63 77 100 100 100 100 100 100 100 100 100 100 100 100 100 100 100 88 63 60 68 68 54 40 39 43 45 47 39 39 31 34 25 21 28 26 22 21 18
72 88 99 100 86 61 45 71 92 99 100 100 100 100 100 100 100 100 100 100 100 96 81 66 58 61 64 62 59 47 52 46 50 52 47 47 38 35 32 24 30 32 24 23 22
73 66 96 100 100 84 62 54 79 89 98 96 97 100 100 100 97 88 93 93 100 100 100 94 72 88 73 59 63 55 52 52 50 56 49 54 47 40 40 36 32 44 32 26 26
67 75 83 99 98 100 97 70 44 64 84 91 94 100 92 85 93 98 80 80 98 100 99 91 95 96 90 86 55 61 49 55 50 60 46 52 58 51 42 45 43 47 49 35 30
46 63 82 85 96 100 100 91 74 73 52 62 58 68 66 59 61 79 93 78 74 79 74 68 100 82 55 63 58 68 55 47 45 54 48 48 52 56 45 51 63 70 69 49 35
38 44 66 79 98 100 100 90 99 88 73 88 88 78 74 69 69 83 86 77 78 73 60 62 65 74 62 86 58 47 59 50 50 54 51 46 32 65 51 50 50 58 62 61 39
30 41 46 57 93 100 92 98 100 88 74 87 100 97 89 88 96 100 100 91 85 73 60 55 52 52 50 52 50 52 59 55 51 54 33 62 30 58 72 67 75 58 47 49 34
15 27 61 56 83 87 88 99 97 93 99 100 100 97 98 98 91 88 88 89 78 53 46 31 29 33 36 46 51 51 52 44 40 34 26 52 36 44 76 75 77 63 61 46 41
8 16 49 58 73 71 83 87 99 100 100 100 95 93 100 92 85 90 94 82 58 36 24 26 31 39 42 38 35 33 35 33 34 34 34 57 24 32 70 89 94 85 71 50 36
8 12 37 37 61 69 80 81 91 100 100 99 90 95 79 77 91 84 75 50 35 32 40 41 37 39 38 39 37 34 28 39 25 20 23 25 25 30 49 88 93 77 73 59 39
6 9 10 20 59 85 88 86 86 95 91 91 100 100 100 99 91 71 45 45 46 44 39 36 32 27 22 14 11 10 9 8 7 7 7 13 19 26 62 92 88 82 92 63 40
5 10 10 13 37 69 89 94 90 87 85 100 100 100 99 95 68 62 61 43 42 34 28 22 16 8 7 5 4 4 3 4 6 9 9 11 14 34 79 93 79 75 87 66 42
5 9 10 10 23 65 97 97 87 80 82 100 100 100 91 66 72 65 38 44 39 19 13 11 10 10 7 7 4 4 3 3 6 7 9 11 18 34 59 70 66 72 64 57 41
8 10 10 11 19 42 80 87 84 85 99 100 100 90 62 69 82 60 86 64 59 30 45 36 37 33 21 18 13 13 7 6 6 7 10 14 27 38 54 58 63 73 61 40 39
9 9 7 12 25 28 39 55 65 76 100 100 90 77 63 94 100 100 93 82 93 94 97 92 94 84 81 97 81 67 29 19 12 27 32 42 56 69 80 82 73 81 52 39 42
9 10 14 30 37 31 36 47 57 96 100 93 88 64 86 98 100 89 87 86 100 100 100 100 100 100 100 100 100 100 99 50 51 60 68 88 100 100 100 97 78 59 39 44 46
11 17 21 18 15 21 38 56 78 100 99 96 66 74 76 76 100 82 58 97 100 100 100 100 100 100 100 100 100 100 100 100 100 100 100 100 100 100 100 100 100 63 42 46 44
12 14 14 13 21 29 42 62 86 95 97 72 77 91 92 99 100 87 76 91 100 100 100 100 100 100 100 100 100 100 100 100 100 100 100 100 100 100 100 100 99 56 41 38 48

GFSSW_250_rhum_018.txt.gz
RH
53 57 55 77 76 74 74 85 75 70 86 100 100 100 100 100 64 53 70 66 58 52 36 35 31 29 27 25 22 23 24 27 25 21 16 11 11 11 11 12 12 14 16 15 18
59 61 49 57 55 76 78 82 86 74 76 71 92 100 100 100 100 71 60 69 77 64 46 43 39 39 33 28 25 23 27 26 26 25 22 14 12 12 13 16 14 14 14 16 15
37 33 30 38 51 57 81 90 81 87 80 82 76 75 87 100 100 97 58 67 75 74 62 54 45 41 40 34 32 27 32 29 27 26 26 24 20 18 18 15 16 14 12 16 18
24 24 25 37 52 55 61 94 94 80 89 79 76 77 84 92 95 100 71 74 71 94 84 58 53 41 39 42 36 34 30 34 29 22 19 20 22 24 23 24 16 14 14 14 17
16 18 25 31 36 48 56 71 89 92 92 84 79 80 87 95 100 100 99 76 81 87 84 81 73 43 41 42 41 36 34 34 40 28 20 17 18 22 26 26 21 17 14 14 15
19 22 29 37 46 57 65 85 94 93 95 92 85 83 83 100 100 100 100 89 84 82 91 100 78 66 50 46 44 44 42 40 40 45 33 22 18 15 28 28 26 20 16 14 13
21 25 34 47 66 89 90 100 100 100 94 84 62 63 94 100 100 100 100 99 76 86 86 100 100 84 62 55 56 51 43 46 44 43 39 31 26 24 25 21 26 25 20 16 13
28 33 41 61 87 100 100 95 82 66 50 31 40 86 100 100 100 100 100 100 92 80 88 100 100 100 85 74 76 68 54 42 48 48 43 32 36 30 25 21 23 24 21 19 18
48 38 50 70 92 100 99 80 58 25 14 30 77 100 100 100 100 100 100 100 100 96 92 95 100 100 100 97 90 81 63 56 44 41 42 37 31 37 27 26 25 28 26 23 21
66 63 52 66 82 100 98 89 53 19 20 62 100 100 100 100 100 100 100 100 100 100 91 99 100 100 98 100 90 83 65 52 48 52 47 43 34 43 38 27 27 26 24 23 23
64 78 69 69 70 100 100 99 65 24 33 100 100 100 100 100 100 100 100 100 100 99 94 90 100 100 100 100 92 94 59 62 58 59 50 41 34 42 46 32 30 31 28 25 22
53 68 79 76 82 83 100 100 91 37 45 72 99 100 100 100 100 100 100 100 100 100 100 100 100 100 98 83 82 73 69 59 51 56 51 56 38 42 48 53 41 39 35 30 26
32 46 68 79 84 83 100 100 88 69 39 66 100 97 100 100 99 99 100 100 100 100 100 91 93 90 71 61 55 77 71 74 61 54 44 43 41 37 51 47 44 41 44 38 34
25 29 42 67 70 93 96 100 100 96 66 50 63 90 85 85 80 78 84 89 96 87 67 59 72 63 65 65 60 66 88 93 92 76 54 42 34 41 44 53 54 55 49 44 44
14 22 30 45 55 83 100 100 100 100 86 67 51 86 88 94 99 89 75 74 81 82 80 82 74 63 55 68 59 60 69 70 74 58 62 58 24 40 48 53 64 81 63 56 62
7 13 22 34 43 84 86 90 95 98 91 96 77 65 71 76 82 91 97 85 73 63 62 70 64 61 66 71 65 63 64 56 48 51 28 42 22 29 58 76 73 93 78 60 69
5 9 14 30 36 70 94 97 86 84 100 100 100 100 90 82 80 81 82 82 81 81 84 88 96 96 93 92 73 53 41 30 22 22 14 27 26 30 52 100 85 98 92 72 74
3 6 10 21 36 50 83 93 78 100 100 100 100 100 100 100 100 100 100 99 99 100 100 97 93 76 65 55 36 21 21 19 20 19 17 19 19 26 37 74 98 93 93 82 78
3 5 8 14 30 39 63 83 93 100 100 100 100 100 100 100 100 100 100 100 100 89 81 72 58 44 30 29 32 33 28 34 19 18 17 18 22 33 33 48 60 94 89 93 77
4 5 7 14 25 30 54 80 97 100 100 100 100 100 100 100 100 100 100 100 94 85 65 48 31 31 33 27 24 23 22 19 12 11 10 11 16 24 31 53 55 81 93 76 77
4 5 8 11 20 30 70 75 100 100 97 99 100 100 100 100 100 100 100 90 76 58 38 39 36 28 16 11 10 10 9 7 5 5 5 6 9 22 28 46 61 78 80 75 73
4 5 10 12 12 18 64 70 91 91 91 100 100 100 100 100 100 100 88 71 54 51 55 57 70 48 46 27 18 10 5 3 3 2 2 3 6 8 20 32 55 62 68 68 71
4 6 7 8 9 17 61 78 76 94 92 100 100 100 100 100 100 80 69 59 76 100 100 100 96 96 81 64 33 21 11 5 3 3 2 2 4 5 8 14 34 55 55 68 80
5 6 7 8 10 14 42 66 65 96 100 100 100 100 100 100 81 67 65 90 100 100 100 100 99 100 91 99 71 40 19 12 10 7 6 6 6 7 8 12 21 37 52 81 95
4 6 9 12 14 20 33 54 58 92 100 100 100 100 100 82 66 68 79 100 100 100 100 98 100 100 100 100 100 100 68 75 40 17 12 10 10 11 14 18 27 42 59 74 92
6 7 11 14 15 22 34 50 67 96 100 100 100 100 85 76 68 72 100 99 84 98 100 100 100 100 100 100 100 100 100 98 78 49 42 28 30 37 44 52 56 64 70 80 80
8 9 11 14 19 22 20 26 46 74 100 100 100 80 76 73 83 88 96 88 89 89 100 100 100 100 100 100 100 100 100 100 85 92 96 94 100 100 90 100 99 100 86 78 65

GFSSW_250_rhum_021.txt.gz
RH
92 76 74 67 69 79 76 67 62 66 67 72 68 69 87 100 91 96 82 69 59 52 63 57 49 39 32 24 21 24 23 25 20 17 14 11 12 14 16 15 11 11 14 15 15
44 76 90 62 68 65 70 69 86 69 63 69 73 76 78 91 100 100 85 88 72 52 52 71 64 54 38 36 27 24 28 30 23 20 18 13 12 15 20 18 15 13 12 13 14
26 42 62 64 58 61 56 78 75 84 86 68 69 78 82 85 100 100 100 100 99 68 56 59 70 61 46 49 38 33 41 34 29 25 21 17 19 19 21 20 16 13 11 13 13
22 54 57 60 68 74 64 65 61 72 81 84 76 71 86 82 84 100 100 100 100 95 70 66 69 66 58 48 50 45 43 43 36 28 24 21 21 22 21 27 18 15 13 12 12
23 34 35 52 54 53 51 57 54 45 52 84 92 92 87 87 93 84 86 100 100 100 92 63 80 63 62 60 63 50 46 47 47 41 32 25 24 24 23 24 20 16 18 18 14
20 18 20 28 31 36 32 29 38 29 37 57 80 100 100 95 89 96 92 92 89 88 94 74 67 89 65 61 69 58 46 46 46 44 37 31 28 24 29 21 17 15 17 20 22
31 29 21 19 19 19 22 24 26 29 44 60 73 100 100 100 99 99 92 86 85 90 100 96 71 67 84 72 76 90 67 56 48 45 47 40 36 34 32 28 21 16 16 19 22
42 41 33 24 23 21 22 23 26 34 45 60 71 98 100 100 100 100 100 96 99 98 98 100 91 82 92 74 84 85 100 81 60 51 47 41 46 37 35 36 36 26 20 17 19
41 45 47 43 29 27 25 30 43 55 61 72 82 100 100 100 100 100 100 100 100 100 100 100 99 92 87 88 74 100 100 96 85 70 63 55 40 44 34 34 36 37 32 27 24
38 43 48 60 45 37 33 42 57 74 90 100 100 96 100 100 98 100 100 100 100 100 100 100 100 98 96 93 76 94 100 100 100 96 84 77 52 51 40 35 34 33 34 36 34
39 37 50 50 58 44 46 65 86 98 100 100 100 100 100 100 100 100 100 100 100 100 100 100 100 100 99 94 90 94 100 100 100 100 98 72 47 56 52 45 51 41 36 35 36
21 33 41 47 55 58 49 86 95 98 90 86 96 81 50 47 65 75 83 100 100 100 100 100 100 100 94 87 83 74 82 99 100 99 69 62 40 50 55 51 55 50 40 41 43
7 12 34 39 43 44 69 92 95 95 84 90 92 64 24 18 43 71 89 100 100 100 100 100 100 100 87 79 82 90 88 82 81 86 84 68 58 75 78 58 50 61 59 53 50
5 6 14 34 38 46 67 80 98 92 90 94 85 54 24 29 62 94 100 100 100 100 100 99 99 94 99 100 100 97 98 72 48 42 51 64 50 63 72 68 60 59 58 59 62
3 5 7 25 35 39 62 94 78 94 88 89 83 61 44 39 93 86 99 100 100 100 100 100 100 88 78 94 69 63 62 58 56 55 46 47 38 51 100 95 100 90 70 56 59
2 4 6 14 31 35 50 72 63 71 95 94 89 74 58 68 92 79 84 80 87 91 85 72 68 73 86 78 62 60 55 49 46 44 32 44 41 40 68 100 100 100 87 67 65
2 3 6 9 24 35 45 50 61 65 100 100 100 93 74 66 82 87 91 98 95 89 90 90 90 76 72 68 64 62 63 58 51 47 38 42 45 43 58 79 88 91 69 68 57
2 3 5 8 18 38 41 49 60 98 100 100 100 100 95 77 70 78 91 99 94 93 90 90 96 84 79 77 84 72 56 53 36 36 34 36 22 34 60 41 55 70 74 57 50
2 3 5 8 13 26 41 50 77 98 100 100 100 100 100 100 100 94 94 95 95 99 99 96 97 91 91 85 71 68 63 49 32 27 17 19 17 19 25 25 29 42 100 78 60
2 3 4 9 12 25 33 55 81 96 100 100 100 100 100 100 100 100 100 100 100 100 100 99 100 95 79 67 54 43 31 24 18 13 10 10 15 26 37 14 13 36 72 96 66
2 3 4 9 12 15 31 49 84 91 98 98 100 100 100 100 100 100 100 100 100 100 100 95 77 73 57 40 32 26 18 12 7 6 5 5 8 14 29 18 16 32 65 97 72
3 3 5 8 9 11 22 49 70 82 100 100 100 100 100 100 100 100 100 100 100 100 87 82 65 56 51 53 62 57 45 23 8 6 3 2 4 7 13 18 17 25 42 80 70
3 4 5 7 11 14 26 48 73 98 100 100 100 100 100 100 100 100 100 100 98 98 75 67 82 84 77 73 56 45 33 24 16 9 3 2 3 2 6 13 14 22 33 53 61
4 4 5 8 12 13 22 46 72 94 100 100 100 100 100 100 100 100 98 99 92 83 77 94 96 84 71 60 55 76 82 39 15 10 6 3 2 2 2 7 12 18 35 42 55
3 4 5 8 9 11 23 41 67 83 100 100 100 98 100 100 100 98 89 96 81 90 100 94 79 67 85 86 80 91 93 65 34 18 8 7 5 3 3 5 9 18 31 42 50
4 4 7 9 12 16 26 40 66 85 100 98 99 100 100 100 98 87 94 73 96 92 93 80 75 100 94 100 100 100 97 85 76 50 27 17 10 9 11 10 11 13 24 36 41
6 7 9 12 15 18 26 36 61 82 100 100 100 100 100 100 95 82 74 90 83 97 92 64 90 100 100 100 100 100 100 85 93 93 89 70 37 26 27 23 29 26 31 44 46

GFSSW_250_rhum_024.txt.gz
RH
14 16 25 37 53 68 83 76 74 65 72 69 80 96 100 100 100 100 100 100 100 100 95 86 91 94 88 79 66 65 55 43 37 30 26 23 20 19 16 15 15 15 16 16 17
12 17 24 35 49 66 86 85 80 82 78 74 71 65 78 76 95 100 100 100 100 100 95 78 72 68 71 66 61 50 37 32 27 23 22 19 18 17 16 15 15 14 14 13 12
10 13 18 22 40 50 72 80 87 93 87 82 75 75 68 71 61 83 98 100 100 100 100 89 72 68 59 66 71 56 44 34 29 25 22 18 17 17 17 17 17 13 13 15 14
10 12 17 22 30 49 66 92 92 97 91 83 97 87 85 76 78 67 76 94 100 100 96 86 83 72 63 58 65 67 56 45 45 37 35 25 20 21 19 21 16 14 15 16 18
12 14 14 18 31 34 75 73 78 100 97 84 86 90 93 82 84 78 68 76 79 96 98 100 98 94 90 59 62 70 67 56 59 56 42 33 29 26 30 29 23 19 19 22 20
15 18 21 18 24 39 69 74 86 78 70 77 87 90 97 100 96 88 83 81 81 86 100 100 100 100 100 76 64 76 73 65 62 72 56 48 37 33 36 27 26 26 26 25 22
19 22 26 24 25 30 43 60 66 70 81 65 78 69 80 83 100 100 93 90 90 85 91 100 100 100 100 100 89 66 73 63 64 73 87 62 44 42 39 33 35 28 28 28 25
24 24 29 34 38 34 24 25 34 62 63 65 81 72 62 64 91 100 100 100 98 100 91 90 98 100 100 99 92 68 60 58 68 67 81 95 64 51 46 42 40 36 32 35 33
28 36 36 36 39 41 34 26 24 32 51 59 78 77 65 55 48 83 100 100 100 100 100 98 96 93 96 95 91 86 66 59 53 72 74 82 98 69 61 46 43 42 36 38 38
31 30 30 41 43 39 43 34 27 28 28 34 56 57 45 39 41 58 100 100 100 100 100 100 98 95 100 94 92 87 76 70 60 74 73 71 90 97 74 60 54 43 40 38 40
9 11 20 26 41 47 42 32 33 30 36 61 51 35 35 43 58 71 96 100 100 100 100 100 100 100 97 94 92 92 88 79 86 89 91 77 81 100 100 90 76 50 38 38 36
5 5 7 10 26 38 33 41 67 40 32 37 40 46 53 60 65 80 97 100 100 100 100 100 100 100 100 100 100 98 96 94 99 98 89 86 96 100 100 100 94 92 73 56 51
3 4 5 6 10 24 30 61 70 45 41 54 63 71 86 91 96 99 100 100 100 100 100 100 100 100 100 100 100 100 87 99 88 89 86 75 74 100 100 100 100 100 97 76 66
2 2 3 4 8 14 36 64 77 55 39 63 84 91 100 100 99 97 100 99 100 100 100 100 100 100 100 100 100 92 94 89 80 82 82 72 47 69 86 100 100 100 100 96 87
1 2 2 4 6 11 46 66 79 54 43 59 85 100 99 100 100 100 97 96 100 100 100 100 100 100 100 96 80 77 87 84 72 72 68 66 49 46 66 82 100 99 88 80 80
1 2 2 3 6 11 42 61 70 44 48 60 94 99 100 100 96 88 58 38 45 60 82 93 98 99 94 85 95 97 95 89 83 71 45 52 40 33 44 57 77 80 79 72 70
2 2 2 3 6 11 38 60 37 45 64 75 100 100 100 99 91 60 35 43 56 50 65 63 86 90 91 84 82 80 77 62 54 54 51 47 45 45 55 50 52 58 63 58 54
2 2 2 3 7 13 27 41 34 72 79 93 100 99 100 93 76 50 52 58 65 61 64 69 88 91 88 85 79 74 68 64 57 56 52 46 46 41 50 49 47 36 39 51 61
2 2 2 4 7 13 36 37 50 93 86 93 96 100 95 91 76 55 56 52 61 72 87 100 97 87 82 77 80 81 75 67 56 51 36 35 37 35 33 33 34 32 45 52 60
2 2 3 4 7 12 29 42 70 84 80 90 87 84 91 86 85 71 63 69 80 89 94 98 99 99 87 92 87 74 63 57 54 40 30 25 14 14 18 13 19 27 29 44 60
2 2 3 5 8 14 22 48 66 68 92 95 88 94 94 86 94 99 100 98 100 96 94 98 100 95 93 79 64 66 61 53 54 43 22 10 11 10 8 7 8 12 18 24 42
3 3 3 5 7 12 34 60 67 76 96 98 98 94 92 93 94 98 95 99 87 89 100 100 93 98 72 70 63 76 70 64 44 28 18 8 11 2 2 3 4 8 9 13 18
3 3 4 6 8 13 28 55 85 79 97 100 100 96 98 100 95 90 94 90 98 100 98 94 74 70 70 69 70 61 67 57 45 32 14 7 7 2 3 3 2 5 8 10 11
3 4 5 7 10 14 24 49 66 75 95 100 98 98 98 97 97 91 100 100 100 95 92 76 68 83 86 70 68 78 76 91 83 29 15 9 8 4 3 3 2 3 8 14 15
4 4 5 8 11 15 21 41 67 75 92 100 100 98 99 100 98 100 100 99 94 94 89 66 88 98 73 77 86 74 80 100 99 64 25 16 11 5 4 3 3 4 9 20 23
5 4 6 8 11 14 22 36 60 76 96 100 100 100 100 100 99 100 99 98 93 86 76 92 97 81 66 70 100 100 74 100 99 93 63 35 16 8 5 3 3 5 14 26 28
5 5 7 10 12 16 22 41 66 76 96 100 100 100 100 100 100 97 94 98 85 90 76 100 88 66 98 94 100 100 87 94 100 100 91 76 53 27 12 10 7 10 21 33 36

GFSSW_250_rhum_027.txt.gz
RH
10 10 12 13 20 34 36 38 48 58 57 49 54 100 100 100 100 100 100 100 100 100 100 100 100 100 99 93 83 73 65 81 91 60 59 49 65 54 57 47 42 37 35 32 30
9 10 12 11 15 28 30 47 51 64 67 69 55 54 81 100 100 100 100 100 100 100 100 100 100 100 100 99 89 80 80 98 86 72 71 65 65 54 49 46 38 30 26 21 19
7 8 11 13 13 15 30 36 57 59 76 76 79 64 70 81 80 100 100 100 100 100 100 100 100 100 100 100 91 94 100 92 86 77 69 65 58 53 47 42 32 27 20 19 17
7 8 8 11 13 14 23 32 47 79 84 86 85 87 74 69 70 87 85 100 100 100 100 100 100 100 100 100 91 71 85 87 73 67 64 61 50 45 39 30 22 20 18 18 17
8 8 9 10 12 14 15 20 39 73 84 82 94 97 99 93 86 88 80 88 99 100 100 100 100 100 100 100 100 84 71 74 79 75 68 64 53 44 35 30 23 18 16 19 19
9 9 10 11 13 14 14 17 27 41 84 99 96 96 98 100 98 87 96 84 89 99 100 100 100 100 100 100 100 87 71 69 69 74 75 65 54 50 45 33 29 28 27 22 20
12 12 11 14 13 17 16 18 28 46 50 91 99 95 100 100 100 100 98 96 89 92 93 81 80 98 100 100 95 88 77 74 75 75 70 68 63 61 59 50 45 39 36 34 32
13 15 17 14 19 18 23 24 22 31 37 74 100 90 98 100 100 100 100 100 100 96 92 81 80 72 93 97 96 88 94 88 82 80 68 70 79 62 69 79 69 44 43 40 38
13 17 17 20 19 27 26 30 29 26 32 40 69 100 97 100 95 98 100 98 100 100 100 100 97 88 87 91 92 95 100 100 100 95 71 60 69 66 64 75 95 77 58 54 48
16 12 16 18 22 23 31 38 41 29 26 28 56 90 100 96 97 98 98 88 100 100 100 100 100 98 95 91 94 92 97 100 100 100 91 69 63 59 60 63 80 100 90 72 61
6 7 6 12 18 24 27 37 38 24 28 34 60 61 99 100 100 100 100 93 98 100 100 100 100 100 100 93 96 96 90 92 95 90 80 68 59 70 59 57 63 81 100 100 78
2 3 4 4 8 17 29 25 27 52 99 75 42 32 38 70 86 87 90 92 85 88 94 100 100 100 100 100 100 99 95 91 86 83 72 79 74 67 66 59 62 76 83 91 93
2 2 2 3 4 8 20 39 48 57 86 76 53 34 25 28 46 68 74 61 70 80 80 94 100 100 100 100 100 100 96 96 88 84 82 77 74 73 67 72 86 97 100 100 98
2 2 2 2 3 6 9 28 55 59 71 76 69 50 31 30 36 34 41 48 60 57 50 55 93 100 100 100 100 100 100 95 91 92 96 96 74 77 78 81 97 100 100 100 100
2 2 2 2 3 5 7 12 50 77 61 70 57 53 36 34 50 46 44 42 52 59 66 83 100 100 100 100 100 100 100 97 96 94 91 96 83 82 96 97 99 99 81 74 94
2 3 3 2 3 4 7 11 33 68 47 64 63 54 56 69 74 91 88 90 86 79 83 100 100 100 100 100 100 100 100 100 100 98 90 94 76 70 92 82 88 85 75 76 64
2 2 3 2 3 4 7 9 29 43 45 68 68 62 78 93 100 100 100 99 94 99 98 94 100 100 100 100 100 100 100 98 100 99 96 80 70 73 96 48 58 58 65 65 63
2 2 2 2 3 4 8 10 26 38 58 81 78 66 84 97 98 100 100 100 100 100 97 92 97 99 100 100 100 100 100 100 86 75 64 47 45 46 51 57 39 33 37 40 43
2 2 2 3 3 5 8 10 27 46 80 94 84 83 96 99 100 100 100 98 97 91 79 51 49 59 77 84 82 76 57 50 45 46 48 61 70 68 71 58 41 24 21 24 32
2 2 2 3 4 6 8 12 36 61 97 93 90 92 100 100 96 100 96 92 81 53 39 49 57 57 60 54 50 55 65 70 81 86 88 72 56 53 28 24 24 24 19 20 19
2 2 2 3 5 8 10 20 49 67 85 87 83 94 94 97 94 98 98 71 56 52 66 69 68 81 64 66 80 85 100 93 86 73 63 51 53 22 13 10 11 11 10 10 16
2 3 3 5 7 9 15 46 57 73 87 87 94 96 95 97 100 100 90 66 59 60 66 79 89 88 84 84 93 99 93 68 70 68 60 53 41 25 16 8 5 6 7 7 7
2 3 4 6 9 13 26 49 58 66 92 93 95 99 100 100 100 100 94 85 79 78 86 96 88 87 94 95 87 76 68 64 70 78 82 57 36 17 11 7 6 5 3 3 5
3 4 8 8 9 17 38 41 42 81 93 94 92 99 98 100 100 100 97 84 79 83 88 88 89 89 96 76 81 69 79 87 98 98 99 96 60 34 13 5 3 3 2 2 4
4 5 7 10 11 17 36 47 63 80 91 93 94 98 94 100 100 100 96 87 86 90 83 80 83 89 69 84 72 82 95 98 100 100 100 95 46 23 12 5 2 2 2 2 3
5 6 9 10 12 17 29 55 72 78 94 100 99 91 92 100 100 98 100 96 93 85 77 75 85 88 87 69 100 100 80 98 100 100 100 100 61 59 22 7 4 3 2 3 4
7 6 8 12 13 19 33 65 87 82 99 100 98 96 100 100 100 99 100 100 90 84 78 75 80 98 79 97 100 97 99 100 98 98 100 100 85 80 29 11 8 9 8 10 12

GFSSW_250_rhum_030.txt.gz
RH
8 9 10 11 11 13 17 16 23 26 28 42 41 91 100 100 100 100 100 100 100 100 100 100 100 96 90 88 70 64 45 51 67 55 61 34 27 36 30 32 29 38 30 22 20
7 8 10 10 12 12 14 19 21 27 34 27 45 42 52 100 100 100 100 100 100 100 100 100 100 100 94 96 86 81 69 98 82 59 55 50 39 38 42 46 33 42 40 40 27
8 8 9 10 10 11 13 16 24 34 39 36 32 42 49 56 100 100 100 100 100 100 100 100 100 100 100 100 100 99 100 99 82 69 62 63 55 52 45 49 50 51 48 55 59
10 9 8 9 10 11 12 14 28 40 44 46 51 45 47 51 55 100 100 100 100 100 100 100 100 100 100 100 100 100 100 100 92 75 80 79 71 66 60 61 56 64 58 60 58
10 11 9 8 9 10 12 12 16 30 48 39 66 61 49 46 63 70 83 100 100 100 100 100 100 100 100 99 100 100 100 100 100 83 95 81 83 70 70 66 66 56 49 44 42
8 10 11 10 8 10 11 13 14 16 21 35 59 74 65 60 73 84 63 67 100 100 100 100 100 100 100 100 100 100 100 100 100 100 82 75 89 84 84 74 62 58 52 45 38
8 9 11 12 11 8 11 14 14 16 14 22 46 58 65 80 89 89 90 68 70 89 100 100 100 100 100 100 100 100 100 100 100 100 90 74 61 78 88 78 73 62 54 48 40
10 11 11 11 12 12 9 14 16 16 16 16 21 46 68 84 100 77 99 98 76 78 78 84 100 100 100 100 100 100 100 100 100 100 100 78 70 67 63 74 75 64 57 57 50
8 10 10 8 8 14 12 11 17 18 22 17 16 23 50 70 100 92 94 100 100 87 83 74 74 77 94 100 100 100 100 100 100 100 100 79 70 64 55 66 75 82 66 64 70
6 5 4 3 4 8 13 14 14 20 22 18 17 20 48 77 100 100 100 100 100 100 99 95 98 98 95 93 99 100 100 100 99 90 88 73 66 71 64 69 73 75 75 66 67
4 2 2 2 2 3 11 15 16 16 20 22 32 28 45 85 100 100 100 100 100 100 97 100 100 100 97 91 86 89 85 85 79 76 90 82 69 73 73 75 87 69 65 66 64
2 2 2 2 2 2 6 16 20 20 22 29 36 26 51 59 78 98 100 100 100 97 100 100 100 100 98 96 100 100 98 91 83 80 68 79 72 75 74 68 69 75 67 74 65
2 2 2 2 2 3 4 14 18 21 23 43 39 38 50 49 61 81 95 100 98 100 100 93 99 100 100 100 100 99 96 95 87 83 84 76 69 70 69 76 80 77 76 69 74
2 2 2 3 3 3 4 9 18 22 28 56 39 48 47 52 66 53 65 100 100 100 100 99 100 99 96 100 100 100 100 100 99 94 82 72 72 79 77 77 78 86 81 79 77
2 2 2 2 3 3 3 6 14 23 30 62 45 76 56 57 59 50 54 71 100 100 100 100 99 95 100 95 99 100 99 99 92 88 90 88 80 98 95 89 88 82 86 85 79
2 2 2 2 3 3 3 4 7 22 35 57 47 64 66 78 69 57 49 48 65 81 92 99 100 91 87 83 76 77 86 92 87 84 92 100 91 100 80 100 100 87 74 75 71
2 2 2 2 3 2 3 4 10 25 34 79 78 80 76 77 70 52 44 36 40 56 74 71 80 72 75 68 58 55 59 77 92 89 93 100 99 100 100 100 97 89 81 71 59
2 2 2 2 2 2 4 5 7 13 77 90 85 71 75 85 70 48 45 43 50 54 56 66 55 64 53 58 67 72 88 85 84 90 95 98 98 100 100 100 88 72 72 77 65
2 2 2 2 2 3 4 6 8 17 78 95 82 73 93 89 69 70 88 84 88 93 82 86 97 82 82 92 92 100 95 98 95 92 83 98 100 100 100 98 73 58 42 43 36
2 2 2 2 3 4 5 6 10 30 83 85 79 90 100 100 93 98 100 98 94 100 100 100 100 99 99 95 91 97 100 100 97 98 100 99 89 76 66 49 43 48 36 31 22
2 2 2 3 3 4 6 12 18 47 90 80 84 96 90 93 95 94 94 100 100 100 99 93 97 91 80 75 58 55 56 59 68 83 72 72 65 55 46 37 35 33 25 20 17
3 3 3 4 5 8 10 12 21 61 84 79 94 95 100 86 88 91 97 97 92 85 86 77 64 44 42 56 71 97 84 97 93 85 72 64 58 57 42 42 33 27 20 10 10
4 4 5 6 9 10 13 18 39 67 72 87 91 96 95 97 100 100 98 96 85 64 52 49 49 59 72 93 100 99 92 79 77 74 99 86 85 80 50 41 29 17 13 8 7
5 5 6 8 10 10 17 34 45 66 84 88 91 99 100 100 100 98 99 95 74 63 67 69 72 79 91 95 88 74 82 73 66 74 90 100 86 89 78 40 18 10 6 4 2
6 8 8 10 11 15 22 42 57 86 95 88 94 100 100 100 100 100 100 96 85 76 70 70 75 88 94 70 84 75 80 93 100 93 84 100 100 66 54 46 26 10 6 4 2
9 9 10 12 14 17 28 42 67 87 90 95 98 100 100 100 100 100 100 99 86 78 71 84 91 90 73 82 85 88 97 94 99 97 98 100 100 87 77 64 35 20 11 6 3
10 10 12 14 16 21 37 61 89 92 98 96 98 100 100 100 99 97 100 96 90 80 75 89 96 73 74 75 100 86 80 82 100 90 95 100 100 99 87 76 46 36 26 14 6

GFSSW_250_rhum_033.txt.gz
RH
6 6 6 7 9 9 9 10 10 11 17 28 33 88 100 100 100 100 100 100 100 100 100 100 100 98 85 69 52 31 27 48 98 100 78 42 39 35 32 40 30 26 28 27 25
7 7 6 7 8 10 10 9 11 11 13 19 36 50 84 100 100 100 100 100 100 100 100 100 100 99 94 99 80 56 48 75 88 78 64 44 38 39 39 41 32 39 30 27 27
7 6 7 7 9 9 10 10 11 12 12 16 22 31 45 77 100 100 100 100 100 100 100 100 100 88 96 88 97 81 87 100 88 83 62 48 45 35 42 44 41 36 38 36 34
6 6 7 8 8 9 10 11 10 12 14 15 19 24 40 59 77 100 100 100 100 100 100 100 100 100 100 100 95 99 98 100 100 86 75 72 62 52 48 53 49 40 40 38 32
7 6 6 7 8 8 9 10 11 11 14 16 20 20 26 41 74 74 100 100 100 100 100 100 100 100 100 100 100 99 99 99 100 88 91 93 86 84 80 62 57 47 40 44 52
6 7 7 7 8 7 8 9 10 11 11 15 21 22 23 48 54 94 63 93 100 100 100 100 100 100 100 100 100 100 100 100 100 100 100 100 100 85 80 67 56 51 56 51 59
5 6 8 8 6 7 7 8 9 11 11 12 20 34 18 45 71 88 90 70 83 100 100 100 100 100 100 100 100 100 100 100 100 100 100 96 90 81 80 77 81 70 62 77 69
4 5 5 4 4 4 6 8 10 10 11 11 14 19 62 35 82 97 90 93 89 65 97 100 100 100 100 100 100 100 100 100 100 100 100 92 100 97 88 70 69 74 82 88 78
4 4 2 2 2 2 4 7 10 12 12 13 10 14 28 66 88 89 100 100 95 95 74 92 100 100 100 100 100 100 100 100 98 100 100 98 100 100 92 74 76 71 81 88 83
4 2 2 2 2 2 2 5 6 13 14 12 11 12 17 49 99 84 87 100 100 92 94 80 77 100 100 100 100 100 100 100 100 100 100 100 100 100 98 92 99 99 90 76 66
3 2 2 2 3 2 2 3 5 8 15 11 17 18 20 22 72 77 87 97 100 100 85 99 87 70 78 100 100 100 100 100 100 100 100 100 100 100 100 100 100 100 85 66 60
2 2 2 2 2 3 2 2 4 6 10 15 20 17 22 19 23 52 81 90 100 100 87 80 99 100 80 68 78 92 100 100 100 100 100 100 100 100 100 100 100 94 68 64 64
2 2 2 2 2 3 3 3 4 4 9 21 22 24 26 21 21 26 73 96 90 96 100 87 87 91 89 89 86 70 72 74 81 77 79 86 94 94 96 93 81 74 65 62 62
2 2 2 2 2 3 3 3 3 5 18 24 23 29 26 24 21 19 45 70 73 91 100 100 90 96 96 95 96 95 96 94 80 66 70 71 70 83 90 91 84 77 66 68 71
2 2 1 1 2 3 3 3 3 7 21 24 32 32 36 31 34 41 42 81 93 100 100 100 100 98 100 95 97 90 86 78 75 79 72 71 61 99 96 95 92 88 82 78 72
2 2 1 1 2 3 3 3 4 8 20 24 36 35 48 46 46 56 57 64 88 100 100 100 100 100 100 92 97 100 89 73 78 85 72 76 58 76 98 97 95 86 86 88 88
2 2 1 1 2 3 3 4 4 6 16 34 46 61 65 62 54 67 78 72 82 100 97 100 100 100 100 88 100 99 93 95 87 83 87 92 79 73 100 86 100 87 78 68 67
2 2 2 2 2 2 4 4 4 12 31 57 53 69 74 62 66 64 65 80 71 69 72 84 94 100 100 97 98 97 92 84 82 73 66 61 62 74 87 92 88 100 100 96 78
2 2 2 2 2 2 3 4 7 26 62 52 49 55 61 68 75 77 82 81 72 56 50 53 63 78 91 88 78 83 81 75 68 63 66 62 54 63 98 100 97 61 50 52 55
2 2 3 2 2 3 4 6 11 30 57 63 92 94 89 84 89 89 72 54 50 44 43 46 46 59 67 68 73 78 73 70 64 70 79 92 100 100 100 84 79 82 66 60 52
3 3 4 4 4 4 5 8 21 42 59 80 83 77 74 78 90 76 64 51 52 61 59 60 58 55 54 70 88 98 97 85 89 98 100 100 99 98 88 88 82 74 60 47 37
3 3 4 5 5 6 7 12 28 58 80 94 93 90 90 83 77 74 88 90 90 92 90 99 93 79 92 97 100 100 99 92 78 78 86 69 95 68 71 69 56 46 40 37 29
3 3 5 6 7 7 8 16 43 78 87 83 86 92 87 94 100 100 98 100 98 99 96 97 94 96 97 86 70 69 83 95 100 94 85 73 68 58 50 44 53 43 44 43 22
6 4 6 8 10 9 9 12 32 66 83 88 88 90 100 99 88 93 100 97 93 85 84 83 72 68 73 82 96 93 91 83 78 86 84 70 69 74 62 68 93 64 46 37 17
10 5 7 11 14 14 15 16 31 54 70 82 93 100 100 100 100 100 100 100 89 65 58 71 85 89 86 85 91 80 74 92 86 65 88 96 72 65 80 94 68 48 38 23 8
12 7 7 12 19 25 36 42 50 63 78 95 100 100 100 98 97 100 100 97 79 76 82 79 74 73 74 84 71 76 74 72 98 99 84 86 72 84 96 90 64 49 35 31 13
13 11 9 12 20 29 42 61 72 82 100 100 100 98 96 95 100 100 100 98 89 86 77 75 71 75 81 75 86 91 76 72 74 80 92 83 85 91 99 92 83 67 47 31 25

GFSSW_250_rhum_036.txt.gz
RH
7 8 7 6 6 6 6 7 8 9 9 10 11 19 59 89 98 94 100 100 100 100 100 100 100 100 96 59 62 67 56 60 65 58 62 41 32 26 28 52 57 59 56 45 41
6 6 6 7 6 6 7 7 8 9 9 10 10 14 25 75 100 100 100 100 100 100 100 100 100 96 99 97 61 57 56 80 71 77 68 40 34 29 26 35 50 47 47 42 36
7 6 5 5 7 6 7 7 8 9 10 9 11 11 18 37 100 100 98 100 100 100 100 100 100 100 100 98 80 66 75 83 71 65 63 56 40 33 34 44 66 44 40 44 43
7 7 6 5 5 7 7 8 8 9 10 10 10 12 12 25 64 100 100 100 100 100 100 100 100 100 100 100 100 94 100 100 98 73 70 80 60 43 40 57 59 51 43 46 46
6 6 5 6 5 6 6 8 8 8 10 10 11 12 13 17 35 72 100 100 100 100 100 100 100 100 100 100 100 100 100 98 96 85 76 92 91 66 58 66 55 58 47 53 56
6 5 5 5 5 4 5 6 8 9 9 10 11 11 13 18 26 50 92 100 100 100 100 100 100 100 100 100 100 100 100 98 99 100 100 100 100 96 82 59 49 56 47 47 58
4 4 4 3 2 2 2 4 6 9 9 11 11 11 14 19 25 44 66 84 100 100 100 100 100 100 100 100 100 100 100 100 100 100 99 98 100 100 94 66 78 84 75 63 70
4 3 2 2 2 2 2 2 4 8 10 10 10 11 18 18 26 34 52 76 94 100 100 100 100 100 100 100 100 100 100 100 100 100 100 78 100 100 100 83 83 92 95 98 98
3 2 2 2 2 2 2 2 2 6 11 10 11 12 17 24 42 42 33 57 85 92 100 100 100 100 100 100 100 100 100 100 100 100 100 100 100 100 100 100 100 100 100 100 86
3 2 2 2 2 2 2 2 2 4 10 11 11 12 14 47 48 56 50 54 82 95 92 100 100 100 100 100 100 100 100 100 100 100 100 100 100 100 100 100 100 100 100 100 95
3 2 2 2 1 2 2 3 2 3 8 12 13 15 15 28 38 47 54 79 81 82 88 95 95 100 100 100 100 100 100 100 100 100 100 100 100 100 100 100 100 100 100 100 100
2 2 2 2 1 2 2 3 3 3 7 16 18 18 15 23 43 93 66 65 69 75 86 92 92 98 100 100 100 100 100 100 100 100 100 100 100 100 100 100 100 100 100 100 100
2 2 2 1 1 2 2 3 3 3 6 18 22 23 17 21 31 58 80 100 99 80 85 92 96 100 91 85 94 100 100 100 100 100 100 100 100 100 100 100 100 100 100 100 100
2 2 2 1 1 2 3 3 3 3 5 15 30 26 18 20 22 35 70 84 100 98 65 86 98 100 93 85 98 87 84 100 100 100 100 100 100 100 100 100 100 100 100 100 100
2 2 2 2 1 2 3 3 3 3 4 18 34 35 20 26 30 25 28 69 100 100 97 94 98 99 100 91 80 89 93 86 86 99 100 100 100 100 100 100 100 100 100 99 94
2 2 2 2 1 2 3 3 3 3 5 17 36 28 27 32 36 33 29 36 67 99 100 100 93 87 91 96 92 76 86 94 88 76 77 82 84 94 100 99 92 85 81 79 75
2 2 2 2 2 2 2 2 3 5 14 31 34 37 41 69 73 48 34 38 45 61 100 100 100 98 91 84 100 81 78 82 85 87 90 89 77 76 92 91 89 81 70 73 72
3 3 2 2 2 2 2 3 4 8 20 33 41 52 69 74 64 36 30 32 43 42 60 92 100 99 98 95 100 93 85 86 88 90 88 95 90 90 88 92 100 99 84 59 50
4 3 3 3 2 3 3 4 9 19 33 37 48 52 79 84 63 43 37 41 46 48 44 56 83 99 93 92 98 98 98 93 97 98 84 84 92 95 97 89 67 56 55 60 64
5 3 4 4 4 4 4 7 20 33 37 65 88 87 81 96 88 69 67 81 65 49 48 56 84 97 90 93 90 96 100 98 82 72 76 87 85 86 76 61 55 51 45 36 34
6 4 5 5 5 5 6 13 27 33 60 76 79 92 100 96 88 89 95 83 79 83 78 73 69 80 85 93 89 92 87 90 77 69 64 73 93 76 51 55 68 63 56 55 53
6 6 5 7 7 7 10 20 29 44 68 58 67 71 62 76 84 85 84 80 85 82 76 72 66 68 73 74 80 83 85 90 87 99 84 72 100 75 79 84 75 69 56 59 52
7 9 6 8 9 8 13 26 45 75 74 81 96 99 97 100 100 95 80 83 78 68 61 55 58 58 64 68 68 64 71 77 85 86 89 88 85 82 75 69 63 58 50 47 42
8 10 8 9 11 12 15 25 52 74 84 95 97 90 94 94 89 98 98 100 94 91 98 91 95 92 99 95 89 88 97 99 96 98 81 86 73 68 62 53 44 57 86 74 59
10 11 13 9 14 15 17 30 46 64 81 86 89 99 98 88 93 100 100 100 99 94 90 86 94 100 86 85 86 85 88 90 96 89 82 74 70 70 80 64 78 86 83 66 41
11 12 15 10 15 20 22 24 49 72 74 81 85 91 92 88 93 96 92 96 97 89 91 94 93 76 64 62 67 78 87 86 88 84 99 68 63 57 83 93 88 76 88 63 41
13 14 16 16 15 25 27 31 42 54 65 78 92 98 96 90 92 91 94 100 88 68 63 63 65 75 83 84 83 82 71 89 83 85 75 85 74 90 80 74 97 92 90 70 47

GFSSW_250_rhum_039.txt.gz
RH
8 7 7 6 6 7 6 6 6 6 6 7 8 9 12 72 100 100 100 100 100 100 100 100 100 100 92 83 79 64 52 59 88 93 94 66 62 54 43 45 46 57 62 64 68
8 7 7 7 6 5 6 6 6 6 6 7 8 9 10 17 79 100 100 100 100 100 100 100 100 100 100 100 92 78 73 99 99 78 71 62 56 48 42 43 44 44 43 40 41
8 8 8 7 5 5 5 6 6 6 6 7 8 9 9 10 20 78 100 100 100 100 100 100 100 100 100 100 100 100 100 100 100 100 78 62 57 46 46 44 59 59 49 38 30
7 6 6 5 5 5 4 5 6 6 6 6 7 9 10 10 19 26 55 100 100 100 100 100 100 100 100 100 100 100 100 100 100 100 90 62 60 61 56 62 59 59 54 40 37
7 6 5 4 4 3 3 3 5 6 6 6 8 9 10 12 13 23 29 64 100 100 100 100 100 100 100 100 100 100 100 100 100 100 100 86 64 71 64 62 58 53 60 41 36
5 5 4 3 2 2 2 2 3 5 7 7 8 8 10 12 12 16 25 48 100 100 100 100 100 100 100 100 100 100 100 100 100 100 100 100 87 67 78 70 45 46 40 47 45
5 4 3 2 2 2 2 2 2 3 6 7 6 8 10 14 12 14 22 41 100 100 100 100 100 100 100 100 100 100 100 100 100 100 100 100 100 100 88 72 58 55 54 66 77
4 3 3 2 2 2 2 2 2 3 4 7 7 9 12 13 13 15 18 35 91 100 100 100 100 100 100 100 100 100 100 100 100 100 100 100 100 100 97 77 71 65 67 85 99
4 3 2 2 1 1 1 2 2 3 3 6 8 9 12 13 16 14 16 25 54 100 100 100 100 100 100 100 100 100 100 100 100 100 100 100 100 100 100 100 96 92 100 100 100
4 3 2 2 2 1 1 1 2 3 3 6 10 10 13 14 16 15 17 24 34 72 100 100 100 100 100 100 100 100 100 100 100 100 100 100 100 100 100 100 100 100 100 100 100
4 3 2 2 2 1 1 2 2 4 3 4 12 14 14 14 16 16 17 24 27 40 78 100 100 100 100 100 100 100 100 100 100 100 100 100 100 100 100 100 100 100 100 100 100
4 3 2 2 2 1 2 2 2 4 3 5 14 15 14 14 15 16 19 23 39 39 54 81 100 100 100 100 100 100 100 100 100 100 100 100 100 100 100 100 100 100 100 100 100
4 2 2 2 1 1 2 2 3 4 4 6 15 17 15 14 18 25 33 30 40 52 60 98 95 100 100 100 100 100 100 100 100 100 100 100 100 100 100 100 100 100 100 100 100
4 2 2 2 1 2 2 3 3 4 4 8 16 17 17 17 19 29 50 42 54 52 55 69 86 98 98 100 100 100 100 100 100 97 100 100 100 100 100 100 100 100 100 100 100
3 2 2 2 1 2 3 3 4 4 4 7 18 17 16 19 22 29 56 57 58 60 75 87 89 93 100 98 99 100 100 100 100 100 100 100 100 100 100 100 100 100 100 100 100
4 2 3 2 2 2 2 3 4 4 5 9 17 20 21 22 23 33 74 44 77 73 61 76 79 91 94 94 92 94 97 97 99 100 100 100 100 100 100 100 100 100 100 100 100
4 2 3 3 2 2 2 2 4 4 7 15 24 28 29 32 33 44 57 38 70 83 90 81 88 97 100 100 100 95 92 88 85 88 95 98 99 100 100 100 100 95 97 97 94
4 3 3 3 3 3 2 2 4 8 22 22 28 34 39 44 45 61 60 51 51 94 100 100 97 84 91 97 98 99 97 98 99 90 83 90 97 92 90 96 98 96 94 86 85
6 4 4 5 4 4 4 4 6 13 23 34 35 39 50 57 64 61 44 37 41 52 90 100 100 100 90 80 80 94 96 95 94 87 82 78 83 86 91 79 76 72 76 74 72
7 4 5 6 6 6 6 8 16 26 34 41 60 76 59 72 68 59 46 41 34 45 44 73 89 94 100 90 88 80 87 93 99 93 89 77 84 80 72 75 85 84 77 74 70
9 6 6 9 8 8 11 18 30 34 52 62 63 75 80 61 53 39 32 33 42 49 56 49 54 75 87 86 99 100 98 82 84 88 95 94 87 64 74 81 80 72 65 56 57
10 9 8 9 11 12 16 21 29 37 53 56 68 74 62 76 70 54 45 63 72 76 70 64 57 54 76 84 91 97 100 81 88 91 98 95 87 65 67 67 66 64 70 70 46
12 11 9 11 14 14 24 25 39 50 71 84 93 100 100 100 100 100 97 88 81 70 70 72 86 90 82 87 89 86 86 90 94 99 89 92 94 100 89 82 81 75 64 70 63
13 13 11 13 15 17 20 37 49 66 76 88 85 88 95 98 96 99 97 94 95 94 100 96 99 98 92 82 83 85 88 96 89 85 82 89 74 96 95 93 89 72 54 48 42
14 13 13 14 17 20 23 24 44 65 76 77 78 87 97 85 78 86 87 91 87 82 78 78 77 69 69 68 62 70 81 78 84 90 88 99 97 100 95 78 62 51 44 52 62
14 14 13 16 17 20 25 23 36 53 66 74 78 83 89 92 90 86 75 73 81 90 85 93 92 86 82 71 83 97 99 100 100 100 99 100 98 75 64 68 56 55 55 61 64
13 15 14 15 19 21 31 31 29 42 56 67 74 80 85 82 79 86 97 95 96 98 96 86 95 100 93 90 98 98 98 95 99 100 99 84 79 82 77 62 62 52 66 66 63

GFSSW_250_rhum_042.txt.gz
RH
8 9 8 7 6 6 5 5 6 6 7 6 6 6 6 7 11 14 94 100 100 100 100 100 100 85 60 76 79 72 61 67 70 94 100 98 89 83 98 100 100 100 100 100 98
8 8 8 7 7 6 5 4 5 6 5 6 6 6 6 7 8 14 43 100 100 100 100 100 100 100 99 88 84 75 74 95 86 83 92 85 86 90 93 97 98 98 100 97 92
8 7 6 7 6 5 5 4 4 5 5 5 5 6 6 6 8 14 21 67 100 100 100 100 100 100 100 100 100 88 89 100 100 100 89 62 69 78 85 97 94 96 91 81 67
6 5 5 5 4 4 3 3 3 4 5 5 5 5 6 6 8 10 13 59 100 100 100 100 100 100 100 100 100 100 100 100 100 100 98 67 60 62 67 83 91 87 83 81 70
5 4 4 4 3 3 2 2 2 2 3 4 5 5 5 6 8 10 12 32 98 100 100 100 100 100 100 100 100 100 100 100 100 100 100 88 72 64 69 76 76 81 73 72 72
4 4 4 3 2 2 2 2 2 2 2 3 4 6 5 6 8 9 10 13 67 100 100 100 100 100 100 100 100 100 100 100 100 100 100 100 87 73 100 86 81 69 68 60 66
4 3 3 2 2 2 2 2 2 2 2 3 3 5 5 8 7 10 10 12 23 100 100 100 100 100 100 100 100 100 100 100 100 100 100 100 100 100 98 82 82 86 80 65 65
4 3 3 2 2 2 2 1 1 1 2 2 3 5 8 7 7 12 12 13 15 81 100 100 100 100 100 100 100 100 100 100 100 100 100 100 100 100 100 92 88 90 100 98 88
4 3 2 2 2 2 1 1 1 1 2 2 4 5 10 8 9 10 13 15 14 22 99 100 100 100 100 100 100 100 100 100 100 100 100 100 100 100 100 100 100 100 100 100 100
3 3 2 2 2 2 1 1 1 1 2 3 4 6 13 10 9 11 15 15 15 18 27 96 100 100 100 100 100 100 100 100 100 100 100 100 100 100 100 100 100 100 100 100 100
3 3 2 2 2 1 1 2 2 1 2 3 4 10 13 12 11 13 16 17 16 21 31 34 88 100 100 100 100 100 100 100 100 100 100 100 100 100 100 100 100 100 99 99 100
3 3 2 2 2 1 1 2 2 2 3 4 5 8 12 13 13 15 17 18 18 22 36 42 58 95 100 100 100 100 100 100 100 100 100 100 100 100 100 100 100 100 100 100 100
4 3 2 2 2 1 2 2 2 3 3 5 6 8 15 15 14 16 20 19 20 26 41 44 42 62 100 100 100 100 100 100 100 100 100 100 100 100 100 100 100 100 100 100 100
4 3 2 2 2 2 2 2 3 3 4 5 7 10 15 16 17 19 20 19 21 25 30 27 28 61 83 100 100 100 100 100 100 100 100 100 100 100 100 100 100 100 100 100 100
4 3 2 2 2 2 2 2 3 4 4 3 5 12 15 17 17 17 22 18 22 26 31 26 38 60 84 98 100 100 100 100 100 100 100 100 100 100 100 100 100 100 100 100 100
5 4 3 2 3 2 2 2 3 4 4 5 9 14 17 18 20 23 31 21 26 26 24 34 34 52 71 94 100 100 100 100 100 100 100 100 100 100 100 99 100 100 100 100 100
5 5 4 3 3 3 3 3 3 5 6 10 13 17 20 20 23 27 34 25 29 33 31 25 32 45 61 91 94 100 100 100 100 100 100 100 100 100 100 100 100 92 92 97 98
7 7 5 5 5 5 4 4 6 8 14 19 23 25 24 25 26 32 43 28 36 54 70 56 46 52 79 77 100 98 91 95 100 100 100 100 100 100 100 99 100 98 79 76 83
9 9 6 6 8 8 6 5 11 17 25 29 28 26 30 32 38 42 51 30 34 48 64 66 67 75 79 91 86 93 98 100 100 100 98 99 97 94 93 91 90 96 97 90 85
11 10 8 8 11 13 11 12 15 19 31 32 33 34 35 36 44 41 48 33 45 65 78 88 71 90 99 99 95 91 99 92 93 88 88 92 93 85 80 81 78 76 75 73 71
13 12 9 9 12 17 18 16 21 23 28 30 27 25 32 33 39 42 39 43 46 58 80 96 97 94 92 92 94 98 98 93 92 98 96 94 84 72 72 72 66 64 70 67 62
14 14 11 10 12 21 22 22 23 28 33 34 39 51 59 69 77 67 60 62 54 49 53 77 94 96 100 95 89 80 70 76 86 90 88 87 81 75 75 74 78 77 66 64 71
13 15 12 10 12 21 27 26 28 36 47 61 72 84 88 92 82 60 49 45 39 47 58 68 79 87 97 95 87 87 98 88 87 82 80 78 76 73 74 84 80 84 90 92 76
12 15 15 12 11 18 30 33 31 39 48 62 74 76 72 68 62 57 53 49 46 54 62 71 82 74 75 77 87 87 94 95 99 100 99 87 73 92 85 86 94 97 96 84 82
12 14 15 15 13 14 23 37 42 41 45 51 62 70 70 69 69 68 58 56 61 66 68 71 66 68 74 78 69 65 69 77 84 93 78 82 94 87 98 96 99 100 85 70 53
12 15 14 16 14 13 18 29 48 53 48 45 51 61 69 72 67 70 74 71 74 80 84 88 86 84 86 80 78 77 82 83 90 96 84 100 98 99 99 100 88 76 63 48 48
10 13 16 15 16 14 15 23 37 65 72 54 56 59 65 74 76 82 80 77 73 74 80 83 72 62 58 64 78 82 81 81 88 92 99 100 100 100 99 94 79 66 54 52 65

GFSSW_250_rhum_045.txt.gz
RH
7 7 5 5 6 6 6 6 5 5 5 6 7 6 6 6 6 6 12 58 100 100 100 100 97 60 69 84 55 47 71 100 100 100 100 100 80 68 100 99 78 64 69 69 69
6 7 5 5 6 6 6 5 5 4 4 5 6 6 6 6 5 7 9 19 72 100 100 100 100 88 69 82 88 51 51 77 100 100 100 100 92 82 88 100 100 89 90 89 97
6 6 5 4 4 4 4 4 4 3 3 4 5 6 6 6 6 8 7 11 28 98 100 100 100 100 82 77 86 77 78 67 90 96 91 90 88 90 93 100 100 94 91 97 91
6 5 4 4 4 3 3 2 2 2 2 2 3 6 5 6 6 7 7 8 14 66 100 100 100 100 100 90 81 93 100 90 100 100 98 73 72 77 82 90 95 100 100 100 94
4 4 3 3 3 2 2 2 2 2 2 2 2 4 5 5 7 7 7 7 11 28 92 100 100 100 100 100 100 100 100 100 100 100 100 92 67 70 80 76 80 84 94 97 92
4 3 3 3 2 2 2 2 2 2 2 2 2 3 4 5 7 6 6 8 9 16 58 100 100 100 100 100 100 100 100 100 100 100 100 100 85 76 96 80 81 86 87 85 85
3 3 2 2 2 2 2 2 2 2 2 2 2 2 3 6 6 6 7 8 9 13 18 93 100 100 100 100 100 100 100 100 100 100 100 100 100 100 95 82 86 92 90 90 94
3 3 3 2 2 2 2 1 1 1 1 2 2 2 4 6 7 8 7 9 9 10 16 46 94 100 100 100 100 100 100 100 100 100 100 100 100 100 100 98 95 92 94 100 100
3 3 2 2 2 2 1 1 1 1 1 1 2 3 4 6 8 8 9 10 11 10 14 26 80 100 100 100 100 100 100 100 100 100 100 100 100 100 100 100 100 100 100 100 100
3 3 2 2 2 2 1 1 2 2 2 2 2 3 4 6 9 9 8 10 12 12 12 20 44 76 100 100 100 100 100 100 100 100 100 100 100 100 100 100 100 100 100 100 100
3 3 3 2 2 2 1 2 2 2 2 2 2 4 5 6 10 11 10 13 14 13 12 17 22 75 100 100 100 100 100 100 100 100 100 100 100 100 100 100 100 100 98 89 87
3 3 2 2 2 2 1 2 2 2 2 2 3 3 4 7 10 11 12 16 15 14 14 14 20 30 82 100 100 100 100 100 100 100 100 100 100 100 100 100 100 100 100 100 100
3 3 2 2 2 2 2 2 2 2 2 2 3 4 5 8 12 13 17 17 18 15 16 16 17 24 49 100 100 100 100 100 100 100 100 100 100 100 100 96 96 100 100 100 100
4 3 3 3 2 2 2 2 2 3 3 3 4 5 6 10 13 16 18 17 17 17 21 19 20 22 34 50 100 100 100 100 100 100 100 100 100 100 100 100 100 97 90 92 100
4 4 3 3 2 3 2 2 2 4 4 4 5 6 9 12 18 19 19 18 17 19 21 22 18 16 20 25 100 100 100 100 100 100 100 100 100 100 100 100 100 90 100 98 82
6 5 4 4 3 4 3 2 2 4 5 6 7 8 14 17 20 20 24 20 19 21 23 20 19 14 17 22 60 100 100 100 100 100 100 100 100 100 100 100 100 100 100 100 88
6 6 5 5 4 4 5 4 4 5 7 8 11 15 19 22 21 23 25 20 21 23 25 26 20 17 18 24 40 77 100 100 100 100 100 100 100 100 100 100 99 100 100 94 98
6 8 7 6 6 6 8 8 8 7 19 20 21 23 24 24 24 26 25 21 26 28 34 29 25 21 22 25 56 75 72 100 100 100 100 100 100 100 100 100 100 100 100 100 100
7 9 10 8 7 10 12 13 14 10 15 19 22 24 25 25 28 29 26 25 24 24 32 47 45 37 25 22 32 73 89 86 100 100 100 100 100 100 100 100 100 100 97 84 86
8 8 10 10 9 10 14 17 19 19 19 19 17 20 19 22 27 27 30 27 27 42 36 35 37 34 34 30 35 43 80 82 94 100 100 100 100 100 100 100 97 92 88 88 89
8 7 11 11 10 9 13 21 19 21 25 25 28 23 23 24 25 26 26 29 37 42 44 46 45 47 43 40 37 43 59 92 99 100 91 93 99 100 100 100 100 95 91 84 81
8 8 10 11 12 11 13 24 26 24 23 25 26 30 34 37 47 55 40 58 56 44 39 46 50 72 86 82 72 60 78 91 82 80 89 80 79 84 93 93 88 81 75 72 72
8 8 9 11 13 12 13 24 38 36 28 26 29 37 39 46 47 52 48 48 46 44 48 52 53 57 77 92 96 96 90 93 91 82 84 83 82 79 88 81 82 79 74 75 87
8 7 8 9 12 13 13 18 38 51 44 45 43 48 51 54 56 44 44 45 55 59 54 57 65 66 61 65 78 93 100 100 100 95 98 99 100 96 92 94 96 92 86 88 82
8 8 8 10 11 14 14 15 27 59 62 59 51 50 55 61 64 62 53 41 38 45 58 66 61 62 67 59 58 57 62 75 78 84 85 86 81 84 83 86 77 76 79 86 73
8 8 8 9 10 13 14 15 21 40 65 71 64 63 56 52 56 58 66 68 66 50 51 66 73 71 66 70 74 83 84 81 80 85 86 94 97 100 99 100 87 94 94 73 72
8 8 8 9 10 15 15 16 17 26 47 71 79 70 76 78 72 67 68 74 82 76 79 78 75 75 73 73 70 73 72 71 75 71 76 88 97 94 98 100 99 94 85 85 70

GFSSW_250_rhum_048.txt.gz
RH
6 5 4 4 4 5 4 4 4 4 5 6 8 8 7 6 7 6 8 13 27 48 70 100 100 100 89 49 43 68 100 100 100 100 75 46 42 45 48 68 65 53 47 43 37
6 4 4 4 4 4 4 4 4 4 4 4 6 8 7 6 6 6 7 9 13 27 62 90 100 100 100 80 44 53 81 100 100 100 100 97 54 42 45 47 63 78 87 86 71
5 4 4 4 3 3 3 3 2 2 3 3 4 5 7 6 6 7 7 7 9 30 51 80 100 100 100 100 65 50 78 87 100 100 100 100 87 77 59 51 52 60 75 74 69
4 4 3 3 3 2 2 2 2 2 2 2 2 3 5 6 6 7 7 6 7 20 36 74 91 96 100 100 100 55 69 82 96 100 100 100 98 92 97 87 81 71 78 71 70
3 4 3 3 2 2 2 2 2 2 2 2 2 2 4 5 6 8 7 6 7 11 27 54 93 100 98 100 100 96 75 90 100 100 100 100 100 97 92 99 100 100 99 92 94
3 3 3 2 2 2 2 2 1 1 2 2 2 2 3 5 6 7 7 6 7 8 15 34 98 100 100 100 100 100 100 100 100 100 100 100 100 99 97 90 100 100 100 98 93
3 3 2 2 2 2 2 1 1 1 1 1 2 2 3 5 7 6 6 7 7 8 10 28 92 100 100 100 100 100 100 100 100 100 100 100 100 100 91 84 94 97 98 100 100
3 3 2 2 2 2 1 1 1 1 1 1 2 3 4 4 7 6 6 7 8 8 9 16 49 100 100 100 100 100 100 100 100 100 100 100 100 100 87 81 88 98 88 85 92
3 3 3 2 2 2 1 1 1 1 2 1 2 3 4 5 6 6 6 7 9 8 9 12 26 77 100 100 99 97 100 100 100 100 100 100 100 100 100 97 93 100 100 100 100
3 3 3 2 2 2 1 1 1 2 2 2 2 2 5 5 5 7 8 8 9 9 10 11 13 43 100 100 100 100 100 100 100 100 100 100 100 100 100 100 100 100 100 100 100
3 3 3 2 2 2 1 1 2 2 2 2 2 2 3 4 6 7 9 9 11 10 11 11 11 21 81 100 100 100 100 100 100 100 100 100 100 100 100 100 100 100 100 100 100
4 3 3 2 2 2 2 1 2 2 1 2 2 2 4 4 6 9 10 12 13 12 11 12 11 14 26 98 100 100 100 100 100 100 100 100 100 100 100 100 100 100 94 96 98
4 3 3 3 3 3 2 2 2 2 2 2 2 3 4 6 8 10 14 18 17 14 12 13 12 11 19 62 100 100 100 100 100 100 100 100 100 100 100 100 100 100 100 100 99
4 4 4 3 3 3 2 2 2 2 3 3 2 4 6 7 9 10 17 18 17 15 12 13 12 12 16 26 90 100 100 100 100 100 100 100 100 100 100 100 100 100 100 100 100
5 4 4 4 3 3 3 3 2 3 4 4 4 4 6 9 10 13 24 22 20 18 14 14 13 14 14 23 38 98 100 100 100 100 100 100 100 100 100 100 100 100 100 100 100
6 6 4 4 4 4 5 4 3 3 5 6 6 6 7 8 15 20 22 23 22 16 16 14 16 17 17 16 27 33 78 100 100 100 100 100 100 100 100 100 100 100 100 98 97
6 6 6 5 5 5 6 5 6 6 6 7 8 10 13 16 18 21 20 19 17 15 14 15 14 15 18 16 16 24 29 74 100 100 100 100 100 100 100 97 98 98 100 100 100
7 7 7 7 6 6 7 7 11 13 9 10 13 20 25 21 25 25 22 19 22 21 19 18 18 14 15 16 16 18 26 37 78 100 100 100 100 91 86 85 82 90 92 88 76
7 8 7 7 7 7 10 10 14 16 17 15 16 19 24 23 24 25 20 17 21 22 23 20 19 16 17 18 19 21 22 31 51 73 100 100 100 100 94 79 78 82 82 80 74
7 9 8 7 7 8 9 10 18 19 21 21 20 16 17 20 20 17 21 24 23 23 23 21 22 22 19 21 24 26 26 32 42 63 75 100 100 100 100 100 100 94 90 88 87
8 8 8 8 8 8 9 9 16 23 25 22 22 26 22 22 22 21 19 21 25 26 28 26 26 23 25 26 27 40 46 37 44 79 69 95 100 100 100 100 100 100 100 100 100
8 8 8 8 8 8 10 10 16 27 30 30 25 23 24 26 27 30 28 28 26 29 31 45 35 40 39 37 34 33 35 44 42 57 67 73 100 100 100 100 100 100 100 100 100
8 8 9 8 9 9 9 10 14 24 33 41 41 33 32 31 33 36 32 35 38 38 42 43 52 54 53 49 40 33 29 32 39 42 56 75 81 95 100 100 100 100 100 100 100
8 8 8 8 8 10 11 11 11 19 32 43 50 54 50 46 50 54 57 47 42 44 42 42 37 41 47 55 56 56 53 43 53 76 80 87 96 98 99 100 100 98 97 98 96
8 8 8 9 8 9 11 12 13 13 25 37 45 55 64 68 73 68 58 48 58 53 48 47 44 46 60 65 88 96 85 79 66 62 74 91 88 91 86 87 89 85 81 78 79
7 8 8 8 8 8 10 12 12 14 21 37 48 52 61 72 79 78 70 65 48 49 53 54 59 64 66 76 74 85 99 98 98 96 90 88 77 82 86 90 94 100 100 100 100
6 8 8 9 9 8 9 10 14 14 15 22 36 55 61 67 74 73 75 74 70 69 51 45 56 68 68 64 65 67 67 82 91 97 98 91 90 99 100 100 100 99 93 87 83

GFSSW_250_rhum_054.txt.gz
RH
4 3 3 3 4 4 4 4 4 3 3 3 4 6 7 6 6 9 9 9 9 11 36 58 64 93 98 82 98 77 45 37 96 80 63 60 39 58 42 52 56 72 48 62 58
3 3 3 3 3 3 3 3 3 2 2 2 3 5 7 7 5 7 10 8 9 10 14 100 68 89 100 100 86 94 49 32 58 100 64 61 43 60 55 57 62 53 65 72 65
3 3 3 3 2 2 2 2 2 2 2 2 2 3 6 7 6 8 11 10 9 10 12 100 72 81 91 100 97 89 65 55 52 75 96 79 43 56 66 60 61 54 49 65 83
3 3 2 2 2 2 2 2 2 2 2 2 2 2 4 6 7 6 9 9 8 9 11 83 89 72 85 100 100 87 92 62 50 58 89 100 60 56 54 63 62 56 46 68 69
3 3 2 2 2 2 2 2 2 2 1 1 2 2 3 6 8 8 8 9 9 8 10 18 100 68 86 100 100 85 86 68 55 53 73 89 100 74 53 53 69 70 77 72 64
3 3 2 2 2 2 2 1 1 1 1 1 1 2 2 5 7 7 8 9 10 9 9 12 96 92 82 98 100 100 82 82 62 69 80 81 85 100 69 58 66 72 74 74 76
2 3 3 2 2 2 2 1 1 1 1 1 1 2 2 4 6 7 7 9 10 9 9 10 34 90 64 67 100 100 82 76 74 94 100 93 68 84 83 76 75 71 69 71 75
2 3 3 3 2 2 2 1 1 1 1 2 1 2 2 4 6 8 6 9 10 10 9 9 11 84 84 54 95 98 74 89 65 99 100 100 91 71 76 90 80 81 74 64 64
2 3 3 3 3 2 2 2 1 1 1 1 2 2 2 3 6 8 7 8 11 10 10 9 9 16 96 70 80 80 63 80 99 100 100 100 100 94 70 78 89 100 100 95 76
2 2 3 3 3 2 2 2 2 1 1 1 1 2 2 3 4 6 8 8 12 11 9 9 9 10 21 61 56 74 92 97 100 100 100 100 100 100 90 66 80 93 100 100 100
3 2 3 3 3 2 2 3 2 1 1 1 2 2 2 2 3 6 9 9 11 13 11 9 9 9 10 38 96 85 84 100 100 100 95 100 100 100 100 90 70 80 100 100 100
3 3 3 3 3 3 2 3 2 1 1 2 2 2 2 3 4 5 5 11 13 16 13 10 11 10 9 10 22 74 99 80 89 100 100 100 100 100 100 100 93 76 87 100 100
3 3 3 4 3 3 3 3 2 2 2 2 2 2 2 3 5 7 10 11 17 16 18 14 12 9 8 9 13 26 100 84 90 100 100 99 100 100 100 100 100 85 81 88 100
4 4 4 4 4 4 4 4 4 2 2 2 2 2 3 4 5 6 8 13 12 13 14 15 12 10 10 10 11 15 100 84 71 100 100 98 98 100 98 100 100 100 96 90 94
5 4 4 4 4 5 4 5 5 3 3 3 4 4 5 6 6 7 10 15 14 14 15 13 12 12 11 10 10 13 30 100 100 100 100 100 100 100 100 100 100 100 100 100 100
5 5 4 4 4 4 5 5 5 6 4 4 5 6 6 7 9 11 11 13 15 14 16 17 14 13 13 12 10 10 17 63 100 100 100 100 99 94 100 100 100 100 100 100 100
4 6 5 5 5 4 5 4 6 8 7 6 6 7 7 8 9 12 14 15 17 18 16 14 15 14 13 13 12 11 11 19 37 100 100 100 96 99 98 99 100 100 100 100 100
4 6 6 5 6 5 5 5 5 7 8 9 9 8 10 9 8 8 10 16 17 18 17 17 16 14 14 14 14 12 12 11 17 29 100 100 100 100 100 98 98 100 100 100 100
4 5 6 6 6 6 6 7 7 8 10 10 12 15 12 10 13 14 14 13 14 14 16 17 17 16 16 15 14 13 12 13 13 18 42 99 100 100 100 100 100 87 95 100 100
4 5 7 6 6 7 6 7 8 8 11 12 13 14 18 20 18 18 20 22 23 20 20 20 19 17 16 15 14 14 13 13 13 14 17 18 55 98 100 100 100 100 100 96 94
4 4 6 7 7 7 6 6 7 9 12 15 14 16 17 19 22 26 27 27 28 28 27 23 21 20 21 18 16 15 14 14 14 15 16 18 37 100 100 100 100 100 100 100 100
6 4 5 6 6 7 6 7 7 8 10 14 18 16 19 22 20 23 29 31 29 28 27 26 26 24 24 22 19 17 16 15 16 17 18 18 23 44 90 100 100 100 100 100 100
7 5 5 6 6 7 7 7 7 8 10 11 17 20 20 19 21 23 25 27 28 28 27 26 24 24 25 25 24 20 18 19 17 18 20 20 23 36 41 46 60 81 98 100 100
8 5 5 6 6 6 7 7 7 8 8 11 14 21 26 30 26 27 26 28 29 26 26 27 27 28 34 33 29 28 22 22 22 26 24 23 24 24 35 42 44 40 41 48 55
8 5 5 5 5 6 7 6 7 7 8 9 12 15 25 34 38 40 42 45 33 34 32 30 25 25 33 30 35 36 32 28 29 24 25 24 27 23 30 40 48 69 70 62 59
8 5 5 5 5 5 6 7 7 7 8 9 11 14 18 26 35 36 38 41 33 33 33 29 27 28 29 36 34 32 42 44 37 29 29 26 27 29 29 29 34 60 74 94 100
6 5 5 5 5 5 5 6 7 7 7 8 9 13 14 23 32 38 43 48 50 53 37 31 33 32 32 27 31 51 46 39 40 40 36 42 25 32 34 34 42 53 85 94 100

GFSSW_250_rhum_057.txt.gz
RH
4 3 3 3 3 3 3 3 3 3 3 3 3 4 5 5 5 5 8 8 10 9 10 16 24 62 71 100 100 97 67 55 60 41 64 88 89 61 87 56 61 64 81 69 69
4 3 2 3 2 2 3 2 2 2 3 2 2 3 4 5 5 5 8 9 10 9 9 14 30 34 82 100 100 100 95 85 82 69 38 60 79 88 75 61 46 54 84 78 70
3 3 2 2 2 2 2 2 2 2 2 2 2 2 3 5 5 8 6 8 10 10 10 12 24 15 59 100 100 100 100 99 68 72 69 38 54 87 73 69 50 42 81 83 74
3 3 2 3 2 2 2 2 2 2 2 2 2 2 2 4 6 5 7 8 12 10 10 10 17 33 34 88 100 100 100 84 61 68 72 71 38 48 86 49 61 70 73 92 83
3 2 2 2 2 2 2 2 2 1 1 1 1 1 2 4 7 5 8 8 9 10 10 10 13 66 48 81 100 100 100 97 58 79 69 74 40 47 95 58 60 65 71 87 82
3 2 2 2 2 2 2 1 1 1 1 1 1 1 2 3 5 5 6 8 10 11 10 11 12 84 66 62 80 100 100 99 58 66 65 54 46 39 89 79 54 63 70 68 79
3 2 2 2 2 2 2 2 1 1 1 1 1 1 2 2 5 5 6 8 11 13 12 11 10 17 93 46 64 100 100 99 82 72 61 58 66 83 60 100 67 59 79 79 73
4 2 2 2 2 2 2 2 1 1 1 1 1 2 2 2 5 6 6 8 12 11 12 12 11 12 41 88 57 91 100 100 77 75 56 71 92 81 54 90 100 83 69 74 72
4 2 2 2 2 2 2 2 2 1 1 1 1 2 2 2 4 5 6 9 12 13 13 12 11 11 14 100 72 61 89 100 94 83 82 73 98 88 76 72 100 100 100 85 74
5 3 2 2 2 2 2 2 2 1 1 1 1 2 2 2 4 6 8 9 12 15 15 13 12 11 13 85 95 83 88 100 100 75 81 93 94 95 84 70 79 90 100 100 100
5 3 2 2 2 2 2 2 2 2 1 1 2 2 2 2 3 8 10 8 12 15 13 12 12 12 14 54 100 85 69 77 100 79 82 91 100 92 83 100 77 93 92 94 100
5 2 3 2 3 2 2 3 2 2 2 1 2 2 3 2 3 4 7 11 10 14 14 14 13 12 11 14 93 86 76 91 84 54 66 83 100 93 90 91 99 90 96 94 84
5 3 3 3 3 3 3 3 3 2 2 2 2 2 3 3 3 4 8 11 13 15 12 14 14 12 12 12 25 97 100 83 72 60 70 89 99 100 100 98 96 93 96 100 97
7 3 3 3 4 3 3 4 3 4 3 2 3 3 3 3 3 5 10 12 11 14 13 15 14 13 12 11 12 75 83 60 76 76 61 82 98 98 98 100 100 95 97 99 99
6 3 3 3 4 3 4 4 4 4 5 3 3 4 5 4 5 6 7 11 12 13 12 14 14 15 13 11 10 11 66 45 76 80 64 56 81 100 100 97 100 100 96 100 100
7 4 3 3 4 4 4 4 5 4 6 5 4 4 5 6 5 6 9 10 11 15 16 13 14 15 14 12 12 10 11 70 100 67 60 61 62 94 98 100 96 100 98 96 100
9 6 4 3 4 4 4 4 5 6 6 7 5 6 6 7 7 6 9 11 15 13 12 10 11 13 13 12 14 13 12 12 32 90 66 57 54 94 92 100 100 100 100 99 100
10 7 4 4 4 4 4 4 4 6 6 8 9 6 6 11 10 9 9 10 11 12 14 15 12 12 13 12 14 17 15 12 12 14 91 100 52 72 100 100 100 99 100 100 100
12 8 5 4 4 5 5 5 5 5 6 7 11 10 8 9 12 15 13 14 16 15 17 18 18 19 21 18 16 18 19 17 14 12 12 21 59 90 82 100 100 100 92 94 100
15 10 6 5 4 5 6 6 5 5 6 7 10 13 12 10 12 19 23 21 21 21 20 21 23 23 23 21 20 21 18 18 16 14 13 14 18 55 98 100 100 100 100 97 96
16 9 6 6 5 5 5 6 6 6 6 7 9 14 14 13 14 18 21 24 25 24 26 26 26 26 23 23 23 21 20 18 17 16 14 14 17 23 62 97 100 100 100 100 100
20 8 6 5 5 5 5 6 6 6 7 8 9 12 18 15 14 14 19 21 26 30 33 31 28 28 26 24 23 19 17 16 16 16 15 14 14 15 20 39 99 100 100 100 100
23 11 7 5 5 4 5 5 6 6 6 8 9 11 15 20 18 16 17 20 24 26 28 27 29 31 31 27 22 21 19 17 16 14 14 13 14 14 15 19 34 78 95 100 100
44 13 7 6 5 4 4 5 6 7 6 7 8 10 13 20 27 24 20 19 21 22 23 25 25 25 26 26 24 22 20 18 17 17 15 14 15 15 16 18 18 20 24 25 34
39 22 8 5 4 4 4 5 5 8 7 6 7 9 11 12 21 31 30 25 21 20 21 20 21 23 23 24 26 25 24 21 19 17 17 17 17 18 18 20 22 22 22 23 22
56 39 13 6 4 4 4 4 5 7 8 6 7 9 10 14 16 30 36 41 41 29 25 21 21 21 21 21 22 25 28 26 21 18 17 16 17 18 20 21 20 25 37 39 30
40 38 14 8 5 4 4 4 5 6 8 7 7 8 9 12 15 19 30 37 52 49 43 35 30 25 23 22 24 29 25 25 24 20 19 19 17 20 16 18 18 20 24 34 42

GFSSW_250_rhum_060.txt.gz
RH
7 6 5 3 2 2 3 2 3 3 3 2 2 3 3 4 4 4 5 7 10 8 9 9 9 11 13 14 58 100 93 100 100 68 39 50 91 100 100 97 80 65 72 75 72
6 6 4 2 2 2 2 2 2 2 2 2 2 2 3 3 3 4 5 6 9 9 9 9 9 11 14 19 38 100 82 100 100 100 50 43 51 84 100 100 83 77 65 64 86
4 6 3 2 2 2 2 2 2 2 2 2 2 2 2 4 3 6 5 5 8 9 10 8 8 10 13 22 40 69 99 100 100 100 100 52 48 49 100 100 89 84 94 80 77
5 5 3 2 2 2 2 2 1 1 2 2 2 1 2 3 5 5 4 6 8 9 10 9 8 10 12 19 34 47 100 99 100 100 100 83 46 48 81 100 99 93 95 76 68
4 4 3 2 2 2 2 2 1 1 1 1 1 1 1 2 4 5 5 6 8 10 10 9 9 10 13 34 34 57 100 100 100 100 100 100 65 56 50 92 100 88 90 81 75
4 4 3 2 2 2 2 2 1 1 1 1 1 1 1 2 3 4 5 6 8 10 11 10 10 10 12 46 50 95 100 98 99 100 100 100 76 53 51 53 90 100 80 73 74
4 4 3 2 2 2 2 2 1 1 1 1 1 1 1 2 3 4 5 7 10 10 13 12 10 11 12 30 79 91 100 100 100 100 100 100 100 47 30 47 49 96 88 79 78
4 4 3 2 2 2 2 2 2 1 1 1 1 1 2 2 2 4 5 7 9 11 13 12 12 13 12 18 98 77 88 100 100 100 100 100 100 70 35 35 63 63 100 97 83
4 4 3 2 2 2 2 2 2 2 1 1 1 1 2 2 2 5 5 7 11 13 15 13 14 14 13 15 91 62 65 100 100 100 100 100 100 74 48 29 63 71 79 100 90
4 4 3 2 2 2 2 2 2 2 1 1 1 1 2 3 2 5 6 9 15 15 17 15 14 14 14 13 80 82 98 100 100 100 100 100 100 80 56 38 46 98 97 100 100
5 4 3 3 2 2 2 2 2 2 2 2 2 2 2 2 2 3 5 13 17 12 14 12 12 15 17 14 61 100 100 100 100 100 99 95 99 87 66 50 47 60 83 96 100
7 4 4 3 3 2 3 2 3 2 2 2 2 2 3 3 3 3 6 14 9 8 9 11 15 14 15 14 18 88 100 100 100 100 81 68 74 73 65 63 76 63 82 74 78
8 5 3 3 3 3 3 3 3 3 3 2 2 2 3 3 3 4 7 14 12 12 13 15 16 18 16 14 14 78 100 100 100 100 100 93 78 53 62 67 68 88 78 87 82
10 6 3 3 4 4 3 3 3 3 5 3 3 3 2 3 3 4 6 10 14 15 14 14 15 15 17 16 14 31 100 98 93 100 100 96 82 76 59 67 78 84 99 94 70
15 8 4 3 4 4 3 4 4 4 6 4 3 4 3 3 5 5 5 8 18 16 14 14 14 17 18 16 14 14 100 100 98 91 93 79 57 56 46 63 87 100 97 100 100
22 11 6 4 4 4 4 4 4 4 4 6 5 4 4 4 6 8 7 8 10 12 11 13 13 16 17 17 15 14 28 100 86 57 64 68 46 58 43 60 79 88 98 95 99
41 19 8 4 4 5 4 4 4 5 4 5 8 6 6 6 6 8 9 11 12 12 12 13 13 14 15 16 16 14 14 20 98 53 62 76 54 75 41 51 56 79 86 86 88
48 23 14 7 4 5 4 4 4 5 5 6 7 9 6 7 8 8 7 8 12 14 13 17 17 16 18 17 17 15 14 14 14 57 100 99 60 100 79 59 63 65 88 97 91
43 43 19 14 7 4 5 4 4 5 5 6 8 9 11 7 8 10 11 11 12 12 13 12 15 15 15 16 16 16 16 15 14 14 85 100 73 92 97 61 64 72 74 84 99
56 58 37 24 11 5 5 5 5 4 6 6 7 10 12 12 8 8 13 16 18 17 16 15 18 17 18 18 18 19 18 19 18 17 17 85 100 100 100 93 68 74 89 86 84
67 58 43 27 15 7 6 5 5 4 5 5 7 8 16 15 12 10 10 13 19 24 28 32 35 35 30 33 37 27 23 21 22 23 21 17 24 93 100 100 98 75 76 85 92
64 64 47 29 26 11 7 5 5 5 5 5 6 7 10 21 18 14 12 10 14 18 23 26 28 29 31 27 23 23 24 21 21 25 24 22 19 17 17 27 98 100 81 72 77
57 84 67 42 33 19 6 7 5 5 5 5 6 6 8 11 24 20 17 16 16 16 19 22 26 28 25 24 23 24 21 18 17 19 21 21 20 18 16 15 15 17 34 53 41
46 65 76 62 40 25 10 6 6 5 5 6 6 6 8 9 14 23 25 19 19 20 20 21 22 23 22 21 19 18 18 18 18 17 17 18 17 18 17 16 15 15 15 14 15
36 46 71 58 41 28 15 9 6 5 4 6 6 6 7 9 10 16 26 31 23 20 21 22 23 23 23 22 21 21 19 16 16 16 16 16 17 16 16 16 16 15 14 14 15
33 43 54 55 45 36 21 8 6 5 4 4 6 6 7 8 10 12 19 28 36 33 24 23 24 24 26 23 23 25 21 17 17 16 14 16 17 16 15 16 16 16 16 15 16
29 36 42 48 50 37 34 12 8 6 5 4 6 6 7 7 9 13 16 20 27 36 43 39 26 23 23 24 26 27 23 24 20 20 19 19 16 21 18 16 16 16 16 17 16

GFSSW_250_rhum_063.txt.gz
RH
4 6 4 3 3 2 2 2 2 2 2 2 2 2 3 3 3 4 4 5 6 7 12 12 10 9 10 12 14 15 50 87 100 100 100 86 64 63 84 100 100 100 100 100 88
4 5 4 3 3 2 2 2 2 2 2 2 2 2 2 3 3 4 4 4 5 6 8 12 9 10 9 12 15 14 14 84 100 100 100 100 71 58 64 100 100 100 100 100 100
4 3 3 3 2 2 2 2 2 1 2 2 2 2 2 2 3 4 4 4 5 6 8 10 8 9 10 11 13 15 15 40 100 100 100 100 88 54 53 96 100 100 100 100 100
3 3 3 2 2 2 2 2 2 2 1 1 2 2 2 2 4 4 4 4 4 6 8 9 8 7 12 11 13 14 20 21 71 100 100 100 100 80 54 80 100 100 100 100 100
4 3 2 2 2 2 2 2 1 2 1 1 1 1 1 1 2 3 4 4 4 5 7 8 10 8 12 14 14 15 21 22 36 99 100 100 100 92 77 68 100 100 100 100 100
4 4 3 2 2 2 2 2 2 2 1 1 1 1 1 1 2 3 4 4 5 7 7 9 12 10 12 15 14 15 19 23 44 73 100 100 100 100 85 89 100 100 100 100 100
4 4 3 3 2 2 2 2 2 2 1 1 1 1 1 1 2 3 4 5 6 8 7 11 12 10 12 15 14 14 23 27 28 60 100 100 100 100 93 95 93 100 100 100 100
6 4 3 3 2 2 2 2 2 2 1 1 1 1 1 1 2 2 5 7 9 9 9 12 12 12 11 14 14 14 20 29 28 37 77 100 100 100 99 100 100 100 100 96 100
7 4 4 3 2 2 2 2 2 2 2 1 1 1 1 1 2 3 4 7 11 12 13 11 12 13 12 14 15 14 16 22 33 35 55 100 100 100 100 100 96 100 99 63 77
8 4 4 3 2 2 2 2 2 2 2 2 2 2 1 2 2 3 3 5 11 16 13 7 9 10 11 12 15 16 17 52 65 66 52 100 100 100 100 73 94 81 84 61 54
13 7 4 4 3 2 2 2 3 2 2 2 2 2 2 2 3 3 3 6 13 15 10 7 10 12 15 18 18 18 19 100 100 96 84 100 100 100 100 70 75 62 69 71 66
16 8 5 4 4 3 2 2 3 2 2 2 2 2 2 3 3 3 3 6 13 18 13 9 13 15 17 18 18 18 18 73 100 88 100 88 100 100 100 91 67 65 57 61 56
26 13 6 5 4 3 3 3 3 3 3 4 3 2 2 3 3 3 3 6 15 18 16 12 14 16 18 19 18 19 18 86 100 86 100 84 99 100 100 99 80 50 62 72 84
32 19 8 6 5 5 4 3 3 3 3 4 3 3 2 2 3 4 8 12 18 23 16 13 13 15 18 18 18 20 19 82 100 100 96 100 98 100 100 96 80 71 53 63 94
35 28 10 7 5 6 4 4 4 4 4 4 4 3 3 3 4 4 4 8 14 14 12 10 9 14 16 18 18 21 20 60 100 99 87 82 87 91 73 76 94 92 65 52 58
43 34 16 10 10 10 6 4 4 4 4 4 5 5 4 4 4 5 5 6 6 9 12 12 12 17 18 18 19 18 20 18 100 91 66 80 82 99 79 85 81 81 76 60 55
45 42 32 16 17 15 9 6 5 5 5 4 4 6 6 5 5 6 7 7 10 13 14 15 15 16 18 19 19 20 20 19 43 100 93 96 78 100 79 66 74 75 80 80 64
33 40 45 28 16 21 19 9 7 5 5 5 4 6 8 7 6 8 10 12 15 14 14 16 18 16 18 19 20 21 20 20 20 99 100 74 64 100 93 69 57 66 67 76 85
32 40 45 48 21 18 28 13 8 7 5 5 5 5 7 10 8 9 12 13 14 14 17 17 19 18 18 20 20 22 21 21 20 41 92 71 62 100 92 81 80 78 58 51 50
42 37 47 58 27 22 21 23 7 7 6 6 6 6 6 8 11 10 13 16 16 17 18 16 21 22 20 20 19 22 22 22 23 21 21 91 100 100 100 97 93 80 75 73 52
40 36 43 57 52 23 18 25 12 9 6 6 7 6 7 7 11 12 11 13 16 18 21 25 25 22 25 23 25 26 24 24 26 26 22 18 62 100 100 86 84 82 75 68 56
39 45 47 49 65 25 15 24 17 9 8 6 6 7 7 7 10 12 13 13 13 16 18 22 27 37 47 46 42 40 31 27 28 31 28 24 20 30 100 100 100 85 76 79 84
39 42 43 42 58 57 20 17 20 12 9 8 6 6 7 8 9 15 16 15 14 14 14 16 17 21 30 34 36 40 41 36 28 26 29 28 28 22 21 79 100 100 100 84 77
37 41 44 46 55 62 38 21 25 16 9 8 6 6 7 8 9 11 16 18 17 17 17 15 14 14 16 15 17 22 23 22 24 23 24 26 26 26 24 22 19 22 28 56 82
38 43 43 44 60 48 54 26 20 18 10 8 8 6 6 7 8 11 16 21 23 21 20 19 19 17 16 15 16 16 16 16 17 17 19 20 24 25 24 22 20 18 17 16 15
40 42 48 38 48 58 67 46 25 26 10 8 8 6 6 7 7 9 12 21 27 30 27 24 25 24 24 20 20 20 20 20 18 15 15 15 18 20 22 23 22 20 19 18 17
37 44 44 39 39 45 61 38 27 21 9 8 8 7 6 8 8 8 11 15 22 33 42 41 32 29 28 26 24 26 20 19 19 19 18 20 16 17 17 19 20 20 21 20 20

GFSSW_250_rhum_066.txt.gz
RH
7 6 4 4 4 3 2 2 2 2 2 2 2 2 2 2 2 3 4 5 6 5 6 8 9 9 12 9 12 14 12 34 83 99 100 100 100 100 92 74 62 80 100 100 100
7 5 4 4 3 3 2 2 2 2 2 2 2 2 2 2 3 3 4 5 5 5 6 8 9 9 12 11 10 13 12 17 83 100 100 100 100 100 100 84 70 83 97 92 100
8 4 3 4 3 3 2 2 2 2 1 2 2 2 2 2 2 3 4 5 5 5 6 7 8 9 10 14 10 11 12 15 25 97 95 100 100 95 100 93 78 78 100 100 100
7 4 4 3 3 3 2 2 2 1 1 2 1 1 1 2 2 3 4 4 4 5 5 6 7 8 11 13 13 11 10 15 18 42 97 86 100 100 100 99 85 85 100 100 100
7 5 4 4 3 2 2 2 2 1 1 2 1 1 1 1 1 2 4 4 4 4 5 6 7 8 12 15 16 16 12 14 17 16 66 100 98 100 100 100 94 87 100 100 100
9 5 3 4 4 2 2 2 2 1 2 2 1 1 1 1 1 2 3 4 4 4 5 6 7 8 12 15 16 18 17 14 16 18 22 81 90 100 100 100 100 90 89 100 100
15 6 4 4 4 3 2 2 2 1 2 2 1 1 1 2 1 1 2 3 5 5 5 7 8 8 12 15 16 17 18 16 14 16 19 55 86 95 100 100 100 100 100 91 100
50 14 6 4 4 3 3 2 2 2 2 2 1 1 1 1 1 1 2 3 6 6 7 7 9 11 11 14 15 17 18 16 17 18 20 34 63 100 100 100 100 100 100 96 100
34 31 9 4 4 3 3 2 2 2 2 2 1 1 2 1 1 2 2 3 6 8 8 8 9 11 12 14 14 15 18 17 17 18 16 19 35 93 88 96 100 100 100 100 86
31 37 19 8 4 3 3 3 2 2 2 2 2 2 2 2 1 2 2 3 5 9 10 9 9 9 10 12 13 16 17 19 20 22 18 19 31 44 90 91 100 100 100 100 100
34 37 33 12 6 4 3 4 2 2 2 2 2 2 2 2 2 2 2 3 5 10 13 9 7 10 13 15 17 19 20 24 23 22 42 29 33 35 57 78 100 100 100 100 100
38 38 38 25 9 6 4 4 3 2 2 3 3 2 2 2 2 2 3 3 5 11 15 10 10 11 12 14 16 18 20 22 21 22 23 26 21 35 50 58 84 100 100 100 100
42 43 38 36 15 9 6 6 3 2 2 3 3 2 2 2 2 3 3 5 7 11 12 10 8 11 11 12 14 19 20 24 23 22 20 21 17 22 60 91 61 81 100 100 100
55 47 47 37 27 11 7 7 4 3 2 2 3 3 2 2 2 3 3 4 7 10 9 7 8 11 11 12 14 16 19 23 24 22 23 21 18 19 30 72 85 46 68 100 96
50 55 54 41 32 13 8 7 7 4 4 2 3 4 3 3 3 4 4 5 5 5 7 8 10 14 16 16 16 18 19 22 25 22 22 24 26 26 35 42 100 100 40 66 94
44 64 55 45 34 24 8 9 10 6 4 4 3 4 5 4 4 5 6 6 6 8 12 15 14 14 16 18 18 18 22 22 24 24 22 22 32 32 51 57 82 98 79 34 54
44 67 55 41 42 37 11 9 13 11 6 5 3 4 5 5 4 6 8 8 10 9 11 11 12 13 14 18 18 18 22 23 22 24 25 23 24 56 46 59 70 82 93 55 38
49 70 52 45 43 56 19 10 12 13 8 6 5 4 4 6 6 6 10 14 14 14 17 15 16 17 15 19 20 21 22 24 24 25 27 24 23 43 64 58 62 68 78 98 58
50 68 51 44 42 42 40 14 14 15 10 8 8 4 5 5 8 6 8 15 16 18 22 20 21 22 23 20 21 20 20 22 23 23 27 24 24 42 71 78 59 84 84 98 94
54 73 52 47 43 55 50 16 16 17 10 8 9 7 5 5 6 9 7 12 13 20 25 24 29 25 22 23 22 21 22 21 22 24 26 25 24 26 53 87 99 86 64 86 87
62 73 56 47 43 56 62 42 14 16 15 7 8 9 7 6 6 8 11 10 10 12 17 26 32 38 42 35 30 28 25 26 26 25 27 27 27 24 49 100 100 78 72 54 64
53 70 53 41 39 50 58 56 18 16 19 9 8 8 7 7 7 7 11 11 10 10 14 17 24 32 46 42 46 40 36 30 28 34 37 32 36 27 36 100 100 100 86 78 60
55 71 54 39 42 41 54 65 29 18 20 11 8 10 8 7 8 9 10 13 13 12 10 11 15 23 31 30 36 42 52 46 41 34 37 37 39 31 26 39 100 100 97 67 60
52 72 48 35 36 39 56 60 62 16 20 14 10 9 9 7 7 8 8 11 16 16 14 13 12 13 15 22 27 35 32 33 28 37 38 32 32 34 29 26 21 60 100 100 94
71 71 46 30 35 40 47 64 66 46 17 12 10 10 8 8 6 8 8 10 13 18 20 18 17 16 16 15 15 16 18 22 29 30 24 28 30 26 27 28 28 24 50 93 99
70 69 46 37 39 42 47 60 68 67 19 13 10 9 7 7 7 8 8 9 11 16 19 22 18 20 20 20 19 20 21 19 18 19 21 23 25 24 26 27 27 26 25 23 22
70 65 44 38 39 50 45 61 66 68 43 13 9 6 7 6 7 7 9 10 11 14 20 26 30 22 22 23 25 27 21 21 20 18 18 19 17 19 21 22 22 23 23 24 24

GFSSW_250_rhum_069.txt.gz
RH
17 10 6 5 5 5 5 5 2 2 2 2 2 2 1 2 2 2 3 4 4 5 5 7 9 9 10 10 11 12 12 14 36 94 94 68 64 74 94 95 93 83 74 93 100
19 19 8 5 5 6 6 4 2 2 2 2 2 2 2 2 2 2 2 3 4 4 5 7 8 10 11 11 12 11 12 14 18 54 92 88 77 69 74 96 97 95 81 89 100
22 19 9 6 6 5 6 4 3 2 2 2 2 2 1 2 2 3 3 3 3 4 5 6 7 7 10 11 12 12 12 16 18 19 75 98 80 66 62 76 89 94 94 84 88
20 19 14 7 7 6 6 4 2 2 2 2 2 1 1 1 2 2 3 4 3 4 5 6 7 7 8 11 13 15 13 14 16 17 21 79 95 67 62 74 84 94 93 87 70
20 19 12 8 5 5 5 4 2 2 2 1 2 1 1 1 1 1 2 3 4 4 4 6 7 7 8 12 14 15 14 16 14 16 18 23 73 89 63 74 88 97 96 89 80
26 22 14 9 5 4 5 5 3 2 2 2 2 1 1 1 1 1 2 2 4 4 5 6 7 7 8 10 15 16 15 16 14 17 19 18 49 93 75 73 100 100 100 100 89
24 21 16 11 6 4 5 5 3 2 2 2 2 1 1 1 1 2 2 2 3 5 5 6 8 8 9 9 14 17 14 16 14 17 17 19 21 78 91 80 99 100 100 100 100
26 24 20 11 9 5 5 5 3 3 2 2 2 2 1 1 1 2 2 2 2 4 6 6 8 8 9 9 12 17 15 14 16 16 18 19 20 50 93 98 91 100 100 100 100
29 30 21 18 12 6 6 5 3 3 2 2 2 2 1 2 1 2 2 2 3 4 7 7 8 8 9 10 11 15 16 15 17 16 17 20 20 22 55 97 100 100 100 100 100
32 34 29 17 20 13 6 6 5 3 3 2 2 2 2 1 1 1 2 2 2 4 8 8 8 8 9 10 12 15 18 18 18 19 21 21 19 19 20 70 100 100 100 100 100
32 38 31 26 23 16 8 6 5 3 3 2 2 2 2 2 2 2 2 2 2 4 7 8 8 8 9 11 13 18 22 24 23 22 21 21 14 16 19 19 79 100 100 100 100
42 46 43 27 27 23 11 6 5 4 4 3 2 2 2 2 2 2 2 2 3 5 9 9 7 9 8 10 15 20 22 23 24 22 20 20 16 16 17 18 17 76 100 100 100
54 57 49 34 34 31 18 8 6 5 4 4 2 2 2 2 2 2 2 2 3 4 8 10 10 9 9 12 15 18 22 24 24 23 20 20 18 16 16 16 16 18 89 100 100
59 57 54 33 44 36 24 12 6 6 5 4 3 3 3 2 2 2 2 3 3 4 7 9 10 10 10 12 15 19 23 25 24 23 22 22 19 19 16 15 14 17 26 100 100
76 62 64 46 58 46 30 16 6 6 6 4 4 3 3 4 3 3 3 3 4 4 6 8 11 13 12 12 14 17 20 21 23 25 24 23 22 24 18 16 16 18 19 44 100
84 64 72 55 66 45 33 21 9 7 8 7 6 4 4 4 4 3 5 5 5 5 6 8 11 13 12 13 13 14 16 18 22 23 25 23 20 26 24 22 18 17 17 20 51
86 79 73 54 68 44 32 26 13 10 8 7 10 6 4 5 5 4 5 7 10 10 12 13 14 16 16 14 14 14 15 19 21 24 26 25 22 27 26 26 20 18 18 18 24
89 88 72 57 71 45 34 36 18 8 10 7 10 8 6 5 7 6 6 8 14 17 19 18 18 21 22 20 17 17 17 18 22 26 28 25 25 28 31 29 25 20 18 20 20
88 80 77 61 72 45 39 42 31 8 13 9 11 10 7 6 6 8 6 6 11 16 21 26 28 24 23 23 21 23 20 18 20 24 26 25 26 28 28 30 28 25 21 20 25
89 77 79 66 67 44 41 45 45 16 14 14 9 14 10 6 7 7 10 8 8 11 15 22 28 34 33 29 24 22 21 21 21 22 25 26 26 27 28 30 31 30 24 22 21
90 86 88 85 67 46 42 41 51 48 13 13 12 10 12 9 6 7 8 10 9 8 11 13 23 31 38 37 33 32 28 24 24 26 25 28 27 26 27 29 31 32 38 25 23
87 89 90 92 66 46 36 45 47 60 29 18 13 13 13 9 8 7 7 10 12 10 11 14 18 23 31 40 42 38 35 32 31 33 30 32 32 32 29 29 30 31 33 37 26
97 86 98 85 65 45 37 48 49 60 60 16 13 11 12 10 8 6 7 8 12 14 12 12 16 21 24 35 42 48 43 42 41 38 38 35 46 29 29 27 31 32 30 30 29
95 85 93 69 66 42 39 44 44 60 58 46 16 10 10 10 8 8 6 7 8 14 16 14 13 15 20 22 29 33 38 35 35 44 46 51 57 55 28 27 27 31 32 28 27
93 78 96 70 62 39 40 40 46 48 61 54 24 13 9 9 9 8 8 8 8 9 15 16 16 15 15 17 20 23 24 32 32 32 27 34 29 28 24 20 21 24 26 24 25
79 90 92 74 53 37 40 43 45 49 64 53 40 18 13 9 7 8 8 8 8 10 13 18 18 16 16 16 16 18 21 23 25 30 31 26 27 23 23 21 21 19 19 20 22
89 96 87 67 48 37 40 48 44 46 58 55 49 26 14 12 9 6 8 8 9 9 10 16 24 24 20 18 18 19 16 18 18 18 20 22 23 23 23 23 24 24 24 22 20

GFSSW_250_rhum_072.txt.gz
RH
22 20 22 16 9 5 7 9 8 4 3 2 2 2 2 2 2 2 3 3 3 3 4 5 6 9 9 7 8 11 13 13 16 67 90 77 83 63 94 98 99 96 100 100 100
23 25 22 16 12 6 6 7 7 4 3 2 2 2 2 2 2 2 2 3 3 3 4 4 6 8 10 9 8 8 12 15 18 24 98 100 90 74 74 91 87 87 100 100 100
22 21 25 19 12 6 5 6 6 5 3 2 2 2 2 1 2 2 2 3 3 3 4 5 5 6 10 10 9 8 12 16 16 15 38 100 100 86 61 58 64 61 84 100 100
26 27 30 26 13 6 5 5 5 6 3 2 2 2 2 1 1 2 2 3 3 3 4 5 6 6 9 10 10 9 13 15 16 16 16 69 100 100 79 63 45 34 50 75 100
33 30 34 25 21 10 5 4 5 4 3 2 2 2 1 1 1 1 2 2 3 3 4 5 5 6 9 12 13 10 10 13 14 16 17 23 82 99 96 83 63 45 44 51 99
42 33 37 34 17 9 6 4 5 4 3 2 2 2 1 1 1 1 2 2 3 4 4 5 6 7 9 13 14 12 10 12 15 17 20 19 50 79 100 100 89 73 54 64 97
46 42 38 31 22 12 7 3 5 4 4 2 2 2 1 1 1 2 2 2 3 4 4 5 6 6 8 12 16 15 12 13 14 17 21 20 22 44 95 100 100 82 71 86 94
50 39 41 39 32 23 8 3 6 6 3 2 2 2 2 1 1 2 2 2 2 3 5 5 5 7 8 11 17 18 15 13 14 15 20 20 22 25 46 99 100 99 73 80 97
58 46 48 49 38 25 8 4 5 6 3 3 2 2 2 2 1 1 1 2 2 3 6 5 5 7 9 10 13 19 16 13 13 16 17 23 25 18 18 51 99 100 97 90 90
65 54 49 41 46 35 18 5 6 6 4 3 2 2 2 2 1 1 2 2 2 4 6 6 6 8 9 10 11 14 19 16 16 18 20 22 22 21 21 27 72 93 100 96 96
64 59 55 56 53 38 20 8 6 6 5 4 3 2 2 2 1 2 1 2 2 3 5 6 6 6 9 11 11 12 19 22 20 20 20 20 22 22 22 21 21 58 100 100 100
64 69 64 61 58 49 29 18 7 6 6 4 3 2 2 2 2 2 1 2 2 3 4 8 7 6 8 10 12 12 13 18 22 21 24 20 19 20 21 20 20 21 47 100 100
74 78 68 65 63 65 34 32 10 7 5 5 4 3 2 2 2 2 2 2 2 3 4 10 8 9 9 10 12 12 13 16 21 22 24 21 19 22 22 19 20 21 22 76 100
77 73 73 66 61 68 51 43 14 9 6 5 4 4 3 3 2 2 2 3 2 3 4 7 9 10 10 11 13 13 13 14 15 19 23 22 20 21 22 19 18 20 22 36 87
76 78 74 75 64 75 62 52 19 11 8 5 5 5 4 3 3 2 3 3 4 3 4 6 10 12 10 12 15 14 14 14 15 17 24 26 24 23 22 21 21 19 20 22 34
78 78 74 76 68 87 66 56 29 13 8 7 6 5 6 4 4 4 3 5 6 5 6 10 14 14 12 13 14 15 14 14 14 16 17 24 25 25 27 24 21 20 19 20 20
77 74 79 81 70 88 72 52 33 20 8 7 7 7 6 6 4 5 4 5 8 10 8 11 13 14 12 13 14 15 14 14 14 15 20 22 24 28 23 20 17 16 19 18 18
81 74 86 78 72 86 70 47 30 24 17 8 9 9 7 6 6 6 6 7 11 14 18 18 18 18 16 13 13 14 15 17 21 28 32 26 25 26 24 22 21 19 17 18 19
79 82 90 74 80 76 72 41 30 24 23 9 9 8 9 8 6 5 8 7 11 12 16 22 28 26 22 17 15 15 16 19 23 29 32 32 29 23 27 26 24 25 22 21 21
77 98 94 79 79 80 70 41 31 35 30 12 10 11 9 8 7 6 6 8 10 12 13 19 25 26 27 26 22 18 18 20 21 25 26 26 28 26 27 27 25 25 26 24 22
85 96 88 80 79 74 63 41 34 42 41 30 11 9 13 13 8 7 6 8 9 13 14 17 20 29 34 36 29 25 24 24 25 25 24 23 24 22 23 24 28 28 27 27 28
98 94 85 80 80 84 69 42 35 44 44 47 16 10 8 14 12 8 8 6 10 10 17 18 17 22 31 37 38 35 31 28 28 28 24 22 24 23 22 24 24 27 28 28 26
98 88 90 81 77 83 76 43 39 43 50 45 35 9 10 10 14 11 8 8 7 11 10 13 19 23 25 29 35 35 36 39 35 33 34 29 29 25 21 23 23 22 23 26 27
96 83 91 81 77 86 66 43 41 45 54 54 44 15 10 9 9 11 9 9 8 8 12 12 13 19 23 25 28 28 30 34 34 39 38 41 36 26 20 19 22 25 24 26 28
94 93 85 84 77 82 60 43 42 51 56 56 52 34 8 9 12 11 9 9 10 9 9 13 14 14 17 23 24 27 28 30 34 28 35 33 29 25 17 18 21 22 24 23 25
100 98 80 89 78 80 57 41 44 50 55 66 72 47 23 11 9 11 11 8 8 9 10 10 15 16 16 17 23 27 27 28 28 28 28 29 28 25 18 19 17 18 21 24 21
99 100 84 93 75 78 57 41 44 51 58 59 58 59 40 12 9 9 10 9 8 9 9 10 10 16 19 17 16 17 18 21 26 26 30 38 29 28 25 22 22 22 20 19 20

GFSSW_250_rhum_075.txt.gz
RH
33 32 39 31 25 24 16 7 6 7 5 4 3 2 1 1 2 2 2 2 2 2 2 3 4 5 8 10 11 12 10 12 14 13 31 100 100 93 94 97 100 100 100 100 100
33 35 46 28 32 25 15 8 5 8 4 3 3 2 2 1 1 1 2 2 2 2 3 3 4 5 6 11 10 11 10 11 15 16 28 99 100 96 81 100 100 100 100 100 100
36 36 46 33 34 26 13 8 5 6 5 3 3 2 2 1 1 1 2 2 2 2 3 4 4 4 6 9 12 12 12 12 13 15 15 64 100 100 86 78 95 100 100 100 100
40 40 41 38 34 29 14 8 5 6 5 3 3 2 2 2 2 1 1 2 2 2 3 4 4 4 6 8 13 13 15 10 12 14 15 35 99 100 100 82 93 100 100 100 100
46 39 41 40 31 28 17 10 6 6 4 4 3 2 2 2 1 1 1 2 2 3 3 4 5 5 6 10 14 15 12 14 16 11 18 16 50 100 99 99 93 100 100 100 100
55 44 48 38 38 31 31 11 6 7 5 5 3 2 2 2 1 1 1 2 2 4 4 4 5 6 7 10 12 18 16 16 12 11 16 18 18 97 100 100 100 94 98 100 100
60 54 48 34 37 45 31 15 5 5 6 5 3 2 2 2 1 2 1 2 2 3 5 4 5 6 8 9 13 15 15 16 12 12 16 18 16 26 100 100 96 100 83 80 100
68 60 46 39 40 56 42 24 6 5 6 5 4 3 2 2 1 1 2 2 2 2 4 5 5 6 8 8 12 16 19 18 14 12 13 16 18 19 78 100 100 100 100 98 100
72 69 50 47 45 52 51 26 7 6 7 7 4 3 2 2 1 1 2 2 2 3 4 6 4 6 8 10 14 18 17 18 15 13 13 16 19 19 19 74 86 100 100 100 100
80 76 49 45 56 62 47 32 10 8 7 7 5 3 2 2 2 2 1 1 2 3 4 6 5 5 7 9 10 15 17 18 15 15 15 18 19 19 20 53 81 100 100 100 100
85 76 59 49 72 68 48 34 14 9 8 7 5 3 2 2 2 2 1 2 2 3 3 4 6 6 8 9 12 17 21 21 20 17 16 17 18 20 21 20 47 40 73 100 100
87 78 61 50 67 67 50 33 18 10 10 8 6 4 2 2 2 2 1 2 2 3 3 4 7 7 8 10 11 11 12 18 21 21 20 19 21 18 18 20 24 29 43 85 100
92 82 62 62 73 70 51 46 26 15 10 9 6 4 3 2 2 2 1 1 2 3 4 6 7 9 8 10 10 13 14 19 23 22 21 19 21 19 20 22 24 26 28 48 77
93 84 68 69 74 66 49 49 36 23 11 9 6 5 4 3 3 2 2 2 2 3 3 5 8 9 9 9 11 12 14 14 22 24 24 18 21 19 21 23 24 26 26 33 55
100 76 76 71 71 70 62 56 49 30 14 9 6 6 5 4 3 3 2 2 2 3 4 5 7 9 9 10 12 13 13 14 17 23 21 20 20 20 23 23 25 24 23 24 26
100 82 86 75 74 64 65 60 62 40 26 10 6 7 9 6 3 4 3 2 4 3 4 6 8 11 10 10 11 13 13 14 13 15 20 23 23 22 26 24 23 22 22 23 24
100 86 91 72 84 76 61 68 66 44 28 12 7 6 8 8 6 4 5 3 4 6 5 5 9 16 14 11 12 13 14 14 13 13 16 19 24 29 26 26 23 20 21 21 23
100 94 96 82 80 73 71 73 61 44 33 14 7 6 7 10 8 6 6 5 4 6 7 11 15 18 16 14 13 14 14 15 15 15 15 16 20 29 29 26 22 21 21 23 22
100 98 92 97 78 76 74 73 64 45 32 19 7 7 7 10 12 7 5 7 6 5 12 12 17 19 22 18 15 15 16 16 16 17 18 20 17 22 29 28 25 24 23 23 24
100 100 94 100 78 79 81 67 63 47 37 25 11 7 6 8 12 9 7 7 9 9 9 15 19 20 22 19 18 16 17 18 17 18 18 20 18 16 20 26 27 27 25 23 24
100 98 96 100 76 82 78 63 62 49 42 36 15 10 8 9 10 12 9 9 9 11 11 11 16 24 24 24 21 18 16 17 18 18 18 18 18 17 18 19 23 28 28 25 24
100 99 98 98 75 82 82 67 65 49 46 46 24 11 9 8 11 10 9 9 10 11 12 12 13 18 22 24 24 22 21 19 17 19 18 19 17 19 23 22 19 20 21 22 25
100 97 98 91 74 82 80 67 64 47 44 48 29 20 9 8 7 12 10 8 10 12 11 13 15 19 20 22 27 30 28 23 21 21 21 20 20 22 18 21 20 23 25 26 26
100 99 100 93 75 80 84 66 64 45 45 49 40 33 12 10 8 8 11 8 9 10 13 13 16 16 18 20 22 27 28 28 28 31 32 28 27 24 19 19 21 23 27 28 29
100 99 98 96 76 80 84 67 60 43 43 54 54 42 25 8 11 9 10 10 8 8 11 14 17 15 16 19 21 20 22 27 31 29 32 32 31 23 22 20 22 24 23 22 20
100 100 100 89 74 84 89 68 62 41 43 54 52 59 47 16 9 9 8 11 11 8 8 11 15 20 20 18 23 23 26 28 26 23 26 21 26 24 20 20 21 20 18 18 16
100 100 100 87 80 91 88 73 61 40 39 49 47 62 64 46 14 10 10 10 13 11 8 9 11 13 19 20 18 22 25 27 28 27 25 28 23 22 22 18 18 17 19 21 21

GFSSW_250_rhum_078.txt.gz
RH
50 65 61 54 45 32 33 31 15 8 6 8 5 2 2 2 2 2 2 2 2 2 2 2 2 3 4 8 14 14 10 9 12 14 12 13 76 69 100 100 100 100 100 100 100
54 68 62 61 45 40 40 35 17 9 7 8 4 2 2 2 2 2 1 2 2 2 2 3 3 3 4 6 10 12 9 10 15 14 13 15 52 56 97 100 100 100 100 100 100
56 58 65 62 49 46 44 41 15 11 8 8 4 2 2 2 2 1 1 1 2 2 2 3 3 3 3 5 6 8 10 16 14 13 13 16 19 76 57 100 100 100 100 100 100
58 66 67 55 50 49 48 42 24 12 8 8 4 3 3 2 2 2 1 1 1 2 2 3 3 3 4 4 6 8 14 18 11 14 14 15 22 69 41 92 100 100 100 100 100
69 82 65 61 54 52 51 38 26 14 9 7 4 4 3 2 2 2 1 1 1 2 2 3 3 4 4 6 7 9 15 15 11 16 15 15 19 27 78 64 100 100 100 100 99
70 76 66 64 59 58 64 46 31 13 9 7 4 4 2 2 2 2 1 1 1 2 2 3 4 4 5 6 8 10 14 16 16 18 14 15 18 20 57 71 90 100 100 100 100
83 69 71 65 64 64 62 55 38 15 9 8 5 4 3 2 2 2 1 1 1 2 2 3 4 4 4 6 8 10 15 20 16 13 16 16 20 19 22 96 83 91 100 100 100
100 79 75 69 77 73 65 58 34 20 8 9 5 4 3 2 2 2 1 1 2 2 2 3 5 5 6 6 10 10 13 18 19 23 22 16 16 19 20 29 99 52 92 100 100
100 92 72 74 83 77 69 66 40 21 10 9 6 4 4 3 2 2 1 1 2 2 2 3 6 5 6 7 9 11 13 19 16 19 24 20 16 19 17 20 54 92 60 87 99
100 92 69 89 88 76 75 69 40 23 11 10 6 5 4 3 2 2 2 1 1 2 2 3 5 6 6 7 8 11 14 20 20 24 20 19 13 15 18 21 25 98 67 76 85
100 100 79 90 94 72 75 65 46 26 12 10 7 5 4 3 2 2 2 1 1 2 2 3 5 7 7 8 10 14 17 23 30 27 28 20 14 11 16 18 20 31 100 64 91
100 96 93 89 98 68 80 67 48 30 16 10 8 6 4 4 2 2 2 2 2 2 2 4 4 8 8 9 9 12 15 20 28 26 29 24 16 11 14 16 17 20 71 95 73
100 100 95 85 92 79 80 68 47 43 20 10 9 6 3 4 3 2 2 2 2 2 2 4 4 9 9 7 8 10 13 20 23 30 35 20 16 9 16 17 18 21 24 94 99
100 100 95 94 91 79 78 68 51 40 28 12 10 6 3 3 3 2 2 2 2 2 3 3 4 6 9 8 9 10 15 20 24 31 29 20 17 13 15 19 22 22 23 21 74
100 100 95 96 86 84 81 72 60 43 32 12 11 8 5 4 4 3 3 2 2 2 4 4 4 6 11 11 10 13 17 19 23 32 23 16 19 16 17 19 20 21 19 23 23
100 100 95 99 85 83 80 70 62 48 37 13 11 8 6 5 5 4 3 3 2 2 3 3 4 8 12 12 10 11 14 17 20 23 20 18 22 21 21 18 20 22 20 22 24
100 100 90 95 88 82 77 76 58 48 36 19 14 10 6 5 6 5 4 4 3 2 4 4 4 7 12 13 11 11 13 16 15 14 20 23 23 32 22 27 22 20 21 21 22
100 100 94 94 89 83 81 82 62 49 42 25 13 10 8 6 6 6 5 5 5 4 3 6 6 7 12 13 12 12 12 15 16 16 20 28 27 32 28 31 26 22 22 22 20
100 100 100 98 91 86 82 82 67 51 53 34 15 10 8 8 7 7 6 5 6 6 5 7 10 14 15 15 14 12 13 14 14 15 15 15 18 25 34 28 26 22 23 23 22
100 100 100 96 97 82 83 84 65 56 57 37 23 10 6 8 9 8 7 7 6 8 7 6 9 12 13 16 16 14 13 13 14 15 15 15 15 17 28 28 28 26 24 24 23
100 100 95 92 98 78 79 86 64 64 60 38 30 13 6 7 8 11 9 7 8 9 10 9 9 12 15 16 15 14 14 14 16 16 15 15 14 16 17 19 23 27 24 24 23
100 100 99 92 87 86 78 89 61 67 59 43 34 17 9 7 8 10 12 10 8 8 10 11 11 11 13 18 20 18 16 15 15 16 15 14 15 16 17 17 16 18 22 24 28
100 100 100 94 78 88 78 92 68 66 53 44 37 27 14 8 8 9 11 12 10 9 9 12 12 13 13 15 18 20 20 18 16 16 17 16 17 16 18 17 17 17 16 20 26
100 100 100 91 78 87 86 88 67 61 53 48 39 34 22 11 9 9 10 11 12 10 9 10 11 14 15 18 19 18 18 20 21 20 19 18 18 18 17 17 16 18 20 24 24
100 100 100 93 85 83 84 97 68 62 50 46 44 40 36 17 10 12 12 10 12 12 11 11 11 16 17 16 17 19 20 22 24 22 21 20 18 18 18 18 18 19 21 23 22
100 100 100 91 87 87 90 97 74 61 52 45 40 43 39 32 14 12 13 12 14 13 11 11 12 11 15 18 18 16 18 21 22 23 26 21 21 17 19 19 19 19 19 20 21
100 100 99 92 98 88 96 98 76 63 54 47 42 38 50 44 25 16 11 11 11 13 12 11 11 12 14 15 20 22 19 19 21 22 25 29 26 21 21 19 18 16 18 18 19

GFSSW_250_rhum_081.txt.gz
RH
63 63 59 67 60 46 43 42 40 28 15 8 7 6 5 3 2 2 2 2 2 2 2 2 2 2 2 3 4 7 9 16 20 16 13 56 100 100 86 100 100 99 93 100 100
73 66 84 74 69 46 45 40 43 33 19 9 8 6 5 3 2 2 2 2 2 2 2 2 2 2 2 4 4 6 8 17 22 17 13 16 78 100 87 100 100 100 96 92 100
72 59 76 73 70 49 51 42 46 44 26 9 8 6 5 2 2 2 2 2 2 2 2 2 2 2 2 3 4 5 9 17 22 19 15 13 17 100 100 91 87 100 100 82 100
72 67 56 77 76 56 62 46 50 40 26 10 8 6 5 3 2 2 2 1 2 1 2 2 2 2 3 3 4 6 8 16 22 22 16 13 15 25 98 100 98 100 100 94 93
53 60 64 70 79 69 64 56 57 41 25 12 7 5 5 3 2 2 2 2 1 1 2 2 2 3 3 4 5 6 9 14 20 26 20 15 15 16 60 91 100 100 100 100 84
44 51 65 72 84 89 75 70 59 40 25 11 8 5 4 2 2 3 2 2 1 1 1 2 2 3 3 4 5 7 12 15 21 26 26 19 15 14 27 40 63 100 100 100 84
55 60 74 81 90 98 82 76 54 48 26 11 8 6 4 3 2 3 2 2 1 1 2 2 2 3 4 4 6 7 11 16 22 28 37 22 18 16 27 100 62 65 95 100 100
64 67 78 82 91 95 82 78 63 53 25 13 8 7 4 3 2 3 2 2 1 1 1 2 2 4 4 5 6 6 8 13 19 22 27 21 20 20 16 50 99 62 38 96 100
64 71 82 88 100 91 83 79 66 51 32 13 9 7 4 4 3 3 2 2 1 1 2 2 2 4 5 5 7 8 9 15 18 22 32 26 19 20 17 19 43 79 48 45 100
64 77 93 87 100 93 84 84 72 53 33 12 7 8 5 4 4 3 2 2 1 1 2 2 2 4 6 6 7 7 8 10 12 15 19 24 15 20 20 21 18 19 72 25 69
82 84 95 97 100 97 94 82 81 50 38 13 8 6 4 5 3 3 2 2 1 1 2 2 3 5 8 7 8 8 8 10 14 14 16 20 12 19 20 19 21 19 28 56 27
91 85 89 94 100 99 95 82 77 57 41 15 9 6 3 4 4 4 2 2 1 2 2 3 3 5 9 7 8 9 9 10 15 16 19 18 23 16 21 18 18 22 21 51 37
93 100 95 100 100 100 95 83 75 61 48 18 10 6 4 4 3 3 2 2 1 2 2 2 3 7 10 8 9 10 9 13 15 17 14 17 22 22 15 17 22 21 22 21 65
100 100 100 100 100 100 92 87 73 61 53 20 13 8 5 4 3 3 2 2 2 2 2 2 4 6 10 9 8 11 11 11 18 20 14 14 20 16 17 13 19 21 21 22 22
100 100 100 100 100 100 92 85 76 63 55 24 14 9 5 4 4 4 3 2 2 2 2 3 4 5 9 10 9 9 10 10 15 20 16 17 18 18 14 13 13 19 20 20 23
100 100 100 100 100 100 95 87 78 64 53 33 17 10 6 5 4 3 4 3 2 2 3 3 4 5 7 12 11 10 11 12 14 19 18 18 20 17 18 12 15 17 20 20 19
98 100 100 100 100 99 92 86 73 74 48 39 17 12 6 5 4 4 4 3 3 3 3 4 4 5 7 13 12 12 12 16 18 15 18 19 22 18 16 17 20 19 17 21 20
100 100 100 100 100 100 94 90 74 64 50 47 18 14 7 6 5 5 5 4 4 3 3 4 5 6 7 13 14 12 13 16 16 17 18 20 22 21 26 19 21 18 20 22 23
100 100 100 100 100 100 96 92 78 65 54 54 21 15 10 7 5 6 7 5 4 6 4 4 5 6 9 14 16 14 13 15 13 15 16 19 22 21 18 19 23 23 21 21 21
100 100 100 100 100 100 93 84 81 60 62 52 26 15 12 9 6 5 6 7 6 5 7 4 6 9 10 14 15 14 12 13 14 14 16 18 18 20 23 22 30 31 27 23 24
100 100 100 100 100 100 98 80 82 58 64 53 36 18 13 11 8 7 6 7 8 6 7 9 7 7 12 14 15 15 13 13 14 15 15 16 18 23 22 18 20 26 28 26 25
100 100 100 100 100 100 96 80 76 60 67 53 45 23 14 11 10 10 7 8 8 8 8 10 10 11 9 12 15 17 16 15 14 15 15 16 17 19 19 18 17 19 26 30 31
100 100 100 100 100 99 99 82 72 65 64 52 48 33 17 12 9 9 10 9 9 9 9 9 12 13 13 12 13 14 16 17 16 15 16 16 18 17 17 16 16 16 17 26 35
100 100 100 100 100 100 100 84 69 65 67 58 53 37 24 14 9 8 12 11 10 9 10 9 9 12 14 18 19 16 16 16 18 18 18 17 16 18 17 16 17 17 18 21 21
100 100 100 100 100 100 98 83 73 66 71 62 52 40 29 18 17 10 13 13 12 12 10 10 10 9 11 15 16 20 22 21 21 17 17 16 16 16 18 17 16 18 21 22 20
100 100 100 100 100 100 98 92 72 66 74 62 47 43 33 30 25 16 11 12 13 13 13 10 9 10 9 10 14 18 18 20 23 23 22 18 19 15 16 18 20 18 18 20 20
100 100 100 100 100 100 99 85 76 72 77 70 43 47 39 36 35 23 16 11 13 14 13 14 13 10 10 10 12 13 16 19 20 22 25 25 20 20 20 19 19 18 19 19 20

GFSSW_250_rhum_084.txt.gz
RH
100 97 71 70 48 37 35 35 55 58 36 27 14 11 8 5 5 4 3 2 2 1 2 2 2 2 2 3 5 5 5 5 9 15 23 27 22 22 34 78 100 100 98 100 100
100 84 62 38 36 32 28 40 61 52 35 25 14 11 8 6 5 4 3 2 2 2 2 2 2 2 2 4 4 5 5 6 8 16 18 29 23 22 30 72 99 100 97 100 100
100 79 59 36 29 28 25 39 58 46 32 26 13 10 7 5 4 3 2 2 2 2 2 2 2 2 2 3 4 4 6 7 8 13 17 28 28 38 24 55 100 100 99 100 100
74 78 44 37 30 27 27 34 58 54 31 26 14 8 7 5 4 2 2 2 2 2 2 2 2 2 2 3 4 4 7 8 9 12 16 23 27 35 52 59 100 100 100 82 100
79 58 46 36 29 26 33 39 58 54 33 30 14 9 8 6 4 3 2 2 2 2 1 2 2 2 2 3 3 4 6 10 10 11 14 20 27 32 100 56 100 100 100 93 93
57 57 40 27 29 29 43 49 64 51 32 31 14 9 9 7 5 3 1 2 2 2 1 1 2 2 2 3 4 5 7 11 14 13 14 18 28 36 100 100 100 100 100 99 59
36 31 32 25 27 31 46 67 66 44 35 27 14 8 9 9 5 2 2 2 2 2 1 1 2 2 3 3 4 5 6 11 16 12 13 17 24 29 100 100 100 100 100 100 91
31 26 28 24 30 43 48 68 69 47 34 23 12 8 9 9 4 2 2 2 2 2 1 1 2 2 3 4 4 5 7 9 12 12 13 13 23 28 28 100 100 100 100 100 100
28 30 27 28 41 59 69 80 80 44 41 23 11 9 8 8 4 3 2 2 2 2 1 1 2 2 3 5 5 5 6 8 9 8 19 9 18 25 29 41 100 100 100 100 100
25 34 32 40 52 72 76 89 73 43 46 25 10 9 7 6 4 3 2 2 2 2 1 2 2 2 3 5 5 5 7 8 8 9 12 15 17 24 31 28 56 100 100 100 100
41 35 46 57 60 80 80 95 67 68 50 22 11 9 6 6 4 3 2 2 2 1 1 1 2 2 3 6 6 6 9 11 11 10 12 25 16 23 28 31 25 100 71 47 100
42 35 47 53 65 91 92 93 72 77 62 23 11 9 8 5 4 3 3 3 2 1 1 2 2 3 4 6 7 8 9 12 14 11 12 19 23 18 26 32 29 33 100 72 51
32 40 48 49 80 93 93 95 77 82 57 24 13 10 10 5 5 4 3 3 2 1 2 2 2 4 4 7 8 12 10 14 17 15 16 28 19 16 17 25 30 27 28 98 68
35 31 60 60 85 100 94 100 92 85 58 31 16 12 12 4 5 4 4 3 2 2 2 2 3 4 5 8 9 8 9 12 13 17 15 15 20 19 16 18 25 30 26 26 97
28 37 48 86 96 100 96 100 95 78 70 29 16 13 10 5 6 4 4 3 2 2 2 2 4 4 5 7 10 9 10 11 11 14 18 16 15 19 17 12 19 29 35 29 25
28 45 70 93 88 94 100 96 84 91 82 42 17 13 9 5 5 4 4 3 2 2 2 2 4 5 6 7 10 8 10 11 10 12 15 12 11 14 16 13 14 18 24 30 26
38 71 92 100 84 98 100 100 94 90 78 48 17 15 9 5 5 4 4 4 3 2 2 3 4 5 8 10 11 9 9 9 12 12 13 11 11 14 13 15 12 10 18 26 32
53 87 100 100 80 100 100 100 93 86 83 53 23 16 11 7 5 4 4 4 3 3 3 3 5 6 8 11 14 13 10 10 11 10 11 12 13 11 12 13 11 12 11 15 23
71 86 100 88 90 100 100 88 90 88 87 64 29 15 12 8 4 4 4 4 4 4 3 4 5 6 9 11 15 16 14 13 12 12 12 13 14 14 14 19 18 18 14 18 23
77 100 100 87 100 100 100 98 91 84 84 65 32 17 13 8 5 5 5 5 6 5 6 5 5 6 9 14 17 17 16 14 12 12 14 15 14 13 17 19 18 19 17 16 17
95 100 87 93 100 100 100 100 90 85 78 69 40 20 13 10 6 5 5 6 6 6 6 8 7 5 7 12 18 19 19 17 15 12 11 12 16 17 17 17 18 15 15 15 14
100 98 86 100 100 100 96 96 88 89 69 70 39 23 15 10 9 6 6 6 6 7 7 7 9 10 9 8 11 14 16 16 16 15 13 14 16 17 15 15 17 16 15 17 21
100 72 100 100 100 100 90 100 90 89 63 70 48 28 18 13 10 9 9 7 6 7 8 8 7 11 12 11 11 11 14 15 15 14 14 14 17 17 16 15 17 19 19 18 20
98 86 100 100 100 95 93 100 92 86 62 66 58 33 23 16 11 14 11 12 9 8 8 8 8 8 9 13 14 16 16 18 18 18 16 15 15 15 16 18 18 19 20 21 21
78 100 100 100 100 94 98 100 95 78 63 66 51 40 26 19 17 16 14 10 10 10 8 10 10 9 8 9 12 16 18 20 19 19 20 18 16 15 15 15 15 17 19 19 18
100 100 100 100 99 91 98 100 94 78 66 63 51 40 32 23 21 19 15 12 11 12 11 10 10 12 11 10 10 12 14 18 20 21 21 19 20 18 16 15 14 16 18 18 18
100 100 100 100 89 93 98 99 92 81 68 64 59 41 36 35 27 23 21 17 15 14 13 13 12 9 10 10 10 10 10 13 17 18 21 23 22 21 20 19 17 15 13 15 20

GFSSW_250_rhum_087.txt.gz
RH
61 56 75 90 86 100 94 92 56 53 37 25 23 22 16 10 8 7 8 4 4 3 2 2 1 1 1 1 2 2 2 2 4 5 11 22 28 26 21 39 40 97 100 100 60
72 72 92 100 83 86 100 92 70 46 31 27 22 21 15 11 6 8 5 4 3 2 2 2 1 1 2 2 2 2 3 4 5 10 12 20 45 26 26 33 57 89 100 100 97
90 74 77 100 100 69 98 74 58 51 32 26 22 20 16 11 7 9 5 3 3 2 2 1 1 1 2 2 2 3 4 4 7 10 11 18 30 35 33 33 70 100 88 100 100
87 71 92 100 100 100 100 77 46 39 33 26 24 18 15 8 9 8 5 3 2 2 2 1 2 2 2 2 2 3 4 6 6 9 10 16 24 89 47 64 70 100 99 100 100
100 75 100 100 100 97 82 66 52 33 31 24 27 18 12 6 11 7 4 2 2 2 1 2 2 2 2 2 2 4 4 6 7 10 10 14 25 89 63 72 78 100 99 86 100
96 100 100 100 95 85 57 55 41 34 26 25 32 16 11 9 10 6 3 2 2 2 1 2 2 2 2 2 3 4 4 5 7 10 11 15 24 34 100 68 77 100 100 96 95
59 54 100 92 85 64 43 47 35 31 27 31 32 14 8 10 10 7 4 2 2 2 2 2 1 2 2 2 3 3 3 4 9 11 13 15 23 36 68 100 74 100 100 100 83
44 49 44 70 60 53 34 32 29 29 30 34 29 11 8 10 8 5 3 2 2 2 2 2 1 2 2 2 3 4 4 6 12 12 11 14 18 33 42 100 88 100 100 100 98
24 34 32 38 35 39 36 33 28 40 38 38 27 9 9 9 8 6 3 3 2 2 2 2 1 2 2 2 4 4 5 6 9 12 14 16 18 23 40 99 100 100 100 100 100
18 18 20 23 31 33 36 32 32 46 38 40 22 12 8 10 8 5 3 2 2 2 2 1 1 2 2 2 4 5 6 7 11 12 14 21 20 29 37 46 100 100 100 100 100
11 12 15 21 30 33 34 30 37 54 40 43 18 11 9 8 8 4 3 2 2 2 2 1 1 2 2 3 5 8 7 8 11 20 28 35 30 20 32 43 44 100 100 100 100
10 11 15 24 33 35 38 42 40 58 42 43 18 8 12 10 8 4 3 2 3 2 2 1 2 2 3 4 5 6 6 7 10 10 13 14 27 33 22 33 44 97 100 100 100
9 10 11 24 54 54 65 48 53 60 48 37 17 9 13 11 7 4 3 2 2 2 2 1 2 2 4 4 5 7 7 8 11 11 13 17 24 23 17 27 41 67 100 100 100
9 12 11 42 66 75 84 67 69 56 42 27 16 10 13 12 6 4 3 2 2 2 2 2 2 3 4 5 7 8 8 9 10 12 12 12 17 12 22 21 36 44 64 100 100
10 12 18 58 69 100 90 76 76 56 48 25 13 13 15 12 6 4 3 2 3 2 2 2 2 4 5 5 7 10 9 11 14 11 12 12 13 16 15 20 24 38 43 87 100
9 13 33 63 100 100 99 100 85 49 61 24 12 14 15 11 6 4 3 3 3 2 2 2 2 4 5 5 7 11 11 11 13 13 12 11 11 15 13 14 17 28 42 42 100
10 13 44 91 100 100 100 100 77 54 64 21 16 14 16 12 6 4 3 3 3 2 2 2 3 4 5 6 7 9 12 14 14 13 10 10 10 14 15 11 12 21 34 42 40
11 17 52 100 100 100 100 97 75 68 73 27 19 13 17 12 6 4 3 3 4 3 2 3 3 4 5 6 8 10 10 12 12 8 8 9 9 14 14 14 14 14 23 35 43
10 24 96 100 100 100 100 100 74 85 68 32 20 13 17 11 6 4 4 3 4 4 4 3 3 4 6 9 10 14 12 10 10 8 9 12 10 9 14 19 17 12 13 24 36
12 70 100 100 100 100 98 100 86 84 68 41 25 15 17 10 6 5 4 4 4 5 5 4 4 4 6 11 16 18 16 13 11 10 10 11 10 9 9 13 14 14 14 16 23
26 89 100 100 100 97 100 100 93 76 83 61 29 22 16 11 5 5 4 6 5 6 7 7 6 5 5 9 14 20 21 17 13 11 12 13 14 14 12 10 12 15 17 15 15
49 100 100 100 100 98 100 100 89 79 83 64 34 24 15 12 6 6 6 6 6 6 7 8 9 9 8 6 8 12 17 23 21 17 13 14 16 16 11 11 10 14 15 16 16
100 100 100 100 93 100 100 100 82 86 83 59 41 26 18 12 7 6 7 7 7 9 8 8 8 10 13 11 8 8 10 12 14 15 16 15 15 14 15 14 13 13 14 14 16
100 100 100 100 100 100 100 99 84 84 74 69 42 28 22 15 9 7 7 9 7 8 9 10 10 9 12 14 18 16 13 14 16 16 14 14 13 12 14 14 14 14 14 14 14
100 100 100 98 100 100 100 92 84 86 70 69 45 32 25 20 14 11 7 10 10 8 9 9 10 10 10 11 16 18 22 20 16 16 17 16 14 13 14 14 14 14 13 14 15
100 100 100 100 100 100 100 88 85 77 70 69 52 35 29 23 18 22 18 19 16 10 11 10 10 11 11 11 12 16 19 22 25 25 22 20 20 16 16 16 17 18 17 16 16
100 100 100 100 100 100 97 89 84 74 70 68 59 38 35 30 22 21 23 28 30 22 17 15 16 14 13 15 14 11 11 12 16 22 27 29 24 25 22 20 20 20 20 19 16

GFSSW_250_rhum_090.txt.gz
RH
79 66 54 76 72 71 54 69 76 62 50 58 68 100 93 50 40 30 18 11 10 12 10 7 4 3 2 2 1 1 1 1 1 1 2 4 5 5 8 16 22 64 100 100 100
100 98 87 62 99 80 77 72 99 91 79 64 64 95 87 57 37 22 14 8 11 10 7 4 3 2 2 1 1 1 1 1 1 2 3 4 6 8 10 15 24 100 99 100 100
98 95 97 98 98 91 76 90 100 100 94 72 62 87 77 65 34 21 11 8 10 6 4 3 3 2 1 1 1 1 1 2 2 3 4 5 7 8 12 15 38 75 100 100 100
83 98 68 71 71 64 63 80 75 100 90 94 82 67 79 52 34 21 10 10 10 5 3 3 2 1 1 1 1 1 2 2 2 4 5 6 8 9 15 20 36 44 95 100 100
53 44 41 39 54 54 51 55 50 57 63 57 68 69 58 35 31 24 9 11 8 4 3 2 2 1 1 1 2 2 2 3 3 4 10 10 10 12 19 31 41 63 72 100 100
30 29 24 30 31 38 44 44 39 40 43 47 50 47 44 26 22 17 11 12 5 4 3 2 2 1 1 2 2 2 2 2 3 5 9 11 13 15 26 50 91 100 94 99 100
10 9 10 14 26 27 32 32 32 28 34 42 43 39 34 25 14 11 12 9 4 4 2 2 2 2 2 2 2 2 2 2 3 7 11 12 18 21 29 99 100 100 100 100 100
10 10 10 9 10 15 22 23 21 30 32 31 34 24 18 17 13 11 12 5 4 2 2 2 2 2 2 2 2 2 2 2 3 6 10 10 20 21 33 100 100 100 100 100 100
10 10 9 8 10 13 12 18 18 23 26 26 20 20 17 13 13 12 10 6 3 2 2 2 2 2 2 2 2 2 2 3 3 5 12 18 18 19 33 86 100 100 100 100 100
10 10 10 7 10 10 12 14 17 21 24 22 18 16 13 12 13 13 8 5 2 2 2 2 2 2 2 2 2 3 3 3 4 5 7 9 21 22 27 93 100 100 100 100 100
10 10 8 9 10 11 11 14 15 19 24 20 16 13 11 13 14 9 7 3 3 2 2 2 2 2 2 2 2 3 4 4 5 5 14 18 22 20 28 93 100 100 100 100 100
11 10 9 9 10 11 12 12 16 25 39 24 16 10 14 12 13 8 5 3 3 2 2 2 2 2 2 2 3 3 4 6 6 6 23 19 24 27 29 40 100 100 100 100 100
9 10 9 9 11 11 12 13 40 62 41 37 16 13 13 15 9 6 3 3 3 2 2 2 2 2 2 2 3 4 6 7 6 11 19 26 21 27 34 43 98 100 100 100 100
8 11 8 10 12 12 12 51 61 84 60 42 18 16 16 13 9 5 3 3 2 2 2 2 2 2 3 3 4 5 6 6 8 14 24 16 19 22 36 41 51 100 100 100 100
6 10 8 14 12 11 29 89 100 94 65 38 17 13 16 11 8 5 3 3 2 2 2 2 2 2 3 4 6 6 6 8 11 19 26 25 26 44 58 45 56 99 100 100 100
6 7 11 11 13 23 76 100 100 100 90 29 13 18 15 11 6 5 3 3 2 3 2 2 2 2 3 5 6 7 7 9 14 17 26 22 28 36 64 41 46 52 92 100 100
5 6 11 12 15 56 88 100 100 100 68 24 16 16 13 9 6 4 3 3 3 3 2 2 2 2 4 5 7 7 9 12 13 13 14 15 14 24 39 45 36 36 52 97 100
4 7 9 11 45 82 100 100 100 100 60 19 18 17 11 7 6 3 3 2 3 3 3 2 3 4 5 6 8 10 10 14 15 16 17 16 14 18 26 33 33 32 50 51 100
5 6 10 38 67 100 100 100 100 99 47 20 15 20 12 7 5 3 3 2 3 3 3 3 3 4 5 6 7 10 13 16 15 17 17 15 16 24 22 21 26 24 34 46 56
4 6 11 46 89 100 100 100 100 89 40 19 13 21 13 8 5 3 3 3 3 4 4 4 4 4 6 6 7 8 11 12 12 12 12 13 13 18 21 18 15 16 24 31 40
5 9 35 55 100 100 100 100 100 81 36 22 14 20 14 9 5 4 4 3 3 4 5 5 5 5 6 8 11 11 12 13 13 12 10 11 12 13 15 14 14 14 12 17 33
7 10 41 100 100 100 100 100 98 74 39 28 21 17 16 9 5 4 4 4 4 4 5 6 7 7 7 8 14 16 18 19 16 15 14 13 12 12 14 14 15 15 14 10 14
9 21 73 100 100 100 100 100 93 81 49 36 34 17 15 10 7 5 4 5 5 6 7 7 7 9 10 9 11 14 20 21 20 17 16 16 16 14 14 14 16 18 16 16 14
17 57 97 100 100 100 100 100 96 78 52 50 36 21 17 11 8 7 7 8 7 7 8 8 9 8 10 12 17 20 19 18 17 17 16 16 16 15 17 16 15 14 16 20 22
58 95 100 100 100 100 100 97 95 72 59 55 33 25 20 14 10 8 6 7 11 11 11 11 12 12 11 10 11 14 16 23 24 25 23 20 19 21 20 18 16 16 15 14 13
83 100 100 100 100 100 99 93 87 73 70 55 33 29 21 19 15 13 12 10 11 11 16 19 18 14 16 17 15 13 12 13 18 22 26 31 26 24 24 22 20 20 19 19 20
97 100 100 99 100 100 99 89 81 78 74 54 36 30 25 25 23 24 22 22 22 23 25 28 24 21 19 17 18 18 19 20 16 13 14 16 17 20 22 24 24 20 16 13 12

GFSSW_250_rhum_093.txt.gz
RH
65 91 97 67 97 100 93 80 63 91 81 68 64 74 72 52 55 50 50 34 21 18 16 21 14 11 8 7 4 3 2 2 3 3 4 4 5 5 5 4 4 6 8 19 100
40 46 96 100 99 100 96 85 78 64 86 71 71 72 73 52 44 38 31 26 18 11 16 14 10 10 8 5 4 2 2 2 2 2 2 3 2 2 2 3 3 5 8 17 29
22 23 54 69 57 61 67 64 44 38 62 56 62 51 42 41 39 29 23 17 11 11 12 10 10 7 6 4 3 3 3 2 2 2 1 2 2 2 2 2 3 6 10 22 43
12 12 15 23 37 36 44 51 64 30 32 45 49 42 35 34 28 25 22 14 9 10 9 10 8 5 4 3 2 2 2 2 1 1 1 1 1 2 2 3 4 10 13 23 98
13 11 11 13 13 15 19 20 25 20 21 40 41 30 22 24 24 22 16 11 10 10 8 10 6 4 2 2 2 2 1 1 1 1 1 1 1 2 2 3 6 14 59 29 100
16 12 11 10 9 9 10 11 13 15 14 20 26 24 14 31 20 18 10 9 9 9 8 7 6 2 3 2 2 1 1 1 1 1 1 2 2 3 3 5 8 16 98 98 97
14 13 13 11 10 10 10 8 7 9 10 11 13 11 15 17 14 13 8 8 8 8 7 6 4 4 2 2 1 1 1 1 2 2 3 3 4 5 6 8 13 19 86 66 100
14 12 11 10 9 9 8 7 8 6 6 7 7 9 10 11 11 8 8 7 7 6 5 4 4 3 2 2 1 2 2 2 2 2 3 3 6 7 8 10 15 29 56 38 95
21 11 10 10 9 9 6 8 8 6 6 7 8 10 9 9 8 7 7 7 8 6 4 4 2 2 2 2 2 2 2 2 2 2 3 4 5 8 15 20 23 60 100 58 96
18 13 10 9 8 9 7 8 8 6 7 8 10 8 8 6 6 6 7 8 8 5 5 3 2 2 2 2 2 2 2 2 2 3 3 4 6 8 21 31 30 100 94 100 100
5 9 8 9 7 8 7 9 7 6 9 12 9 9 6 5 6 7 8 9 6 6 4 2 2 2 2 2 2 2 2 2 3 4 4 4 7 12 20 35 36 100 100 100 100
3 4 5 7 7 8 9 8 9 10 12 10 10 7 5 5 8 11 8 7 7 5 3 3 2 2 2 2 2 2 2 3 4 4 4 4 8 16 24 51 59 100 100 100 100
2 2 4 6 7 8 10 10 11 14 13 14 7 5 5 9 12 8 7 7 5 3 3 2 2 2 2 2 2 2 3 4 5 5 8 8 11 16 31 78 96 100 100 100 100
1 2 3 6 8 10 9 12 14 15 16 17 9 10 13 14 10 8 7 6 3 2 2 2 2 2 2 2 2 3 3 4 4 6 8 7 9 18 32 74 100 100 100 100 100
1 2 3 5 8 8 11 12 13 16 15 13 14 16 19 15 8 9 6 3 2 2 2 2 2 2 2 2 3 4 4 5 6 8 11 11 11 16 25 50 100 100 97 100 100
1 2 3 7 6 9 11 12 35 32 15 21 22 25 19 11 10 6 3 2 2 2 2 2 2 2 2 3 4 6 6 6 10 14 10 12 14 20 27 42 100 100 100 100 100
2 2 4 5 6 10 13 44 73 17 24 31 40 24 18 12 7 3 2 2 2 2 2 2 2 2 3 4 5 8 9 9 11 17 20 16 18 21 26 35 68 100 100 100 100
2 2 5 6 8 12 59 88 36 30 39 55 33 21 16 9 4 2 2 2 2 2 3 2 2 3 3 4 6 10 11 16 25 28 21 25 24 25 26 28 44 100 100 100 100
2 4 5 6 10 49 100 70 45 51 63 43 29 17 10 5 3 3 2 2 2 2 2 2 3 3 4 6 8 8 11 15 23 23 22 26 28 32 38 31 38 98 100 100 100
5 6 8 7 35 85 74 64 60 65 51 36 23 14 7 4 3 3 2 2 2 3 3 3 3 3 5 6 9 10 14 20 28 20 20 21 30 38 40 33 39 42 100 100 100
6 6 8 29 53 73 81 66 75 65 44 29 17 10 5 4 3 3 2 2 3 3 3 3 4 5 5 7 8 10 12 16 20 28 20 18 26 38 44 35 33 35 50 100 100
6 11 23 48 63 78 73 78 85 52 35 22 16 10 7 5 4 2 3 3 3 4 5 4 5 6 7 8 9 12 14 15 12 13 16 19 18 25 24 39 52 36 33 51 100
10 22 38 62 86 81 82 84 64 44 28 22 16 9 8 6 4 3 3 4 4 4 4 6 6 6 7 9 12 14 17 20 19 17 15 15 16 16 16 19 21 32 42 35 38
14 42 61 83 95 89 85 71 53 42 28 21 16 10 8 7 5 4 4 4 5 6 6 6 6 8 8 9 11 14 18 19 20 23 23 22 24 25 24 24 21 20 15 17 27
30 54 69 92 100 88 75 63 54 38 31 24 17 12 11 8 6 5 6 6 7 9 10 9 10 11 11 11 12 13 12 14 18 22 23 24 24 27 29 30 32 32 30 26 22
79 74 93 99 90 86 69 67 52 40 34 29 21 17 16 14 12 8 8 9 9 11 13 16 15 17 17 16 16 16 15 16 19 19 17 16 17 19 21 26 27 30 33 30 22
82 91 94 92 98 83 74 65 49 41 40 34 28 23 22 20 19 16 16 18 19 19 19 20 19 19 24 25 28 23 25 25 23 22 20 18 20 22 21 19 18 17 17 16 15

GFSSW_250_rhum_096.txt.gz
RH
18 24 28 29 31 42 50 47 38 31 31 48 43 40 61 48 44 55 45 38 34 36 27 23 16 12 9 15 15 10 6 8 8 7 6 5 5 10 9 5 4 5 10 12 10
22 19 16 17 18 22 20 18 14 18 23 31 33 33 44 42 47 33 43 34 27 27 30 17 10 8 11 14 9 6 5 7 6 5 4 4 4 6 5 5 4 5 8 11 10
23 24 24 13 10 12 12 11 11 11 13 19 28 22 36 36 30 27 30 19 19 20 20 14 10 6 11 11 7 6 6 4 5 4 3 3 3 4 4 4 5 5 8 9 9
31 29 23 21 14 11 10 11 10 11 10 11 12 15 22 32 20 23 26 20 14 14 14 8 6 6 9 8 6 5 4 3 4 3 2 2 2 3 4 5 5 6 7 9 8
47 32 28 23 17 12 10 10 8 9 6 7 9 9 9 11 12 14 14 13 10 11 8 5 7 7 8 6 5 4 3 3 2 2 2 2 2 2 3 4 4 5 6 7 9
72 37 25 25 21 12 10 9 8 8 8 7 6 7 7 6 7 8 9 8 7 7 5 5 5 6 7 5 3 2 2 2 2 2 1 1 1 1 2 2 2 4 6 7 10
44 32 25 15 18 11 12 9 8 8 9 8 6 6 4 4 6 6 6 6 5 4 5 6 6 5 5 4 3 2 2 1 1 1 1 1 1 1 1 2 2 3 6 8 20
20 21 20 14 12 10 10 8 8 7 9 10 7 5 5 5 5 4 4 4 4 4 6 6 5 4 4 4 3 2 2 1 1 1 1 1 1 1 1 2 2 3 6 8 21
14 12 14 13 11 9 8 7 7 7 8 8 6 5 5 5 4 4 4 3 4 5 5 4 4 4 3 2 2 1 1 1 1 1 1 2 2 2 2 2 3 4 7 13 19
7 6 7 9 9 10 8 7 7 7 8 7 6 6 6 4 4 4 3 4 5 5 4 4 4 3 2 2 2 1 1 1 2 2 2 2 2 2 3 3 5 5 10 13 86
4 3 3 5 6 9 7 7 7 7 6 7 8 7 5 5 4 3 5 5 4 4 4 3 2 2 2 2 2 2 2 2 2 2 2 2 3 3 4 6 6 6 14 24 100
2 2 2 2 4 5 6 6 9 8 7 9 8 6 5 4 4 5 6 5 5 5 3 2 2 2 2 2 2 2 2 2 2 2 2 3 3 4 6 9 9 15 18 73 100
2 1 1 2 2 3 5 9 10 8 10 9 8 7 5 5 5 5 6 5 4 3 3 2 2 2 2 2 2 2 2 2 2 2 4 4 4 5 8 9 12 28 98 100 100
1 1 1 2 2 3 5 10 9 10 12 9 7 5 8 12 8 6 4 4 3 2 2 2 2 2 2 2 2 2 2 2 3 4 5 5 5 6 10 15 19 32 78 100 100
1 1 2 2 2 2 6 8 9 11 9 7 6 10 17 10 6 5 4 3 2 2 2 2 2 2 2 2 2 2 3 3 3 5 6 6 7 11 16 20 30 76 100 100 100
1 1 1 1 2 3 6 7 10 10 7 7 19 24 10 6 5 4 3 2 2 2 2 2 2 2 2 2 2 3 4 5 6 6 7 8 8 8 17 21 40 88 100 100 100
1 1 1 2 2 5 6 9 9 7 11 35 22 13 7 6 5 3 3 2 2 2 2 2 2 2 2 2 3 5 7 7 9 9 7 9 10 14 17 29 94 100 100 100 100
1 1 2 2 5 6 7 8 8 27 34 22 16 10 9 6 4 3 2 2 2 2 2 2 2 2 3 3 4 7 8 12 14 12 15 14 16 17 21 28 45 96 100 100 100
2 2 2 5 6 9 8 11 32 35 29 20 13 9 6 4 3 2 2 2 2 2 2 2 2 2 4 4 7 8 11 20 20 24 23 18 19 31 29 38 51 98 100 100 100
2 3 5 7 9 8 18 35 40 30 20 12 8 5 4 3 2 2 2 2 2 2 2 2 2 3 5 6 8 8 15 20 24 22 27 29 25 35 37 35 47 74 100 100 100
5 6 10 8 11 27 45 44 27 18 12 8 6 4 4 3 2 2 2 2 2 2 2 2 3 4 4 6 10 15 16 24 24 30 32 42 36 41 52 54 64 53 100 100 100
7 10 11 14 34 48 41 23 16 12 9 7 6 4 4 3 2 2 2 2 2 3 2 3 4 4 6 9 10 13 18 22 24 23 27 36 50 45 52 61 54 60 74 100 100
13 12 17 39 48 38 23 19 14 12 10 7 6 6 4 3 3 3 3 3 3 3 4 4 4 5 7 7 10 11 16 17 16 19 24 23 27 39 34 44 66 84 69 96 100
24 22 42 48 32 26 22 19 17 14 11 9 7 5 4 4 4 4 4 4 4 4 5 6 5 6 10 10 12 14 17 20 20 21 27 29 27 27 25 24 39 52 75 86 100
36 34 43 31 28 26 23 19 16 14 12 10 8 6 6 6 6 7 6 6 6 6 6 7 7 7 10 10 13 16 18 18 20 22 22 25 30 28 33 32 29 22 42 63 100
45 45 38 35 29 27 27 24 21 17 13 11 8 8 8 8 10 11 12 11 10 10 11 11 11 12 12 11 10 13 15 14 16 17 17 18 20 19 20 25 29 32 24 26 51
39 41 42 36 30 30 32 29 28 25 20 17 14 12 11 12 12 11 13 17 18 18 18 16 16 18 20 23 23 21 20 19 20 21 21 22 20 18 22 22 18 19 16 17 18

GFSSW_250_rhum_099.txt.gz
RH
45 44 31 26 25 18 14 12 18 23 26 18 18 17 23 22 28 27 29 26 27 28 26 24 26 27 21 16 15 11 12 10 11 12 14 14 14 14 14 12 10 6 5 5 4
66 60 56 44 35 30 22 17 12 10 8 9 11 20 15 20 18 19 17 21 21 25 28 19 19 17 16 12 11 10 8 12 12 11 13 10 10 10 10 9 8 6 5 6 5
81 81 77 61 50 41 28 18 15 10 8 8 7 8 7 10 19 28 16 12 13 17 20 20 23 24 14 10 8 9 9 11 11 9 9 9 8 7 8 6 7 7 6 5 6
91 89 90 77 62 44 31 23 18 14 10 8 7 6 6 6 7 9 11 10 10 11 16 15 16 10 10 11 7 5 7 9 10 8 7 7 7 6 6 5 6 6 7 7 9
99 96 97 92 69 43 31 22 15 16 9 7 8 6 6 6 5 5 6 6 8 8 8 10 12 11 9 8 6 6 7 8 6 6 6 5 5 4 4 4 5 5 5 7 7
80 82 66 64 50 36 22 16 15 13 10 9 8 6 6 6 5 5 4 4 5 6 6 7 7 6 7 5 5 6 6 5 5 5 4 4 4 4 3 3 4 5 6 10 6
72 46 35 38 37 30 22 18 16 10 9 9 7 6 6 6 6 5 4 4 3 3 4 4 4 5 4 4 5 5 5 4 4 4 4 3 3 3 3 3 4 4 5 7 6
48 27 17 14 17 17 17 15 14 11 10 8 8 7 7 6 6 4 3 4 3 3 3 3 3 3 4 5 4 4 4 3 3 3 3 2 2 2 2 2 3 4 6 7 6
15 11 7 5 6 7 7 9 10 10 11 8 7 7 7 6 4 4 4 4 3 3 3 2 3 3 4 4 4 3 4 4 3 3 2 2 1 1 2 2 2 3 4 6 6
6 5 5 3 3 4 4 6 7 9 10 8 7 7 8 6 5 5 4 4 3 3 2 3 3 3 4 3 3 4 4 3 2 2 2 2 1 1 1 1 1 2 3 4 6
4 4 3 3 3 2 3 4 6 7 8 7 8 7 7 5 5 5 4 4 2 3 3 3 3 3 3 4 4 3 3 2 2 1 1 1 1 1 1 1 1 2 2 4 8
3 3 2 2 2 2 2 3 4 6 10 8 6 6 5 5 5 4 3 3 3 4 3 3 3 3 4 3 2 2 2 2 2 1 1 1 1 2 2 2 2 2 4 6 14
2 2 2 2 2 2 2 2 4 7 8 7 6 5 5 5 4 4 5 4 3 3 4 3 4 4 3 2 2 2 2 2 2 2 2 1 2 2 2 3 3 4 6 9 16
2 2 2 2 2 2 2 2 4 6 7 5 5 5 5 5 5 5 4 4 4 4 4 4 3 2 2 2 2 2 2 2 2 2 2 2 2 2 3 3 4 6 8 34 97
2 1 1 1 1 1 2 2 3 5 4 5 5 8 7 6 6 5 6 6 4 4 3 2 3 2 2 2 2 2 2 2 2 2 2 2 3 4 4 5 5 7 25 89 100
1 1 1 1 1 1 2 2 3 4 5 7 9 8 7 8 7 6 5 4 3 2 2 2 2 2 2 2 2 2 2 2 2 3 3 4 5 4 6 7 7 12 23 100 100
1 1 1 1 1 1 2 3 5 8 9 10 9 9 9 7 5 4 3 2 2 2 2 2 2 2 2 2 2 2 3 4 5 6 5 6 6 8 8 9 12 41 99 100 100
1 1 1 1 2 2 5 8 9 11 19 13 10 8 5 4 3 3 2 2 2 2 2 2 2 2 2 2 3 4 4 5 6 7 8 10 9 13 13 19 18 97 100 100 100
2 2 2 3 6 9 10 9 16 18 12 9 6 4 4 3 2 2 2 2 2 2 2 2 2 2 2 3 4 4 6 8 10 12 13 18 12 10 13 17 22 100 100 100 100
5 7 8 10 13 16 17 19 13 9 7 6 5 4 3 2 2 2 2 2 2 2 2 2 2 3 3 4 7 6 10 15 23 31 32 36 29 18 12 29 76 100 100 100 100
10 14 20 23 20 16 13 11 9 8 6 4 4 2 2 2 2 2 2 2 2 2 2 2 3 3 4 7 10 12 17 18 27 36 57 70 58 40 27 37 100 100 100 100 100
22 28 21 18 15 13 11 8 7 5 4 4 3 3 2 2 2 2 2 2 2 2 2 3 3 4 5 8 12 16 21 26 39 36 48 74 73 72 66 42 100 100 100 100 100
26 20 16 14 11 10 9 7 6 5 4 3 3 3 4 3 2 2 2 2 3 3 3 3 3 5 6 9 9 15 18 26 34 45 50 56 77 90 84 49 97 100 100 100 100
20 16 15 13 11 10 9 7 6 5 4 4 5 5 4 3 3 3 3 3 3 4 4 4 4 5 6 8 10 18 21 34 37 42 53 62 64 89 99 95 68 74 100 100 100
17 15 13 14 14 14 14 12 10 8 7 8 6 4 4 4 4 4 4 4 5 6 5 6 6 6 7 8 10 13 18 20 27 33 36 38 46 55 55 76 76 97 100 87 93
16 15 16 18 19 18 16 15 13 11 11 9 8 7 7 7 6 8 9 8 8 8 8 8 8 8 9 10 13 12 12 13 15 19 19 21 21 25 30 40 66 76 97 100 100
19 19 17 18 19 18 17 18 17 14 12 10 11 11 11 11 11 12 12 13 13 13 12 13 13 14 16 16 15 15 16 17 16 17 15 16 16 16 15 14 20 39 67 86 100

GFSSW_250_rhum_102.txt.gz
RH
62 92 99 89 78 50 52 34 30 22 16 12 12 9 9 14 12 14 19 37 49 39 26 31 28 33 23 17 12 9 13 18 17 10 11 13 14 16 17 19 20 19 22 24 11
87 87 79 100 100 86 74 66 50 36 23 17 13 10 8 7 7 10 11 22 30 36 26 21 19 26 29 26 22 17 16 11 9 9 10 10 12 15 15 15 18 19 21 17 13
100 99 98 92 100 93 80 84 67 51 34 20 14 11 8 7 6 7 8 11 17 19 15 18 17 17 19 21 20 17 22 12 12 10 9 11 11 13 13 14 14 15 16 14 11
100 100 100 94 99 100 90 84 78 57 36 26 17 11 9 6 7 6 6 6 6 7 8 9 12 14 17 15 14 15 17 13 12 11 11 11 9 12 12 14 12 12 13 12 9
100 100 100 100 100 94 94 72 56 55 36 25 19 15 12 7 7 6 6 5 5 5 6 7 8 10 10 11 11 12 12 12 12 10 8 7 8 8 10 11 10 11 11 9 10
100 100 100 100 100 100 77 70 40 31 27 16 19 13 12 8 6 6 5 5 5 4 4 5 5 6 8 8 10 8 9 11 10 9 8 6 8 7 8 9 7 8 8 9 10
100 100 100 93 84 54 42 38 21 16 15 15 16 12 12 8 6 5 5 5 4 4 4 4 4 4 5 6 6 6 7 8 8 8 8 6 7 5 5 5 5 5 6 8 8
44 26 30 23 19 17 14 12 9 9 9 12 12 12 9 7 6 5 5 5 4 4 4 3 3 3 4 5 5 5 5 5 6 6 5 3 5 4 4 4 5 5 6 6 7
7 8 8 9 9 8 8 6 5 4 6 8 10 10 8 6 5 5 5 5 4 4 3 3 3 3 4 4 3 4 4 4 4 4 3 3 3 4 4 4 5 4 5 5 8
4 4 5 7 6 6 5 4 4 4 4 6 8 9 8 6 5 6 6 5 4 4 4 4 3 3 2 2 3 3 3 3 3 2 3 3 3 4 4 4 4 3 4 4 8
3 3 3 5 4 4 4 4 3 3 3 4 6 7 6 7 6 6 6 5 4 4 3 3 2 2 3 3 2 2 2 2 3 3 3 3 3 3 3 2 2 2 3 5 7
2 3 3 3 3 3 3 3 2 3 3 3 5 6 6 6 6 5 5 4 4 3 3 3 2 3 3 2 2 3 3 3 3 3 3 3 2 2 2 2 2 2 2 4 6
2 2 2 2 2 2 2 3 2 2 3 4 4 6 5 5 4 4 4 4 4 4 3 2 3 2 2 3 3 4 4 3 3 3 3 3 2 2 2 2 2 2 2 2 5
1 1 2 2 2 2 2 2 2 3 3 4 5 4 4 4 4 4 5 4 4 3 3 3 3 2 3 4 4 4 4 4 3 2 2 2 2 2 2 2 2 2 2 2 5
1 1 1 1 1 1 2 2 2 2 3 4 4 5 4 4 5 5 5 4 4 4 3 3 4 4 4 4 4 3 3 2 2 2 2 2 2 2 2 2 2 2 3 5 6
1 1 1 1 1 1 1 2 2 3 4 4 5 5 5 6 6 5 5 5 4 4 6 5 5 4 4 3 2 2 2 2 2 2 2 2 2 2 2 2 3 4 4 10 10
1 1 1 1 1 1 2 2 3 4 4 5 5 6 6 6 8 10 8 6 5 5 5 5 3 2 2 2 3 3 2 2 2 2 2 3 3 4 4 4 4 6 11 25 66
1 1 1 1 2 2 2 3 4 5 6 6 6 8 11 11 9 6 6 6 4 4 3 2 2 2 3 3 3 2 2 3 3 3 4 5 6 7 7 7 9 19 70 100 100
2 2 3 3 3 4 5 5 5 5 6 8 11 10 8 8 6 5 4 3 2 2 2 2 2 2 2 2 3 2 4 5 6 5 7 9 10 12 11 11 16 69 100 100 100
5 6 6 6 6 6 8 9 9 9 8 7 6 5 4 3 3 2 2 2 2 2 2 2 2 2 2 3 4 6 7 12 12 12 12 13 18 15 16 17 22 91 100 100 100
15 15 15 12 11 11 10 8 6 5 4 3 3 2 2 2 2 2 2 2 2 2 2 2 2 3 3 5 6 10 17 19 35 36 37 26 21 16 16 22 66 96 100 100 100
10 10 9 8 7 6 5 4 4 4 3 2 2 2 2 2 2 2 2 2 2 2 2 2 3 4 5 8 13 15 30 36 62 76 70 58 38 27 20 27 100 100 100 100 100
8 7 7 6 5 4 4 4 3 3 3 3 2 2 2 2 2 2 2 2 2 2 3 4 4 6 8 8 13 20 38 64 69 81 91 92 81 71 32 31 100 100 100 100 100
6 6 6 5 5 5 4 4 4 4 3 2 2 3 3 3 3 2 3 3 3 3 3 4 4 6 9 11 17 32 40 70 84 75 91 100 99 100 77 36 100 100 100 100 100
8 8 9 10 10 8 7 7 6 4 5 5 4 4 3 3 3 3 3 4 4 4 4 4 5 6 8 9 12 26 43 58 74 95 81 99 100 98 96 54 95 100 100 100 100
11 12 14 14 14 14 12 11 11 10 9 7 7 5 4 4 4 4 4 5 5 6 6 6 8 9 12 11 11 12 15 23 40 56 61 59 68 73 79 51 80 100 88 100 100
18 16 15 16 18 19 19 17 16 14 13 10 9 10 9 8 8 8 10 9 9 8 8 8 9 10 12 14 15 14 14 13 14 15 13 21 20 19 30 30 38 74 87 69 95

GFSSW_250_rhum_105.txt.gz
RH
100 100 100 100 87 76 68 77 83 66 60 43 38 18 17 15 14 16 20 18 16 28 31 29 31 35 39 26 24 26 31 27 20 14 13 10 12 18 23 28 35 26 24 25 24
95 90 98 96 97 96 72 76 71 72 71 77 56 28 22 20 14 10 9 8 8 12 16 21 17 18 26 32 23 25 37 40 28 22 14 14 10 12 13 17 23 23 19 21 20
100 99 96 100 100 100 100 94 87 82 75 80 57 56 38 26 17 12 10 8 8 7 7 9 11 14 17 22 24 21 28 32 31 23 20 20 12 12 10 12 17 20 17 16 17
100 100 100 100 100 100 100 100 99 88 75 68 59 50 44 38 25 16 10 8 8 7 6 6 6 9 12 15 15 26 23 27 32 28 20 26 22 18 13 14 11 13 14 14 16
100 100 100 100 100 100 100 100 100 95 86 69 54 48 39 33 34 15 11 9 7 7 6 5 5 6 7 8 11 13 14 16 18 18 20 17 20 21 15 12 12 10 10 13 14
100 96 98 97 100 100 96 100 100 98 74 67 48 42 33 28 28 18 13 9 6 6 6 5 4 4 4 6 7 8 10 8 10 13 13 12 19 15 18 15 10 11 10 11 11
22 24 30 25 27 31 38 46 58 74 53 52 44 28 21 17 19 14 12 7 6 5 5 5 4 4 3 4 5 6 7 8 8 9 10 10 12 12 11 10 10 8 11 10 10
7 6 6 7 8 10 13 21 31 38 38 40 31 15 12 12 11 12 9 6 5 5 5 4 4 4 3 3 4 5 5 5 6 6 7 8 9 7 7 6 7 7 7 6 7
3 3 3 4 5 6 8 11 13 18 20 20 13 7 7 9 9 8 8 6 5 4 4 4 4 4 4 3 3 4 4 4 4 5 6 6 8 6 6 5 6 5 4 4 5
2 2 2 2 3 4 6 8 7 9 9 10 9 5 5 6 6 7 7 6 4 5 4 4 4 4 3 3 3 4 4 4 3 3 4 4 4 4 4 4 3 3 3 4 4
1 1 2 2 3 3 4 5 6 6 8 6 5 6 5 4 5 7 7 6 6 6 4 4 4 3 3 3 3 3 3 3 3 3 3 2 3 3 3 3 3 3 3 4 4
1 1 1 2 3 3 3 4 4 5 4 4 4 4 4 4 5 7 8 7 6 4 4 4 3 3 4 3 3 3 3 3 3 2 2 2 2 2 2 2 3 3 3 4 4
1 1 1 2 2 2 2 3 3 4 3 3 3 3 3 4 6 6 6 5 4 4 4 3 4 3 3 3 3 3 2 2 2 2 2 2 2 2 2 3 3 2 3 3 4
1 1 1 1 2 2 2 2 2 3 3 2 2 3 4 4 5 5 4 4 4 4 4 4 4 4 3 3 2 2 2 2 2 2 2 2 3 3 3 3 3 3 3 3 4
1 1 1 1 1 2 2 2 2 2 2 2 3 4 4 4 4 4 4 4 4 5 5 4 3 3 2 2 2 2 3 3 3 3 3 3 3 2 2 2 2 2 2 2 3
1 1 1 1 1 2 2 2 2 2 3 3 4 4 4 4 4 4 5 5 5 4 3 3 3 4 3 4 4 4 5 5 5 4 4 3 2 2 2 2 2 2 2 2 3
1 1 1 1 1 1 2 2 2 3 3 4 4 4 4 5 5 5 5 4 3 3 3 3 4 6 6 6 6 5 4 3 3 3 3 2 2 2 2 2 2 2 3 3 4
2 2 2 2 2 2 3 3 4 4 4 4 5 5 4 5 4 4 3 3 4 5 7 7 6 6 5 4 3 3 3 3 3 3 3 3 2 2 3 3 4 6 7 12 11
6 5 6 5 4 4 4 5 4 5 6 6 6 5 4 5 5 6 6 5 4 4 4 4 4 4 3 3 3 3 3 3 4 4 4 6 6 6 7 7 14 57 94 93 78
6 6 7 8 8 8 8 9 9 9 9 9 7 8 7 6 4 4 3 3 3 3 3 3 3 3 3 3 3 4 5 7 8 7 8 11 10 14 15 38 98 100 100 100 100
4 4 4 5 5 6 5 6 6 6 6 6 5 5 4 3 3 3 2 2 2 2 2 2 3 3 4 5 5 10 8 10 18 16 20 21 14 25 100 98 100 100 100 100 100
5 5 4 4 4 4 3 3 3 3 3 3 3 2 2 2 2 2 2 2 2 2 2 3 4 4 5 8 13 20 12 21 33 30 25 39 19 36 100 100 100 100 100 100 100
6 7 6 5 4 4 3 3 3 3 3 2 2 3 3 2 2 2 2 2 2 2 3 4 4 6 8 10 21 32 35 40 67 55 31 26 28 42 95 100 100 100 100 100 100
9 10 8 8 6 5 3 3 4 3 3 3 2 2 3 3 3 2 2 3 3 3 3 4 7 7 8 13 18 36 52 60 47 59 84 64 47 51 100 100 100 100 100 100 100
17 14 11 10 8 6 6 5 5 5 4 3 4 4 3 4 4 3 3 3 3 4 5 5 6 6 7 10 20 30 41 41 51 70 79 90 76 36 100 100 100 100 100 100 100
24 21 20 16 15 15 12 10 9 7 8 7 6 5 4 4 4 4 5 5 6 4 5 6 7 7 7 8 12 14 26 35 38 44 53 62 79 54 40 100 100 100 92 100 100
39 30 28 28 27 24 23 22 19 16 13 13 12 9 9 8 8 7 7 7 8 9 8 9 12 13 14 14 13 15 15 14 16 16 18 28 22 26 22 27 57 72 76 67 64

GFSSW_250_rhum_111.txt.gz
RH
21 36 46 58 71 88 54 72 80 67 87 97 81 81 98 100 74 42 37 46 43 49 55 68 50 54 60 58 42 36 42 32 23 28 38 49 56 52 32 31 28 25 28 49 55
28 18 17 22 32 39 62 65 61 76 85 89 100 100 100 82 85 90 60 57 46 53 45 44 50 48 57 54 38 35 38 33 27 21 25 39 46 44 40 28 25 23 22 25 42
41 52 38 31 16 19 28 36 59 74 71 83 77 86 100 93 75 65 69 48 43 40 42 28 19 22 30 24 28 38 49 30 30 28 25 26 39 43 36 35 26 21 20 21 22
25 32 35 35 42 26 18 27 28 56 76 79 91 85 97 100 91 87 73 49 50 41 47 48 25 18 15 11 12 16 19 22 23 22 29 28 26 38 35 35 21 19 15 17 19
14 14 16 22 16 22 22 24 20 28 53 58 80 74 76 90 99 86 90 71 55 48 38 31 24 19 15 14 10 9 8 10 13 13 14 20 26 27 30 30 26 20 17 15 17
2 2 2 2 2 3 7 12 15 16 26 53 52 60 85 82 75 81 96 83 65 70 54 33 23 21 17 14 12 8 7 6 7 8 8 11 16 17 22 21 29 21 15 14 17
1 1 1 2 2 2 2 3 7 9 14 26 52 53 55 64 64 66 66 66 60 61 60 38 28 19 16 14 11 9 6 6 5 5 5 6 8 9 10 12 16 20 15 11 12
1 1 1 1 1 2 2 3 4 8 13 20 22 37 49 47 53 51 45 46 53 48 40 31 25 18 14 11 12 11 8 6 5 4 4 4 5 6 6 7 12 14 16 13 8
1 1 1 1 1 1 2 2 3 6 13 19 24 25 28 34 42 36 34 34 32 32 32 27 25 24 21 14 12 11 8 4 3 3 3 3 4 4 4 5 7 9 9 10 6
1 1 1 1 1 1 2 2 3 5 12 19 27 27 34 35 28 35 39 34 33 39 39 33 28 27 24 21 14 9 5 5 4 2 3 3 4 4 3 3 5 7 7 7 7
1 1 2 1 1 1 2 2 3 5 10 16 24 24 23 28 22 19 24 24 17 23 31 28 27 22 20 14 8 6 6 4 3 3 3 3 3 3 2 3 3 4 5 5 5
2 2 2 2 2 2 2 2 3 3 6 9 12 18 18 16 18 16 18 18 17 15 20 21 21 16 9 7 7 6 6 4 3 3 3 2 3 2 2 2 2 3 4 4 4
1 2 2 2 3 3 3 3 3 3 4 6 7 8 8 8 10 11 12 13 13 15 12 8 6 6 6 6 6 6 5 4 3 3 3 2 2 2 2 2 2 2 2 2 3
2 1 2 2 3 3 3 3 3 4 4 5 6 6 8 9 11 12 12 11 10 7 6 5 6 6 8 10 7 5 4 3 3 2 2 2 2 2 2 2 2 2 2 2 2
4 2 2 2 2 2 3 4 4 5 6 6 7 8 9 9 9 10 10 8 6 5 6 7 9 10 8 6 4 4 4 3 3 3 3 3 2 2 2 2 2 2 2 2 2
6 7 4 3 3 3 3 3 3 4 4 5 5 6 6 6 6 6 5 5 7 9 11 11 8 7 6 6 5 4 4 4 4 3 3 3 3 2 2 2 2 2 2 2 2
5 6 9 7 4 4 4 4 4 4 4 4 4 4 4 5 6 7 8 9 10 10 9 8 8 7 6 5 6 5 5 5 5 5 4 3 3 3 2 2 2 2 2 2 2
8 5 4 4 8 11 8 5 6 5 4 5 5 6 6 7 7 7 7 7 8 8 7 7 7 6 6 6 7 6 7 8 7 6 6 6 5 4 4 4 4 4 4 4 4
14 8 5 4 4 4 7 12 14 12 8 6 7 6 6 7 7 6 7 6 7 7 8 7 8 9 12 10 12 13 10 8 7 6 6 5 4 4 3 3 3 2 2 3 3
30 15 9 5 4 4 3 4 4 6 8 11 13 13 11 8 8 7 8 8 7 12 12 14 17 14 12 10 8 7 6 6 7 6 5 4 4 5 3 4 3 3 2 2 2
30 29 18 11 6 4 5 4 3 3 4 4 4 4 5 9 10 12 13 13 13 12 11 9 7 6 6 6 6 6 8 10 13 16 11 7 10 13 10 14 17 14 14 18 21
28 30 27 23 13 8 5 4 4 3 3 3 3 3 3 3 4 4 4 5 5 5 5 6 6 6 5 8 12 13 16 20 22 35 39 47 28 29 42 35 37 40 40 57 90
32 28 28 29 31 28 12 6 5 4 3 3 4 3 3 3 4 3 3 4 4 5 6 8 8 8 12 17 31 26 22 23 23 38 35 48 48 45 56 56 75 75 81 99 100
33 32 30 30 35 36 39 22 10 6 5 4 3 4 4 5 6 6 7 7 8 10 10 11 10 14 22 29 40 40 34 35 33 54 45 40 56 66 66 73 64 92 100 100 100
29 39 34 31 36 40 40 38 32 18 10 7 6 5 6 7 10 11 11 13 16 19 20 20 16 20 20 22 32 50 46 31 58 58 70 37 52 61 65 73 70 82 100 100 100
31 40 34 38 32 37 41 43 44 41 34 18 15 12 10 10 11 13 15 17 21 21 25 35 32 33 28 30 34 46 62 54 49 52 72 73 33 58 67 53 74 74 85 100 100
21 31 41 35 38 39 37 40 44 48 48 45 36 22 22 18 16 14 15 15 15 16 18 25 33 38 41 43 45 43 57 59 55 52 51 69 45 54 48 51 57 68 76 98 100

GFSSW_250_rhum_114.txt.gz
RH
28 25 23 19 24 24 22 27 48 42 60 55 63 75 91 84 72 50 38 38 54 85 99 100 97 96 100 100 100 92 82 86 82 69 66 42 47 48 52 51 33 26 30 43 50
16 14 14 15 19 22 24 20 27 39 46 55 54 46 70 90 87 75 75 60 41 46 53 63 97 96 97 86 71 84 91 77 60 48 47 50 53 52 44 37 37 39 29 25 32
9 10 10 12 16 21 22 31 34 24 49 63 78 53 51 70 93 93 78 84 77 50 43 36 35 49 65 81 77 57 57 65 65 56 55 39 39 40 40 46 33 27 36 28 20
11 13 14 14 14 16 18 24 29 28 24 39 62 80 56 77 70 92 100 94 81 94 91 75 36 25 27 35 41 36 35 40 45 52 42 35 43 44 31 35 27 22 30 35 26
2 3 10 21 19 20 20 23 24 33 24 24 42 57 92 62 78 80 91 88 90 77 72 70 72 43 25 18 19 26 30 29 33 42 41 33 37 43 35 27 28 20 23 34 28
1 1 1 3 10 14 18 20 26 42 39 34 30 54 70 87 55 63 84 91 89 89 78 72 66 56 41 27 17 13 14 14 25 29 26 25 30 35 30 19 21 26 17 20 27
1 2 1 2 2 2 4 11 19 37 47 47 45 37 53 56 66 63 81 98 100 93 78 67 61 49 44 38 26 16 13 10 10 10 9 8 8 12 12 12 12 16 17 12 18
2 1 1 1 2 2 2 2 6 22 32 44 62 53 41 53 68 67 76 74 73 84 86 72 59 57 46 35 26 19 16 13 10 8 7 6 7 6 5 6 8 9 12 10 8
2 1 1 1 1 2 2 2 2 9 29 35 49 62 58 50 47 58 56 63 71 73 81 72 72 56 44 34 24 19 15 11 11 9 7 7 7 6 4 4 5 6 6 7 7
2 2 1 2 2 2 2 2 2 4 11 21 43 53 52 48 30 26 54 61 73 73 70 72 57 56 38 31 27 24 24 24 20 10 8 6 6 5 4 2 3 4 4 5 5
2 2 2 2 2 2 2 2 2 3 3 4 7 35 57 52 40 35 32 40 47 52 62 53 47 45 43 36 31 33 36 29 18 9 6 5 5 4 3 2 2 2 3 3 4
2 2 2 2 2 2 2 2 2 2 3 3 4 5 13 29 32 23 21 18 25 34 43 45 44 45 43 42 39 36 27 14 11 4 4 5 4 3 3 2 2 2 2 3 3
9 3 2 2 3 2 2 3 3 3 3 3 4 6 8 13 14 14 17 18 21 25 29 28 33 35 36 30 25 18 11 8 8 8 5 4 4 2 2 2 2 2 2 2 2
5 10 4 2 2 3 3 3 4 4 4 4 4 6 7 8 9 9 11 13 16 16 19 26 28 28 18 13 12 10 11 8 7 6 4 4 4 2 2 2 2 2 2 2 2
4 5 11 5 3 2 3 4 4 5 6 6 7 9 12 11 11 11 14 17 21 24 27 22 12 10 10 9 8 6 6 6 5 4 3 3 3 2 2 2 2 2 2 2 2
7 5 5 7 8 4 3 3 4 5 6 6 8 8 9 9 10 11 10 10 10 9 8 8 8 7 6 6 6 7 8 6 5 5 4 4 3 3 3 3 2 2 2 2 2
15 8 6 4 4 9 5 4 4 3 4 4 5 6 6 7 7 7 7 8 8 8 7 7 7 8 8 10 10 10 8 10 8 7 5 4 4 4 3 2 2 2 2 2 2
19 15 9 5 4 4 5 10 5 5 6 5 4 4 4 4 4 5 5 5 6 8 9 9 10 10 11 13 13 12 10 9 8 7 6 5 5 4 3 3 2 2 2 2 2
22 20 16 9 5 4 4 4 5 12 9 6 6 6 6 7 7 7 7 8 9 11 12 12 14 13 11 14 13 11 14 14 12 9 8 7 6 5 4 4 3 3 3 2 2
35 25 20 14 8 4 4 4 4 4 7 10 12 10 8 8 8 9 10 12 11 12 12 13 15 16 19 16 16 15 16 16 14 9 9 6 6 4 3 3 3 3 3 3 3
28 33 28 18 13 14 8 5 4 3 3 5 7 12 16 20 21 19 18 21 23 22 20 20 22 16 13 13 13 14 17 20 27 24 19 14 11 10 8 10 8 4 4 3 2
29 26 32 29 19 20 18 10 6 4 3 3 4 4 6 8 9 10 10 11 10 10 10 10 9 12 14 16 27 29 20 36 45 39 34 34 29 20 23 22 22 21 13 14 9
26 33 26 32 34 27 23 20 16 8 6 4 5 6 6 7 9 10 10 10 11 11 12 16 18 24 28 39 63 46 49 49 51 39 34 44 47 36 30 43 51 43 38 39 35
24 25 30 28 33 33 34 32 31 24 15 9 7 6 6 8 10 10 15 18 20 25 28 29 31 40 43 53 63 65 65 65 63 60 56 43 49 53 62 58 66 84 89 100 98
22 23 26 34 28 33 32 34 38 41 37 27 17 11 10 9 10 15 18 24 26 30 36 43 45 40 38 40 43 50 58 45 56 68 66 72 65 66 54 61 69 83 89 100 100
26 20 22 25 30 38 32 35 35 43 44 46 44 34 24 21 17 15 13 15 19 30 45 50 51 50 51 52 56 53 63 63 57 50 72 82 55 61 68 60 59 90 86 100 100
38 41 29 22 23 36 43 34 33 35 41 52 54 54 48 37 31 28 25 22 20 17 18 25 36 44 46 49 50 52 69 68 65 38 47 56 61 63 68 66 62 68 73 90 100

GFSSW_250_rhum_117.txt.gz
RH
6 10 12 14 14 17 22 26 27 33 46 60 79 53 41 44 44 56 52 50 70 96 98 91 85 67 50 57 63 60 51 63 65 50 54 54 72 66 66 57 61 68 42 36 31
5 5 7 9 12 13 13 17 25 29 38 75 82 92 72 67 49 40 63 63 57 61 80 95 98 97 86 78 84 71 87 79 71 51 48 42 51 72 76 72 62 58 59 31 29
4 7 7 6 8 11 12 13 16 22 28 35 58 67 84 81 77 59 43 61 66 62 47 49 65 80 100 100 98 89 92 76 85 99 98 86 79 70 67 72 63 48 45 30 28
2 2 4 6 7 7 10 12 13 18 19 23 37 35 68 80 80 71 62 61 62 58 68 49 46 54 66 88 100 99 100 96 99 90 95 94 98 99 100 98 70 49 43 40 27
2 2 1 2 8 10 9 9 12 15 15 20 27 40 39 44 78 83 76 61 62 78 74 70 42 39 44 48 56 67 74 84 97 87 83 71 82 88 98 72 54 36 33 36 40
2 2 2 2 2 9 12 12 11 12 15 20 28 36 46 43 57 75 73 82 46 68 65 64 52 41 41 39 30 31 31 43 76 82 83 72 62 56 47 44 50 42 28 29 36
2 2 2 2 2 2 5 12 15 14 16 21 28 34 43 50 57 72 60 82 82 72 63 61 50 43 47 45 45 39 27 18 24 32 35 51 51 44 43 45 31 28 24 18 21
2 2 1 2 2 2 2 2 6 17 16 19 27 32 39 54 57 45 60 68 70 76 63 60 66 55 47 45 44 31 24 15 15 16 12 10 11 14 17 18 17 15 18 17 13
2 2 2 2 1 1 2 2 2 9 14 18 27 31 39 44 57 55 44 58 77 70 80 70 58 58 57 47 50 42 36 30 21 15 10 9 10 9 7 7 8 8 9 8 9
2 3 2 2 1 1 2 2 2 3 7 12 23 28 35 43 55 62 46 47 70 81 72 77 71 52 53 61 48 48 40 38 25 17 16 12 12 13 11 10 9 7 6 6 5
3 3 3 2 2 1 2 2 2 2 3 8 26 30 33 41 63 75 52 44 44 49 68 69 81 70 69 67 64 50 34 26 24 20 19 18 20 19 13 10 7 5 4 4 4
6 4 3 3 2 2 2 2 2 2 2 3 18 33 35 45 69 57 54 47 48 48 41 44 64 72 63 55 60 59 44 28 24 23 32 33 29 21 10 5 4 3 3 3 3
4 7 5 3 3 2 2 3 3 3 2 2 4 16 33 50 69 74 70 61 55 51 44 43 46 68 62 49 43 41 40 34 30 29 25 16 10 8 3 3 3 3 3 3 2
3 4 10 6 3 3 3 3 4 4 4 4 4 5 16 31 39 41 39 46 49 47 38 36 37 32 33 33 34 36 37 35 29 34 21 6 10 7 4 3 4 3 2 2 2
6 4 4 10 7 3 3 4 4 5 7 8 7 5 7 17 23 25 29 32 30 32 26 24 26 22 23 30 30 20 17 20 18 16 12 7 7 5 4 3 3 2 2 2 2
15 5 4 4 9 9 5 4 4 4 6 7 10 13 13 11 9 11 18 17 20 24 28 27 23 21 17 15 17 17 16 14 12 11 7 6 7 6 4 4 3 3 2 2 2
32 14 6 4 4 7 11 7 4 4 4 5 7 9 10 14 15 17 21 22 22 19 15 14 14 14 13 12 12 10 9 9 9 11 8 7 6 5 4 4 3 3 2 2 2
27 32 14 6 5 3 5 15 7 6 6 5 4 5 5 7 8 10 10 9 8 9 10 10 10 8 8 8 10 11 11 10 12 12 11 8 6 6 5 5 4 3 2 2 2
23 24 30 14 6 5 4 4 11 14 7 6 6 7 7 6 6 6 6 6 7 6 8 8 9 11 14 13 12 11 12 14 13 11 11 11 9 8 6 5 5 4 4 3 2
28 24 28 31 15 7 9 6 4 6 14 19 14 9 8 9 10 10 10 10 12 13 13 13 14 15 16 20 20 23 19 16 16 16 16 10 10 9 5 5 4 4 4 3 3
36 32 27 26 29 27 13 9 8 5 4 6 8 11 17 21 21 22 21 19 19 23 28 28 30 33 30 27 22 18 19 26 28 30 22 25 25 25 17 13 12 7 5 3 3
20 23 22 26 24 32 36 20 12 10 10 9 9 9 8 8 11 12 15 20 21 21 22 26 28 25 21 20 26 38 33 52 48 33 33 52 40 48 30 42 28 22 16 8 6
16 19 19 20 22 27 30 35 32 20 14 13 14 15 13 12 16 13 10 10 11 13 14 14 14 18 26 37 52 38 52 50 46 47 41 69 56 42 33 43 37 54 58 39 40
22 19 22 21 18 21 29 28 35 37 29 20 16 14 13 16 20 21 21 24 21 20 20 20 27 29 33 44 52 44 45 50 63 65 56 64 53 53 43 41 53 65 99 95 99
46 24 22 25 19 20 21 30 28 36 41 37 32 24 23 22 16 13 15 20 27 31 34 36 38 42 44 43 44 47 48 46 48 48 55 70 57 65 67 49 56 66 79 89 99
68 47 26 22 36 29 25 20 28 34 32 42 41 46 38 31 31 31 27 23 20 20 29 34 41 45 38 45 54 65 70 71 59 50 56 58 74 71 74 60 61 86 86 100 100
74 71 52 26 36 36 36 29 22 28 33 30 38 47 49 58 54 45 41 41 38 34 33 26 21 23 30 39 41 57 59 62 71 64 80 80 75 73 77 84 84 86 82 90 100

GFSSW_250_rhum_120.txt.gz
RH
2 4 5 5 6 8 12 17 21 18 20 28 34 37 35 54 61 66 64 65 79 82 75 79 86 83 78 80 78 63 78 73 68 66 70 62 50 73 99 90 83 93 81 61 54
2 2 2 4 5 5 7 11 16 20 18 22 34 46 40 41 50 55 56 53 51 64 80 82 77 96 72 77 68 67 64 74 66 68 78 76 54 44 56 78 94 89 96 72 69
2 2 1 2 5 5 6 6 10 19 20 22 29 40 64 66 38 53 44 50 46 42 46 55 73 81 79 77 79 70 58 56 70 70 72 78 64 50 48 50 53 49 42 39 58
2 2 2 2 2 5 7 6 8 18 25 26 28 29 43 66 64 93 74 56 45 36 36 44 47 55 56 64 95 87 67 65 69 68 56 44 44 49 51 44 54 45 39 37 35
2 2 2 2 2 2 6 7 6 13 19 25 31 34 37 52 65 75 71 67 63 65 60 39 46 37 42 55 64 93 93 93 59 55 59 55 49 60 53 34 35 32 44 48 47
2 2 1 2 2 2 5 8 6 8 17 20 30 38 37 38 65 64 89 98 90 79 91 74 48 49 49 42 47 53 72 86 94 93 98 81 58 71 65 59 60 48 37 43 59
2 2 1 1 2 2 2 4 11 9 12 16 25 43 39 32 41 43 51 96 100 95 88 82 77 58 52 53 46 42 40 46 53 70 75 78 98 80 67 80 80 81 60 80 69
2 2 1 1 2 2 2 2 11 10 10 15 26 38 51 31 33 42 46 57 99 100 100 89 84 55 53 46 40 36 32 31 29 30 33 39 58 66 94 95 85 85 80 69 66
2 2 2 2 1 2 2 2 6 11 11 12 20 32 40 34 26 33 40 48 59 86 100 100 100 96 75 54 33 30 25 21 19 18 15 14 20 27 30 31 33 32 29 43 58
2 2 2 2 2 2 2 2 2 5 8 11 13 20 33 38 28 25 40 47 52 51 81 100 97 96 94 75 61 51 36 24 20 20 18 16 14 13 12 10 11 11 14 22 27
3 2 2 2 2 2 2 2 2 3 5 14 13 14 23 31 34 23 34 47 56 62 65 76 92 100 95 81 72 68 65 52 39 25 21 18 18 18 14 12 10 9 9 9 9
4 3 2 3 2 2 2 2 2 3 5 14 19 15 18 24 28 30 32 44 51 57 60 59 63 73 83 83 86 89 68 38 31 28 25 26 24 18 15 14 13 11 10 10 10
3 5 4 3 3 3 2 2 3 2 3 10 20 21 20 23 27 33 36 38 43 46 56 71 60 47 47 52 64 61 70 65 55 47 36 26 23 22 16 14 12 11 8 6 6
5 3 6 4 3 3 4 3 3 3 3 5 10 18 23 24 27 31 33 37 40 47 62 68 56 54 54 48 43 48 56 55 49 43 31 26 42 37 16 12 8 6 6 5 3
20 6 3 9 6 5 4 5 4 4 4 4 5 10 17 23 27 30 35 37 41 49 56 63 53 44 44 51 50 46 41 34 25 26 33 37 34 13 9 8 8 7 5 3 3
25 22 7 4 9 7 7 5 5 6 6 4 4 7 9 15 20 26 34 36 38 42 43 44 45 44 39 33 25 22 25 33 26 20 21 14 10 10 9 7 5 4 4 3 2
24 25 24 8 5 7 14 10 7 6 7 7 7 6 6 8 10 15 20 28 35 39 46 45 41 36 26 26 30 26 21 18 15 13 13 12 9 8 9 7 5 4 4 3 2
24 26 26 25 9 8 6 11 14 9 8 7 8 9 9 9 8 8 10 11 15 20 21 16 14 15 15 15 15 16 13 12 13 12 10 12 14 12 10 7 6 5 4 3 3
20 26 26 23 28 15 10 7 7 14 16 12 11 9 8 9 11 12 13 14 14 14 15 14 14 16 16 14 12 10 11 13 15 18 16 16 18 16 13 10 8 6 5 4 3
16 19 23 25 22 33 35 15 9 7 6 13 17 18 16 15 13 12 11 10 11 11 11 10 11 11 12 14 14 19 20 22 19 24 30 36 38 23 17 16 13 9 8 6 5
22 20 17 22 26 31 34 34 22 12 8 8 6 10 18 27 28 21 17 16 16 16 17 18 19 15 16 19 25 26 26 32 47 53 43 38 36 53 49 48 34 32 18 12 6
42 26 23 17 19 26 26 27 40 30 17 11 12 10 9 9 10 12 15 18 26 30 29 29 30 28 31 29 33 34 50 52 59 57 69 57 64 76 86 77 68 62 41 26 13
54 42 29 26 17 19 26 29 24 35 38 28 21 14 14 14 16 19 22 24 25 26 30 30 30 33 36 34 43 44 46 59 63 73 76 76 75 96 91 78 47 55 80 75 45
58 51 45 40 27 19 19 22 32 29 28 40 40 32 27 18 14 15 21 29 36 42 46 46 49 49 50 54 59 66 62 60 76 84 82 85 72 93 90 62 54 74 96 84 94
89 74 67 51 45 38 21 22 20 30 32 31 32 42 42 32 32 30 24 18 20 28 37 44 57 59 73 81 79 74 70 78 82 86 85 90 95 95 93 83 94 70 86 70 98
97 98 82 61 61 52 42 30 27 20 25 32 33 32 42 47 46 41 36 35 30 22 18 20 31 42 54 64 69 80 79 89 95 93 100 100 100 95 100 99 88 90 81 100 100
100 100 84 59 66 55 61 44 38 23 18 21 30 34 34 38 49 55 55 48 41 37 36 33 30 28 30 30 31 40 43 53 66 70 71 78 88 96 100 100 100 93 96 100 100

GFSSW_250_rhum_123.txt.gz
RH
1 1 2 3 6 6 6 10 17 23 25 28 27 32 40 35 37 52 80 100 96 99 100 93 95 94 83 86 82 64 86 88 81 67 74 85 94 100 100 96 88 94 91 83 69
2 2 2 2 2 3 8 6 11 19 21 28 30 33 44 45 36 45 77 94 100 100 100 100 98 93 100 90 71 82 83 72 86 64 52 49 64 71 74 89 82 90 82 86 95
2 2 2 2 2 2 4 6 5 10 20 22 29 34 42 45 34 51 61 85 100 100 100 100 99 96 100 100 100 92 74 86 64 61 54 56 62 58 64 64 62 62 58 57 74
2 2 2 2 2 2 2 8 7 6 16 19 24 39 36 27 36 35 53 62 80 100 100 100 100 100 100 98 95 84 85 71 68 63 57 54 57 52 57 56 58 75 76 64 48
2 1 2 2 2 2 2 4 10 8 9 21 31 31 27 32 43 37 39 46 66 77 88 91 92 94 98 100 95 98 96 80 83 69 66 60 60 59 53 50 52 61 58 60 57
2 1 1 2 2 2 2 3 9 10 7 16 25 30 28 37 30 38 37 39 51 64 68 71 70 70 71 71 74 90 92 86 81 84 77 72 65 57 50 48 50 56 55 50 40
2 1 1 2 2 2 2 3 8 10 8 9 22 30 29 36 30 54 50 41 41 50 65 67 66 65 62 54 51 51 60 75 79 77 79 75 73 86 66 49 40 46 53 47 38
2 2 1 2 2 2 2 3 6 9 8 8 20 29 31 33 30 26 36 56 58 49 56 64 63 65 58 51 42 34 36 38 42 53 60 58 70 71 75 66 64 60 57 53 46
2 2 2 1 2 2 2 2 5 12 10 9 14 28 29 32 24 23 31 51 67 81 62 64 70 80 68 64 66 69 51 36 31 27 27 30 43 52 56 57 70 66 65 66 69
3 3 2 2 2 2 2 2 2 7 10 9 14 22 31 33 28 25 32 40 51 79 90 78 75 90 96 96 87 62 56 44 32 29 23 25 27 29 30 33 35 39 41 39 34
6 3 3 2 2 2 2 2 3 4 8 9 11 17 31 33 25 26 35 42 51 57 65 78 74 65 78 90 92 95 100 92 67 54 48 34 29 26 24 19 14 14 12 12 11
6 7 3 4 2 2 2 2 3 10 16 11 10 11 18 26 26 22 34 41 43 49 51 51 60 81 90 96 99 100 100 91 92 80 56 43 24 21 19 17 15 13 14 13 12
8 8 8 3 4 2 2 2 3 12 24 18 13 12 12 16 17 17 30 43 48 51 49 49 52 54 59 62 77 97 96 100 95 79 66 66 45 32 24 17 18 18 16 14 12
20 10 8 9 4 4 5 2 3 5 15 22 21 17 16 16 16 17 24 39 49 53 50 46 46 50 60 63 63 68 71 64 52 46 44 37 33 35 30 24 18 15 14 12 11
19 23 12 7 8 6 4 5 3 3 4 14 24 23 20 19 18 18 19 26 34 40 45 42 43 48 54 60 63 67 59 46 33 32 40 40 36 46 40 37 31 22 17 10 8
20 20 24 15 8 9 8 5 6 5 4 4 11 26 26 22 22 21 21 24 29 35 39 40 43 43 43 50 62 56 43 40 47 54 55 45 33 36 18 17 13 13 11 8 6
24 22 20 23 21 12 11 11 6 6 7 7 5 8 22 29 27 26 26 26 29 33 36 39 39 38 40 47 49 47 40 38 40 38 28 21 19 14 12 14 11 9 8 6 5
16 23 24 23 24 29 19 12 14 10 7 6 7 10 8 9 17 25 27 27 27 28 29 32 36 39 39 45 40 31 23 19 17 16 15 15 14 13 11 11 12 12 11 9 7
28 16 18 25 20 21 32 34 14 10 14 10 9 8 7 8 11 12 13 12 14 16 23 23 26 30 25 23 16 14 15 14 14 14 12 13 19 24 29 30 27 22 18 12 9
51 25 19 17 19 19 23 26 34 20 13 10 13 16 15 14 11 8 8 9 11 12 13 12 14 14 13 13 13 12 12 14 18 25 33 36 48 57 50 68 54 38 35 20 10
43 62 28 18 16 19 20 19 20 29 30 18 16 11 9 14 24 29 28 20 18 17 16 17 18 20 20 24 28 30 35 38 49 52 56 58 73 82 82 84 84 74 50 34 16
70 61 55 29 19 19 19 21 21 24 25 35 32 16 16 12 9 12 18 24 26 30 38 41 39 40 40 42 56 74 70 84 78 82 86 85 99 100 95 99 95 88 65 64 43
82 61 54 44 30 22 19 18 23 21 25 24 31 36 31 17 18 22 25 23 30 32 42 51 58 61 65 76 85 90 95 87 90 94 97 100 100 100 100 100 97 81 90 95 67
88 77 82 52 36 37 28 18 18 24 23 26 28 31 40 40 35 26 18 24 27 27 34 48 62 75 88 88 95 98 99 100 100 100 96 98 100 100 100 100 99 94 100 100 100
100 79 69 76 43 54 45 36 22 25 31 27 24 26 29 34 43 42 40 34 27 26 33 33 35 43 55 69 86 86 86 87 96 100 95 94 94 96 100 100 88 89 80 100 100
86 100 84 85 64 46 46 44 48 38 33 23 25 27 24 28 30 37 43 43 42 37 35 31 28 29 29 29 32 41 46 54 60 65 60 69 66 69 71 84 84 90 84 91 100
96 93 100 100 63 68 57 52 55 51 48 30 35 24 30 27 24 31 29 35 48 51 56 51 45 39 37 37 36 36 39 43 45 45 45 45 43 44 44 44 50 64 61 75 69